Wetterdaten: Samstag, 08.07.2017
Datum Zeit Temp. A. Pool Temp. Feuchte A. Luftdruck Regen Wind Richtung Richtung Sonnenschein ET UV Solar Taupunkt Windchill Windben Empfang
08.07.2017 00:00 22,0 C 25,0 C 69 % 1013,6 hPa 0,0 l/m 4,3 km/h (1 Bft) SW 227 0 min 0,000 mm 0,0 UV-I 0 W/m 16,0 C 22,0 C 6,4 km/h (2 Bft) 94,34 %
08.07.2017 00:02 21,9 C 25,0 C 69 % 1013,6 hPa 0,0 l/m 4,1 km/h (1 Bft) SW 227 0 min 0,000 mm 0,0 UV-I 0 W/m 15,9 C 21,9 C 6,4 km/h (2 Bft) 97,22 %
08.07.2017 00:04 21,9 C 25,0 C 70 % 1013,6 hPa 0,0 l/m 4,6 km/h (1 Bft) SW 227 0 min 0,000 mm 0,0 UV-I 0 W/m 16,2 C 21,9 C 6,4 km/h (2 Bft) 92,00 %
08.07.2017 00:06 21,9 C 25,0 C 70 % 1013,6 hPa 0,0 l/m 2,5 km/h (1 Bft) SW 227 0 min 0,000 mm 0,0 UV-I 0 W/m 16,2 C 21,9 C 4,8 km/h (1 Bft) 96,00 %
08.07.2017 00:08 21,8 C 25,0 C 70 % 1013,6 hPa 0,0 l/m 4,1 km/h (1 Bft) SW 227 0 min 0,000 mm 0,0 UV-I 0 W/m 16,1 C 21,8 C 6,4 km/h (2 Bft) 96,00 %
08.07.2017 00:10 21,8 C 25,0 C 71 % 1013,7 hPa 0,0 l/m 4,1 km/h (1 Bft) SW 227 0 min 0,000 mm 0,0 UV-I 0 W/m 16,3 C 21,8 C 6,4 km/h (2 Bft) 95,12 %
08.07.2017 00:12 21,7 C 25,0 C 70 % 1013,6 hPa 0,0 l/m 2,5 km/h (1 Bft) SW 227 0 min 0,000 mm 0,0 UV-I 0 W/m 16,0 C 21,7 C 4,8 km/h (1 Bft) 93,62 %
08.07.2017 00:14 21,7 C 25,0 C 71 % 1013,7 hPa 0,0 l/m 4,2 km/h (1 Bft) SW 227 0 min 0,000 mm 0,0 UV-I 0 W/m 16,2 C 21,7 C 4,8 km/h (1 Bft) 90,57 %
08.07.2017 00:16 21,7 C 25,0 C 71 % 1013,7 hPa 0,0 l/m 1,8 km/h (1 Bft) SW 227 0 min 0,000 mm 0,0 UV-I 0 W/m 16,2 C 21,7 C 3,2 km/h (1 Bft) 94,74 %
08.07.2017 00:18 21,6 C 25,0 C 71 % 1013,7 hPa 0,0 l/m 0,2 km/h (0 Bft) SW 227 0 min 0,000 mm 0,0 UV-I 0 W/m 16,1 C 21,6 C 1,6 km/h (1 Bft) 95,74 %
08.07.2017 00:20 21,5 C 25,0 C 71 % 1013,7 hPa 0,0 l/m 0,9 km/h (0 Bft) SW 227 0 min 0,000 mm 0,0 UV-I 0 W/m 16,0 C 21,5 C 3,2 km/h (1 Bft) 95,74 %
08.07.2017 00:22 21,5 C 25,0 C 72 % 1013,7 hPa 0,0 l/m 0,8 km/h (0 Bft) SW 227 0 min 0,000 mm 0,0 UV-I 0 W/m 16,2 C 21,5 C 1,6 km/h (1 Bft) 96,00 %
08.07.2017 00:24 21,4 C 25,0 C 72 % 1013,8 hPa 0,0 l/m 1,3 km/h (1 Bft) SW 227 0 min 0,000 mm 0,0 UV-I 0 W/m 16,1 C 21,4 C 4,8 km/h (1 Bft) 97,87 %
08.07.2017 00:26 21,4 C 25,0 C 72 % 1013,8 hPa 0,0 l/m 3,9 km/h (1 Bft) SW 227 0 min 0,000 mm 0,0 UV-I 0 W/m 16,1 C 21,4 C 6,4 km/h (2 Bft) 95,74 %
08.07.2017 00:28 21,4 C 25,0 C 72 % 1013,9 hPa 0,0 l/m 4,8 km/h (1 Bft) SW 227 0 min 0,000 mm 0,0 UV-I 0 W/m 16,1 C 21,4 C 6,4 km/h (2 Bft) 94,87 %
08.07.2017 00:30 21,3 C 25,0 C 72 % 1013,9 hPa 0,0 l/m 5,5 km/h (1 Bft) SW 228 0 min 0,000 mm 0,0 UV-I 0 W/m 16,0 C 21,3 C 8,0 km/h (2 Bft) 98,00 %
08.07.2017 00:32 21,3 C 25,0 C 72 % 1013,9 hPa 0,0 l/m 6,5 km/h (2 Bft) W-SW 237 0 min 0,000 mm 0,0 UV-I 0 W/m 16,0 C 21,3 C 8,0 km/h (2 Bft) 96,00 %
08.07.2017 00:34 21,3 C 25,0 C 72 % 1013,8 hPa 0,0 l/m 6,2 km/h (2 Bft) SW 226 0 min 0,000 mm 0,0 UV-I 0 W/m 16,0 C 21,3 C 8,0 km/h (2 Bft) 97,87 %
08.07.2017 00:36 21,3 C 25,0 C 72 % 1013,9 hPa 0,0 l/m 5,8 km/h (2 Bft) SW 227 0 min 0,000 mm 0,0 UV-I 0 W/m 16,0 C 21,3 C 8,0 km/h (2 Bft) 94,34 %
08.07.2017 00:38 21,4 C 25,0 C 72 % 1013,9 hPa 0,0 l/m 5,2 km/h (1 Bft) SW 227 0 min 0,000 mm 0,0 UV-I 0 W/m 16,1 C 21,4 C 6,4 km/h (2 Bft) 95,74 %
08.07.2017 00:40 21,4 C 25,0 C 72 % 1013,9 hPa 0,0 l/m 5,7 km/h (1 Bft) SW 231 0 min 0,000 mm 0,0 UV-I 0 W/m 16,1 C 21,4 C 8,0 km/h (2 Bft) 95,74 %
08.07.2017 00:42 21,5 C 25,0 C 72 % 1013,9 hPa 0,0 l/m 6,7 km/h (2 Bft) W-SW 243 0 min 0,000 mm 0,0 UV-I 0 W/m 16,2 C 21,4 C 9,7 km/h (2 Bft) 90,24 %
08.07.2017 00:44 21,5 C 25,0 C 72 % 1014,0 hPa 0,0 l/m 7,2 km/h (2 Bft) SW 231 0 min 0,000 mm 0,0 UV-I 0 W/m 16,2 C 21,2 C 9,7 km/h (2 Bft) 94,34 %
08.07.2017 00:46 21,5 C 25,0 C 72 % 1014,0 hPa 0,0 l/m 7,0 km/h (2 Bft) W-SW 242 0 min 0,000 mm 0,0 UV-I 0 W/m 16,2 C 21,3 C 9,7 km/h (2 Bft) 95,12 %
08.07.2017 00:48 21,5 C 25,0 C 72 % 1013,9 hPa 0,0 l/m 7,8 km/h (2 Bft) SW 229 0 min 0,000 mm 0,0 UV-I 0 W/m 16,2 C 21,0 C 9,7 km/h (2 Bft) 97,87 %
08.07.2017 00:50 21,6 C 25,0 C 72 % 1014,0 hPa 0,0 l/m 8,2 km/h (2 Bft) SW 236 0 min 0,000 mm 0,0 UV-I 0 W/m 16,3 C 21,0 C 11,3 km/h (2 Bft) 94,74 %
08.07.2017 00:52 21,6 C 25,0 C 72 % 1014,0 hPa 0,0 l/m 8,1 km/h (2 Bft) SW 224 0 min 0,000 mm 0,0 UV-I 0 W/m 16,3 C 21,0 C 11,3 km/h (2 Bft) 94,00 %
08.07.2017 00:54 21,6 C 25,0 C 71 % 1014,1 hPa 0,0 l/m 6,6 km/h (2 Bft) SW 223 0 min 0,000 mm 0,0 UV-I 0 W/m 16,1 C 21,5 C 9,7 km/h (2 Bft) 96,00 %
08.07.2017 00:56 21,6 C 25,0 C 71 % 1014,2 hPa 0,0 l/m 6,8 km/h (2 Bft) W-SW 244 0 min 0,000 mm 0,0 UV-I 0 W/m 16,1 C 21,5 C 11,3 km/h (2 Bft) 92,68 %
08.07.2017 00:58 21,6 C 25,0 C 71 % 1014,2 hPa 0,0 l/m 6,8 km/h (2 Bft) W-SW 238 0 min 0,000 mm 0,0 UV-I 0 W/m 16,1 C 21,5 C 11,3 km/h (2 Bft) 96,23 %
08.07.2017 01:00 21,5 C 25,0 C 72 % 1014,4 hPa 0,0 l/m 9,3 km/h (2 Bft) SW 236 0 min 0,025 mm 0,0 UV-I 0 W/m 16,2 C 20,5 C 14,5 km/h (3 Bft) 100,00 %
08.07.2017 01:02 21,4 C 25,0 C 72 % 1014,5 hPa 0,0 l/m 11,5 km/h (2 Bft) W-SW 238 0 min 0,000 mm 0,0 UV-I 0 W/m 16,1 C 19,8 C 17,7 km/h (3 Bft) 94,55 %
08.07.2017 01:04 21,5 C 25,0 C 72 % 1014,6 hPa 0,0 l/m 13,5 km/h (3 Bft) SW 225 0 min 0,000 mm 0,0 UV-I 0 W/m 16,2 C 19,4 C 24,1 km/h (4 Bft) 100,00 %
08.07.2017 01:06 21,7 C 25,0 C 72 % 1014,7 hPa 0,0 l/m 17,1 km/h (3 Bft) SW 227 0 min 0,000 mm 0,0 UV-I 0 W/m 16,4 C 18,9 C 25,7 km/h (4 Bft) 97,22 %
08.07.2017 01:08 21,8 C 25,0 C 71 % 1014,7 hPa 0,0 l/m 18,3 km/h (3 Bft) W-SW 242 0 min 0,000 mm 0,0 UV-I 0 W/m 16,3 C 18,8 C 38,6 km/h (5 Bft) 98,21 %
08.07.2017 01:10 22,1 C 25,0 C 70 % 1014,7 hPa 0,0 l/m 28,0 km/h (4 Bft) SW 218 0 min 0,000 mm 0,0 UV-I 0 W/m 16,4 C 17,9 C 43,5 km/h (6 Bft) 97,56 %
08.07.2017 01:12 22,3 C 25,0 C 68 % 1014,8 hPa 0,0 l/m 23,5 km/h (4 Bft) W 278 0 min 0,000 mm 0,0 UV-I 0 W/m 16,1 C 18,7 C 40,2 km/h (6 Bft) 100,00 %
08.07.2017 01:14 22,5 C 25,0 C 65 % 1015,1 hPa 0,0 l/m 39,1 km/h (6 Bft) W 261 0 min 0,000 mm 0,0 UV-I 0 W/m 15,6 C 17,5 C 57,9 km/h (7 Bft) 97,56 %
08.07.2017 01:16 22,7 C 25,0 C 65 % 1015,0 hPa 0,0 l/m 27,6 km/h (4 Bft) SW 223 0 min 0,000 mm 0,0 UV-I 0 W/m 15,8 C 18,8 C 49,9 km/h (6 Bft) 98,11 %
08.07.2017 01:18 22,8 C 25,0 C 63 % 1015,0 hPa 0,0 l/m 29,2 km/h (5 Bft) S-SW 209 0 min 0,000 mm 0,0 UV-I 0 W/m 15,4 C 18,7 C 40,2 km/h (6 Bft) 97,37 %
08.07.2017 01:20 22,9 C 25,0 C 63 % 1015,4 hPa 0,0 l/m 24,3 km/h (4 Bft) W-SW 250 0 min 0,000 mm 0,0 UV-I 0 W/m 15,5 C 19,4 C 38,6 km/h (5 Bft) 94,64 %
08.07.2017 01:22 22,9 C 25,0 C 62 % 1015,3 hPa 0,0 l/m 36,0 km/h (5 Bft) S-SW 211 0 min 0,000 mm 0,0 UV-I 0 W/m 15,2 C 18,3 C 53,1 km/h (7 Bft) 95,74 %
08.07.2017 01:24 22,9 C 25,0 C 63 % 1015,4 hPa 0,0 l/m 39,5 km/h (6 Bft) S-SW 213 0 min 0,000 mm 0,0 UV-I 0 W/m 15,5 C 18,1 C 53,1 km/h (7 Bft) 97,37 %
08.07.2017 01:26 22,9 C 25,0 C 63 % 1015,5 hPa 0,0 l/m 33,5 km/h (5 Bft) S-SW 192 0 min 0,000 mm 0,0 UV-I 0 W/m 15,5 C 18,5 C 53,1 km/h (7 Bft) 96,23 %
08.07.2017 01:28 22,8 C 25,0 C 66 % 1015,5 hPa 0,0 l/m 31,7 km/h (5 Bft) S-SW 192 0 min 0,000 mm 0,0 UV-I 0 W/m 16,1 C 18,5 C 51,5 km/h (7 Bft) 95,12 %
08.07.2017 01:30 22,5 C 25,0 C 70 % 1015,1 hPa 1,2 l/m 35,2 km/h (5 Bft) SW 230 0 min 0,000 mm 0,0 UV-I 0 W/m 16,7 C 17,8 C 61,2 km/h (7 Bft) 98,21 %
08.07.2017 01:32 21,8 C 25,0 C 75 % 1015,2 hPa 0,4 l/m 31,3 km/h (5 Bft) W-SW 242 0 min 0,000 mm 0,0 UV-I 0 W/m 17,2 C 17,1 C 49,9 km/h (6 Bft) 89,47 %
08.07.2017 01:34 21,0 C 25,0 C 77 % 1015,1 hPa 0,4 l/m 20,7 km/h (4 Bft) S-SW 212 0 min 0,000 mm 0,0 UV-I 0 W/m 16,8 C 17,4 C 35,4 km/h (5 Bft) 98,00 %
08.07.2017 01:36 20,6 C 25,0 C 80 % 1015,1 hPa 0,8 l/m 25,2 km/h (4 Bft) W-SW 242 0 min 0,000 mm 0,0 UV-I 0 W/m 17,0 C 16,2 C 35,4 km/h (5 Bft) 88,68 %
08.07.2017 01:38 19,9 C 25,0 C 82 % 1015,2 hPa 1,2 l/m 30,6 km/h (5 Bft) SW 236 0 min 0,000 mm 0,0 UV-I 0 W/m 16,7 C 14,5 C 53,1 km/h (7 Bft) 97,37 %
08.07.2017 01:40 19,5 C 25,0 C 83 % 1015,3 hPa 0,2 l/m 25,9 km/h (4 Bft) SW 227 0 min 0,000 mm 0,0 UV-I 0 W/m 16,5 C 14,6 C 40,2 km/h (6 Bft) 94,00 %
08.07.2017 01:42 19,2 C 25,0 C 84 % 1015,4 hPa 0,2 l/m 26,5 km/h (4 Bft) W-SW 238 0 min 0,000 mm 0,0 UV-I 0 W/m 16,4 C 14,1 C 46,7 km/h (6 Bft) 94,34 %
08.07.2017 01:44 18,9 C 25,0 C 85 % 1015,3 hPa 0,0 l/m 26,5 km/h (4 Bft) S-SW 207 0 min 0,000 mm 0,0 UV-I 0 W/m 16,3 C 13,7 C 43,5 km/h (6 Bft) 95,12 %
08.07.2017 01:46 18,7 C 25,0 C 86 % 1015,3 hPa 0,0 l/m 22,1 km/h (4 Bft) SW 233 0 min 0,000 mm 0,0 UV-I 0 W/m 16,3 C 14,1 C 45,1 km/h (6 Bft) 94,00 %
08.07.2017 01:48 18,6 C 25,0 C 86 % 1015,4 hPa 0,0 l/m 22,8 km/h (4 Bft) S-SW 209 0 min 0,000 mm 0,0 UV-I 0 W/m 16,2 C 13,9 C 30,6 km/h (5 Bft) 94,44 %
08.07.2017 01:50 18,4 C 25,0 C 87 % 1015,3 hPa 0,0 l/m 19,0 km/h (3 Bft) S-SW 209 0 min 0,000 mm 0,0 UV-I 0 W/m 16,2 C 14,4 C 33,8 km/h (5 Bft) 96,00 %
08.07.2017 01:52 18,3 C 25,0 C 88 % 1015,3 hPa 0,0 l/m 16,3 km/h (3 Bft) S-SW 203 0 min 0,000 mm 0,0 UV-I 0 W/m 16,3 C 14,9 C 24,1 km/h (4 Bft) 95,74 %
08.07.2017 01:54 18,3 C 25,0 C 88 % 1015,4 hPa 0,0 l/m 25,0 km/h (4 Bft) W-SW 253 0 min 0,000 mm 0,0 UV-I 0 W/m 16,3 C 13,1 C 37,0 km/h (5 Bft) 100,00 %
08.07.2017 01:56 18,3 C 25,0 C 88 % 1015,2 hPa 0,0 l/m 19,3 km/h (3 Bft) SW 227 0 min 0,000 mm 0,0 UV-I 0 W/m 16,3 C 14,2 C 27,4 km/h (4 Bft) 95,12 %
08.07.2017 01:58 18,3 C 25,0 C 88 % 1015,2 hPa 0,0 l/m 17,8 km/h (3 Bft) S-SW 210 0 min 0,000 mm 0,0 UV-I 0 W/m 16,3 C 14,5 C 27,4 km/h (4 Bft) 97,56 %
08.07.2017 02:00 18,3 C 25,0 C 88 % 1015,1 hPa 0,0 l/m 13,7 km/h (3 Bft) SW 228 0 min 0,102 mm 0,0 UV-I 0 W/m 16,3 C 15,6 C 30,6 km/h (5 Bft) 98,11 %
08.07.2017 02:02 18,2 C 25,0 C 88 % 1015,1 hPa 0,0 l/m 16,9 km/h (3 Bft) S-SW 194 0 min 0,000 mm 0,0 UV-I 0 W/m 16,2 C 14,6 C 27,4 km/h (4 Bft) 98,00 %
08.07.2017 02:04 18,3 C 25,0 C 89 % 1015,0 hPa 0,0 l/m 17,0 km/h (3 Bft) S 191 0 min 0,000 mm 0,0 UV-I 0 W/m 16,5 C 14,7 C 25,7 km/h (4 Bft) 100,00 %
08.07.2017 02:06 18,3 C 25,0 C 89 % 1015,0 hPa 0,0 l/m 14,0 km/h (3 Bft) SW 215 0 min 0,000 mm 0,0 UV-I 0 W/m 16,5 C 15,5 C 20,9 km/h (4 Bft) 94,74 %
08.07.2017 02:08 18,3 C 25,0 C 89 % 1015,1 hPa 0,0 l/m 15,4 km/h (3 Bft) W-SW 238 0 min 0,000 mm 0,0 UV-I 0 W/m 16,5 C 15,1 C 25,7 km/h (4 Bft) 98,31 %
08.07.2017 02:10 18,3 C 25,0 C 89 % 1015,2 hPa 0,0 l/m 13,2 km/h (3 Bft) SW 236 0 min 0,000 mm 0,0 UV-I 0 W/m 16,5 C 15,7 C 19,3 km/h (3 Bft) 97,56 %
08.07.2017 02:12 18,3 C 25,0 C 89 % 1015,2 hPa 0,0 l/m 15,9 km/h (3 Bft) W 281 0 min 0,000 mm 0,0 UV-I 0 W/m 16,5 C 15,0 C 22,5 km/h (4 Bft) 97,73 %
08.07.2017 02:14 18,3 C 25,0 C 89 % 1015,0 hPa 0,0 l/m 12,1 km/h (2 Bft) S-SW 202 0 min 0,000 mm 0,0 UV-I 0 W/m 16,5 C 16,0 C 17,7 km/h (3 Bft) 97,73 %
08.07.2017 02:16 18,3 C 25,0 C 89 % 1015,0 hPa 0,0 l/m 13,3 km/h (3 Bft) SW 225 0 min 0,000 mm 0,0 UV-I 0 W/m 16,5 C 15,7 C 20,9 km/h (4 Bft) 98,00 %
08.07.2017 02:18 18,3 C 25,0 C 89 % 1015,0 hPa 0,0 l/m 13,6 km/h (3 Bft) S-SW 202 0 min 0,000 mm 0,0 UV-I 0 W/m 16,5 C 15,6 C 17,7 km/h (3 Bft) 96,23 %
08.07.2017 02:20 18,3 C 25,0 C 89 % 1015,0 hPa 0,0 l/m 14,2 km/h (3 Bft) SW 215 0 min 0,000 mm 0,0 UV-I 0 W/m 16,5 C 15,4 C 22,5 km/h (4 Bft) 95,12 %
08.07.2017 02:22 18,3 C 25,0 C 89 % 1014,9 hPa 0,0 l/m 13,7 km/h (3 Bft) W 261 0 min 0,000 mm 0,0 UV-I 0 W/m 16,5 C 15,6 C 19,3 km/h (3 Bft) 100,00 %
08.07.2017 02:24 18,3 C 24,4 C 89 % 1014,9 hPa 0,0 l/m 14,8 km/h (3 Bft) SW 229 0 min 0,000 mm 0,0 UV-I 0 W/m 16,5 C 15,2 C 20,9 km/h (4 Bft) 97,44 %
08.07.2017 02:26 18,3 C 25,0 C 89 % 1015,0 hPa 0,0 l/m 12,4 km/h (3 Bft) SW 229 0 min 0,000 mm 0,0 UV-I 0 W/m 16,5 C 15,9 C 17,7 km/h (3 Bft) 98,00 %
08.07.2017 02:28 18,3 C 24,4 C 89 % 1015,0 hPa 0,0 l/m 12,4 km/h (3 Bft) SW 214 0 min 0,000 mm 0,0 UV-I 0 W/m 16,5 C 15,9 C 19,3 km/h (3 Bft) 97,73 %
08.07.2017 02:30 18,2 C 24,4 C 89 % 1015,0 hPa 0,0 l/m 10,3 km/h (2 Bft) W-SW 251 0 min 0,000 mm 0,0 UV-I 0 W/m 16,4 C 16,5 C 16,1 km/h (3 Bft) 98,00 %
08.07.2017 02:32 18,2 C 24,4 C 89 % 1014,9 hPa 0,0 l/m 11,6 km/h (2 Bft) S 190 0 min 0,000 mm 0,0 UV-I 0 W/m 16,4 C 16,1 C 17,7 km/h (3 Bft) 100,00 %
08.07.2017 02:34 18,2 C 24,4 C 89 % 1014,9 hPa 0,0 l/m 13,5 km/h (3 Bft) W-SW 239 0 min 0,000 mm 0,0 UV-I 0 W/m 16,4 C 15,5 C 19,3 km/h (3 Bft) 97,37 %
08.07.2017 02:36 18,2 C 24,4 C 89 % 1014,9 hPa 0,0 l/m 9,1 km/h (2 Bft) SW 220 0 min 0,000 mm 0,0 UV-I 0 W/m 16,4 C 17,0 C 12,9 km/h (3 Bft) 98,21 %
08.07.2017 02:38 18,2 C 24,4 C 89 % 1014,9 hPa 0,0 l/m 12,6 km/h (3 Bft) SW 234 0 min 0,000 mm 0,0 UV-I 0 W/m 16,4 C 15,8 C 20,9 km/h (4 Bft) 97,56 %
08.07.2017 02:40 18,2 C 24,4 C 90 % 1014,9 hPa 0,0 l/m 9,8 km/h (2 Bft) SW 235 0 min 0,000 mm 0,0 UV-I 0 W/m 16,5 C 16,7 C 16,1 km/h (3 Bft) 98,00 %
08.07.2017 02:42 18,2 C 24,4 C 90 % 1014,8 hPa 0,0 l/m 9,0 km/h (2 Bft) W-SW 243 0 min 0,000 mm 0,0 UV-I 0 W/m 16,5 C 17,0 C 14,5 km/h (3 Bft) 97,87 %
08.07.2017 02:44 18,1 C 24,4 C 90 % 1014,8 hPa 0,0 l/m 7,3 km/h (2 Bft) W-SW 244 0 min 0,000 mm 0,0 UV-I 0 W/m 16,4 C 17,7 C 11,3 km/h (2 Bft) 97,87 %
08.07.2017 02:46 18,1 C 24,4 C 90 % 1014,8 hPa 0,0 l/m 7,9 km/h (2 Bft) W-SW 246 0 min 0,000 mm 0,0 UV-I 0 W/m 16,4 C 17,4 C 12,9 km/h (3 Bft) 97,87 %
08.07.2017 02:48 18,1 C 24,4 C 90 % 1014,9 hPa 0,0 l/m 9,0 km/h (2 Bft) W 263 0 min 0,000 mm 0,0 UV-I 0 W/m 16,4 C 16,9 C 14,5 km/h (3 Bft) 95,74 %
08.07.2017 02:50 18,1 C 24,4 C 90 % 1014,9 hPa 0,0 l/m 9,3 km/h (2 Bft) W-SW 248 0 min 0,000 mm 0,0 UV-I 0 W/m 16,4 C 16,8 C 14,5 km/h (3 Bft) 95,74 %
08.07.2017 02:52 18,0 C 24,4 C 90 % 1015,0 hPa 0,0 l/m 8,5 km/h (2 Bft) W-SW 252 0 min 0,000 mm 0,0 UV-I 0 W/m 16,3 C 17,0 C 12,9 km/h (3 Bft) 95,12 %
08.07.2017 02:54 17,9 C 24,4 C 91 % 1015,0 hPa 0,0 l/m 7,5 km/h (2 Bft) W-SW 242 0 min 0,000 mm 0,0 UV-I 0 W/m 16,4 C 17,4 C 12,9 km/h (3 Bft) 97,73 %
08.07.2017 02:56 17,9 C 24,4 C 91 % 1015,1 hPa 0,0 l/m 6,6 km/h (2 Bft) W 281 0 min 0,000 mm 0,0 UV-I 0 W/m 16,4 C 17,8 C 11,3 km/h (2 Bft) 97,87 %
08.07.2017 02:58 17,9 C 24,4 C 91 % 1015,0 hPa 0,0 l/m 6,9 km/h (2 Bft) W-SW 246 0 min 0,000 mm 0,0 UV-I 0 W/m 16,4 C 17,7 C 11,3 km/h (2 Bft) 100,00 %
08.07.2017 03:00 17,9 C 24,4 C 91 % 1015,0 hPa 0,0 l/m 6,4 km/h (2 Bft) W-SW 241 0 min 0,025 mm 0,0 UV-I 0 W/m 16,4 C 17,9 C 11,3 km/h (2 Bft) 98,11 %
08.07.2017 03:02 17,9 C 24,4 C 91 % 1015,0 hPa 0,0 l/m 4,3 km/h (1 Bft) W 261 0 min 0,000 mm 0,0 UV-I 0 W/m 16,4 C 17,9 C 6,4 km/h (2 Bft) 100,00 %
08.07.2017 03:04 17,8 C 24,4 C 91 % 1015,0 hPa 0,0 l/m 5,0 km/h (1 Bft) W 259 0 min 0,000 mm 0,0 UV-I 0 W/m 16,3 C 17,8 C 11,3 km/h (2 Bft) 94,00 %
08.07.2017 03:06 17,8 C 24,4 C 91 % 1014,9 hPa 0,0 l/m 4,6 km/h (1 Bft) W-SW 246 0 min 0,000 mm 0,0 UV-I 0 W/m 16,3 C 17,8 C 8,0 km/h (2 Bft) 94,87 %
08.07.2017 03:08 17,8 C 24,4 C 91 % 1015,0 hPa 0,0 l/m 5,1 km/h (1 Bft) W-SW 251 0 min 0,000 mm 0,0 UV-I 0 W/m 16,3 C 17,8 C 8,0 km/h (2 Bft) 95,12 %
08.07.2017 03:10 17,7 C 24,4 C 92 % 1015,0 hPa 0,0 l/m 4,6 km/h (1 Bft) W-SW 257 0 min 0,000 mm 0,0 UV-I 0 W/m 16,4 C 17,7 C 8,0 km/h (2 Bft) 98,21 %
08.07.2017 03:12 17,7 C 24,4 C 92 % 1015,0 hPa 0,0 l/m 2,0 km/h (1 Bft) W-SW 257 0 min 0,000 mm 0,0 UV-I 0 W/m 16,4 C 17,7 C 3,2 km/h (1 Bft) 95,45 %
08.07.2017 03:14 17,7 C 24,4 C 92 % 1014,9 hPa 0,0 l/m 1,0 km/h (0 Bft) W-SW 257 0 min 0,000 mm 0,0 UV-I 0 W/m 16,4 C 17,7 C 3,2 km/h (1 Bft) 98,00 %
08.07.2017 03:16 17,6 C 24,4 C 92 % 1015,0 hPa 0,0 l/m 0,8 km/h (0 Bft) W-SW 257 0 min 0,000 mm 0,0 UV-I 0 W/m 16,3 C 17,6 C 1,6 km/h (1 Bft) 96,00 %
08.07.2017 03:18 17,5 C 24,4 C 92 % 1015,0 hPa 0,0 l/m 1,9 km/h (1 Bft) W-SW 257 0 min 0,000 mm 0,0 UV-I 0 W/m 16,2 C 17,5 C 3,2 km/h (1 Bft) 94,74 %
08.07.2017 03:20 17,3 C 24,4 C 92 % 1015,1 hPa 0,0 l/m 1,0 km/h (0 Bft) W-SW 257 0 min 0,000 mm 0,0 UV-I 0 W/m 16,0 C 17,3 C 3,2 km/h (1 Bft) 96,00 %
08.07.2017 03:22 17,2 C 24,4 C 92 % 1015,0 hPa 0,0 l/m 0,3 km/h (0 Bft) W-SW 257 0 min 0,000 mm 0,0 UV-I 0 W/m 15,9 C 17,2 C 1,6 km/h (1 Bft) 94,00 %
08.07.2017 03:24 17,2 C 24,4 C 93 % 1015,0 hPa 0,0 l/m 0,0 km/h (0 Bft) W-SW 257 0 min 0,000 mm 0,0 UV-I 0 W/m 16,1 C 17,2 C 0,0 km/h (0 Bft) 95,83 %
08.07.2017 03:26 17,2 C 24,4 C 93 % 1015,1 hPa 0,0 l/m 0,3 km/h (0 Bft) W-SW 257 0 min 0,000 mm 0,0 UV-I 0 W/m 16,1 C 17,2 C 1,6 km/h (1 Bft) 95,12 %
08.07.2017 03:28 17,2 C 24,4 C 93 % 1015,1 hPa 0,0 l/m 2,0 km/h (1 Bft) W-SW 257 0 min 0,000 mm 0,0 UV-I 0 W/m 16,1 C 17,2 C 3,2 km/h (1 Bft) 96,00 %
08.07.2017 03:30 17,2 C 24,4 C 94 % 1015,1 hPa 0,0 l/m 1,7 km/h (1 Bft) W-SW 257 0 min 0,000 mm 0,0 UV-I 0 W/m 16,2 C 17,2 C 3,2 km/h (1 Bft) 96,00 %
08.07.2017 03:32 17,3 C 24,4 C 94 % 1015,0 hPa 0,0 l/m 1,7 km/h (1 Bft) W-SW 257 0 min 0,000 mm 0,0 UV-I 0 W/m 16,3 C 17,3 C 3,2 km/h (1 Bft) 95,74 %
08.07.2017 03:34 17,3 C 24,4 C 94 % 1015,0 hPa 0,0 l/m 2,7 km/h (1 Bft) W-SW 257 0 min 0,000 mm 0,0 UV-I 0 W/m 16,3 C 17,3 C 4,8 km/h (1 Bft) 97,37 %
08.07.2017 03:36 17,3 C 24,4 C 94 % 1015,0 hPa 0,0 l/m 1,8 km/h (1 Bft) W-SW 257 0 min 0,000 mm 0,0 UV-I 0 W/m 16,3 C 17,3 C 3,2 km/h (1 Bft) 96,43 %
08.07.2017 03:38 17,3 C 24,4 C 94 % 1015,2 hPa 0,0 l/m 1,9 km/h (1 Bft) W-SW 257 0 min 0,000 mm 0,0 UV-I 0 W/m 16,3 C 17,3 C 3,2 km/h (1 Bft) 97,56 %
08.07.2017 03:40 17,2 C 24,4 C 94 % 1015,2 hPa 0,0 l/m 0,2 km/h (0 Bft) W-SW 257 0 min 0,000 mm 0,0 UV-I 0 W/m 16,2 C 17,2 C 1,6 km/h (1 Bft) 96,00 %
08.07.2017 03:42 17,1 C 24,4 C 94 % 1015,2 hPa 0,0 l/m 2,4 km/h (1 Bft) NW 313 0 min 0,000 mm 0,0 UV-I 0 W/m 16,1 C 17,1 C 4,8 km/h (1 Bft) 92,31 %
08.07.2017 03:44 17,1 C 24,4 C 94 % 1015,3 hPa 0,0 l/m 0,5 km/h (0 Bft) NW 322 0 min 0,000 mm 0,0 UV-I 0 W/m 16,1 C 17,1 C 3,2 km/h (1 Bft) 94,34 %
08.07.2017 03:46 17,1 C 24,4 C 94 % 1015,3 hPa 0,0 l/m 0,8 km/h (0 Bft) NW 322 0 min 0,000 mm 0,0 UV-I 0 W/m 16,1 C 17,1 C 3,2 km/h (1 Bft) 94,00 %
08.07.2017 03:48 17,1 C 24,4 C 94 % 1015,3 hPa 0,0 l/m 0,6 km/h (0 Bft) NW 322 0 min 0,000 mm 0,0 UV-I 0 W/m 16,1 C 17,1 C 1,6 km/h (1 Bft) 93,18 %
08.07.2017 03:50 17,1 C 24,4 C 95 % 1015,2 hPa 0,0 l/m 0,6 km/h (0 Bft) NW 322 0 min 0,000 mm 0,0 UV-I 0 W/m 16,3 C 17,1 C 3,2 km/h (1 Bft) 94,00 %
08.07.2017 03:52 17,2 C 24,4 C 95 % 1015,2 hPa 0,0 l/m 0,2 km/h (0 Bft) NW 322 0 min 0,000 mm 0,0 UV-I 0 W/m 16,4 C 17,2 C 1,6 km/h (1 Bft) 95,12 %
08.07.2017 03:54 17,3 C 24,4 C 95 % 1015,2 hPa 0,0 l/m 1,3 km/h (1 Bft) NW 322 0 min 0,000 mm 0,0 UV-I 0 W/m 16,5 C 17,3 C 3,2 km/h (1 Bft) 96,00 %
08.07.2017 03:56 17,3 C 24,4 C 95 % 1015,2 hPa 0,0 l/m 2,3 km/h (1 Bft) W-NW 286 0 min 0,000 mm 0,0 UV-I 0 W/m 16,5 C 17,3 C 4,8 km/h (1 Bft) 96,00 %
08.07.2017 03:58 17,3 C 24,4 C 95 % 1015,0 hPa 0,0 l/m 0,0 km/h (0 Bft) W-NW 286 0 min 0,000 mm 0,0 UV-I 0 W/m 16,5 C 17,3 C 1,6 km/h (1 Bft) 93,62 %
08.07.2017 04:00 17,4 C 24,4 C 95 % 1015,0 hPa 0,0 l/m 0,1 km/h (0 Bft) W-NW 286 0 min 0,000 mm 0,0 UV-I 0 W/m 16,6 C 17,4 C 1,6 km/h (1 Bft) 92,11 %
08.07.2017 04:05 17,4 C 24,4 C 95 % 1014,9 hPa 0,0 l/m 2,2 km/h (1 Bft) W 260 0 min 0,000 mm 0,0 UV-I 0 W/m 16,6 C 17,4 C 4,8 km/h (1 Bft) 90,14 %
08.07.2017 04:06 17,4 C 24,4 C 95 % 1014,9 hPa 0,0 l/m 2,5 km/h (1 Bft) W 260 0 min 0,000 mm 0,0 UV-I 0 W/m 16,6 C 17,4 C 3,2 km/h (1 Bft) 96,15 %
08.07.2017 04:08 17,4 C 24,4 C 95 % 1014,9 hPa 0,0 l/m 2,7 km/h (1 Bft) W 260 0 min 0,000 mm 0,0 UV-I 0 W/m 16,6 C 17,4 C 4,8 km/h (1 Bft) 96,00 %
08.07.2017 04:10 17,4 C 24,4 C 95 % 1014,9 hPa 0,0 l/m 2,5 km/h (1 Bft) W 261 0 min 0,000 mm 0,0 UV-I 0 W/m 16,6 C 17,4 C 4,8 km/h (1 Bft) 93,62 %
08.07.2017 04:12 17,4 C 24,4 C 95 % 1014,8 hPa 0,0 l/m 2,5 km/h (1 Bft) W 261 0 min 0,000 mm 0,0 UV-I 0 W/m 16,6 C 17,4 C 4,8 km/h (1 Bft) 97,73 %
08.07.2017 04:14 17,4 C 24,4 C 95 % 1014,8 hPa 0,0 l/m 2,2 km/h (1 Bft) W 261 0 min 0,000 mm 0,0 UV-I 0 W/m 16,6 C 17,4 C 4,8 km/h (1 Bft) 93,62 %
08.07.2017 04:16 17,5 C 24,4 C 95 % 1014,8 hPa 0,0 l/m 4,6 km/h (1 Bft) W 260 0 min 0,000 mm 0,0 UV-I 0 W/m 16,7 C 17,5 C 6,4 km/h (2 Bft) 95,74 %
08.07.2017 04:18 17,5 C 24,4 C 95 % 1014,8 hPa 0,0 l/m 3,8 km/h (1 Bft) W 260 0 min 0,000 mm 0,0 UV-I 0 W/m 16,7 C 17,5 C 4,8 km/h (1 Bft) 95,45 %
08.07.2017 04:20 17,5 C 24,4 C 95 % 1014,8 hPa 0,0 l/m 4,0 km/h (1 Bft) W 260 0 min 0,000 mm 0,0 UV-I 0 W/m 16,7 C 17,5 C 4,8 km/h (1 Bft) 94,44 %
08.07.2017 04:22 17,6 C 24,4 C 95 % 1014,8 hPa 0,0 l/m 5,0 km/h (1 Bft) W-SW 248 0 min 0,000 mm 0,0 UV-I 0 W/m 16,8 C 17,6 C 8,0 km/h (2 Bft) 94,92 %
08.07.2017 04:24 17,5 C 24,4 C 95 % 1014,8 hPa 0,0 l/m 4,2 km/h (1 Bft) W-SW 245 0 min 0,000 mm 0,0 UV-I 0 W/m 16,7 C 17,5 C 8,0 km/h (2 Bft) 95,12 %
08.07.2017 04:26 17,6 C 24,4 C 95 % 1014,8 hPa 0,0 l/m 6,1 km/h (2 Bft) W-SW 250 0 min 0,000 mm 0,0 UV-I 0 W/m 16,8 C 17,6 C 9,7 km/h (2 Bft) 96,43 %
08.07.2017 04:28 17,6 C 24,4 C 94 % 1014,8 hPa 0,0 l/m 5,4 km/h (1 Bft) W-SW 257 0 min 0,000 mm 0,0 UV-I 0 W/m 16,6 C 17,6 C 9,7 km/h (2 Bft) 93,62 %
08.07.2017 04:30 17,6 C 24,4 C 94 % 1014,8 hPa 0,0 l/m 6,1 km/h (2 Bft) W-SW 242 0 min 0,000 mm 0,0 UV-I 0 W/m 16,6 C 17,6 C 9,7 km/h (2 Bft) 93,62 %
08.07.2017 04:32 17,5 C 24,4 C 94 % 1014,8 hPa 0,0 l/m 5,0 km/h (1 Bft) SW 234 0 min 0,000 mm 0,0 UV-I 0 W/m 16,5 C 17,5 C 8,0 km/h (2 Bft) 97,56 %
08.07.2017 04:34 17,5 C 24,4 C 94 % 1014,8 hPa 0,0 l/m 5,9 km/h (2 Bft) SW 219 0 min 0,000 mm 0,0 UV-I 0 W/m 16,5 C 17,5 C 9,7 km/h (2 Bft) 93,62 %
08.07.2017 04:36 17,5 C 24,4 C 94 % 1014,8 hPa 0,0 l/m 5,6 km/h (1 Bft) SW 229 0 min 0,000 mm 0,0 UV-I 0 W/m 16,5 C 17,5 C 9,7 km/h (2 Bft) 95,74 %
08.07.2017 04:38 17,4 C 24,4 C 94 % 1014,8 hPa 0,0 l/m 6,5 km/h (2 Bft) SW 221 0 min 0,000 mm 0,0 UV-I 0 W/m 16,4 C 17,4 C 9,7 km/h (2 Bft) 96,23 %
08.07.2017 04:40 17,5 C 24,4 C 94 % 1014,8 hPa 0,0 l/m 6,6 km/h (2 Bft) SW 230 0 min 0,000 mm 0,0 UV-I 0 W/m 16,5 C 17,4 C 9,7 km/h (2 Bft) 94,74 %
08.07.2017 04:42 17,5 C 24,4 C 94 % 1014,7 hPa 0,0 l/m 6,0 km/h (2 Bft) W-SW 255 0 min 0,000 mm 0,0 UV-I 0 W/m 16,5 C 17,5 C 9,7 km/h (2 Bft) 94,34 %
08.07.2017 04:44 17,5 C 24,4 C 94 % 1014,7 hPa 0,0 l/m 5,1 km/h (1 Bft) W-SW 252 0 min 0,000 mm 0,0 UV-I 0 W/m 16,5 C 17,5 C 11,3 km/h (2 Bft) 97,37 %
08.07.2017 04:46 17,5 C 24,4 C 94 % 1014,7 hPa 0,0 l/m 6,7 km/h (2 Bft) W-SW 250 0 min 0,000 mm 0,0 UV-I 0 W/m 16,5 C 17,4 C 11,3 km/h (2 Bft) 95,45 %
08.07.2017 04:48 17,4 C 24,4 C 94 % 1014,7 hPa 0,0 l/m 5,7 km/h (1 Bft) W-SW 247 0 min 0,000 mm 0,0 UV-I 0 W/m 16,4 C 17,4 C 8,0 km/h (2 Bft) 98,21 %
08.07.2017 04:50 17,4 C 24,4 C 94 % 1014,8 hPa 0,0 l/m 5,8 km/h (2 Bft) W-SW 250 0 min 0,000 mm 0,0 UV-I 0 W/m 16,4 C 17,4 C 11,3 km/h (2 Bft) 98,00 %
08.07.2017 04:52 17,4 C 24,4 C 94 % 1014,8 hPa 0,0 l/m 6,0 km/h (2 Bft) W-SW 257 0 min 0,000 mm 0,0 UV-I 0 W/m 16,4 C 17,4 C 11,3 km/h (2 Bft) 97,56 %
08.07.2017 04:54 17,4 C 24,4 C 94 % 1014,8 hPa 0,0 l/m 4,6 km/h (1 Bft) W 261 0 min 0,000 mm 0,0 UV-I 0 W/m 16,4 C 17,4 C 6,4 km/h (2 Bft) 94,34 %
08.07.2017 04:56 17,4 C 24,4 C 94 % 1014,8 hPa 0,0 l/m 5,2 km/h (1 Bft) W 259 0 min 0,000 mm 0,0 UV-I 0 W/m 16,4 C 17,4 C 9,7 km/h (2 Bft) 100,00 %
08.07.2017 04:58 17,4 C 24,4 C 94 % 1014,8 hPa 0,0 l/m 3,6 km/h (1 Bft) W-SW 257 0 min 0,000 mm 0,0 UV-I 0 W/m 16,4 C 17,4 C 6,4 km/h (2 Bft) 97,87 %
08.07.2017 05:00 17,4 C 24,4 C 94 % 1014,8 hPa 0,0 l/m 2,7 km/h (1 Bft) W-SW 257 0 min 0,000 mm 0,0 UV-I 1 W/m 16,4 C 17,4 C 4,8 km/h (1 Bft) 100,00 %
08.07.2017 05:02 17,3 C 24,4 C 94 % 1014,8 hPa 0,0 l/m 2,5 km/h (1 Bft) W-SW 257 0 min 0,000 mm 0,0 UV-I 5 W/m 16,3 C 17,3 C 4,8 km/h (1 Bft) 96,15 %
08.07.2017 05:04 17,3 C 24,4 C 93 % 1014,8 hPa 0,0 l/m 1,7 km/h (1 Bft) W-SW 257 0 min 0,000 mm 0,0 UV-I 5 W/m 16,2 C 17,3 C 3,2 km/h (1 Bft) 98,41 %
08.07.2017 05:06 17,3 C 24,4 C 94 % 1014,8 hPa 0,0 l/m 2,8 km/h (1 Bft) W-SW 257 0 min 0,000 mm 0,0 UV-I 5 W/m 16,3 C 17,3 C 4,8 km/h (1 Bft) 98,11 %
08.07.2017 05:08 17,3 C 24,4 C 94 % 1014,8 hPa 0,0 l/m 3,2 km/h (1 Bft) W-SW 257 0 min 0,000 mm 0,0 UV-I 5 W/m 16,3 C 17,3 C 4,8 km/h (1 Bft) 95,74 %
08.07.2017 05:10 17,3 C 24,4 C 94 % 1014,8 hPa 0,0 l/m 2,4 km/h (1 Bft) W-SW 257 0 min 0,000 mm 0,0 UV-I 5 W/m 16,3 C 17,3 C 4,8 km/h (1 Bft) 100,00 %
08.07.2017 05:12 17,3 C 24,4 C 94 % 1014,8 hPa 0,0 l/m 2,5 km/h (1 Bft) W-SW 257 0 min 0,000 mm 0,0 UV-I 7 W/m 16,3 C 17,3 C 4,8 km/h (1 Bft) 98,00 %
08.07.2017 05:14 17,3 C 24,4 C 94 % 1014,8 hPa 0,0 l/m 2,0 km/h (1 Bft) W-SW 257 0 min 0,000 mm 0,0 UV-I 7 W/m 16,3 C 17,3 C 4,8 km/h (1 Bft) 100,00 %
08.07.2017 05:16 17,3 C 24,4 C 94 % 1014,8 hPa 0,0 l/m 1,4 km/h (1 Bft) W-SW 257 0 min 0,000 mm 0,0 UV-I 7 W/m 16,3 C 17,3 C 4,8 km/h (1 Bft) 97,37 %
08.07.2017 05:18 17,3 C 24,4 C 94 % 1014,8 hPa 0,0 l/m 3,0 km/h (1 Bft) W-SW 257 0 min 0,000 mm 0,0 UV-I 8 W/m 16,3 C 17,3 C 4,8 km/h (1 Bft) 98,11 %
08.07.2017 05:20 17,3 C 24,4 C 94 % 1014,8 hPa 0,0 l/m 3,3 km/h (1 Bft) W-SW 257 0 min 0,000 mm 0,0 UV-I 9 W/m 16,3 C 17,3 C 4,8 km/h (1 Bft) 92,00 %
08.07.2017 05:22 17,3 C 24,4 C 94 % 1014,8 hPa 0,0 l/m 3,0 km/h (1 Bft) W-SW 257 0 min 0,000 mm 0,0 UV-I 9 W/m 16,3 C 17,3 C 4,8 km/h (1 Bft) 93,62 %
08.07.2017 05:24 17,3 C 24,4 C 94 % 1014,8 hPa 0,0 l/m 2,1 km/h (1 Bft) W-SW 257 0 min 0,000 mm 0,0 UV-I 9 W/m 16,3 C 17,3 C 4,8 km/h (1 Bft) 97,56 %
08.07.2017 05:26 17,2 C 24,4 C 93 % 1014,8 hPa 0,0 l/m 1,0 km/h (0 Bft) W-SW 257 2 min 0,000 mm 0,0 UV-I 10 W/m 16,1 C 17,2 C 3,2 km/h (1 Bft) 96,00 %
08.07.2017 05:28 17,2 C 24,4 C 93 % 1014,9 hPa 0,0 l/m 0,2 km/h (0 Bft) W-SW 257 0 min 0,000 mm 0,0 UV-I 11 W/m 16,1 C 17,2 C 1,6 km/h (1 Bft) 97,87 %
08.07.2017 05:30 17,1 C 24,4 C 94 % 1014,9 hPa 0,0 l/m 0,0 km/h (0 Bft) W-SW 257 0 min 0,000 mm 0,0 UV-I 11 W/m 16,1 C 17,1 C 0,0 km/h (0 Bft) 95,74 %
08.07.2017 05:32 17,1 C 24,4 C 94 % 1014,9 hPa 0,0 l/m 0,2 km/h (0 Bft) W-SW 257 0 min 0,000 mm 0,0 UV-I 12 W/m 16,1 C 17,1 C 1,6 km/h (1 Bft) 95,45 %
08.07.2017 05:34 17,1 C 24,4 C 94 % 1014,9 hPa 0,0 l/m 0,8 km/h (0 Bft) W-SW 257 0 min 0,000 mm 0,0 UV-I 12 W/m 16,1 C 17,1 C 3,2 km/h (1 Bft) 94,87 %
08.07.2017 05:36 17,1 C 24,4 C 94 % 1014,9 hPa 0,0 l/m 0,5 km/h (0 Bft) W-SW 257 0 min 0,000 mm 0,0 UV-I 13 W/m 16,1 C 17,1 C 1,6 km/h (1 Bft) 92,45 %
08.07.2017 05:38 17,1 C 24,4 C 94 % 1014,8 hPa 0,0 l/m 0,9 km/h (0 Bft) W-SW 257 0 min 0,000 mm 0,0 UV-I 17 W/m 16,1 C 17,1 C 1,6 km/h (1 Bft) 95,56 %
08.07.2017 05:40 17,1 C 24,4 C 94 % 1014,8 hPa 0,0 l/m 0,6 km/h (0 Bft) W-SW 257 0 min 0,000 mm 0,0 UV-I 18 W/m 16,1 C 17,1 C 1,6 km/h (1 Bft) 92,00 %
08.07.2017 05:42 17,2 C 24,4 C 94 % 1014,8 hPa 0,0 l/m 1,3 km/h (1 Bft) W-SW 257 0 min 0,000 mm 0,0 UV-I 18 W/m 16,2 C 17,2 C 3,2 km/h (1 Bft) 95,74 %
08.07.2017 05:44 17,1 C 24,4 C 94 % 1014,8 hPa 0,0 l/m 1,3 km/h (1 Bft) W-SW 257 0 min 0,000 mm 0,0 UV-I 21 W/m 16,1 C 17,1 C 4,8 km/h (1 Bft) 95,12 %
08.07.2017 05:46 17,2 C 24,4 C 94 % 1014,8 hPa 0,0 l/m 1,0 km/h (0 Bft) W-SW 256 0 min 0,000 mm 0,0 UV-I 27 W/m 16,2 C 17,2 C 3,2 km/h (1 Bft) 95,45 %
08.07.2017 05:48 17,1 C 24,4 C 94 % 1014,8 hPa 0,0 l/m 0,6 km/h (0 Bft) W-SW 256 0 min 0,000 mm 0,0 UV-I 36 W/m 16,1 C 17,1 C 1,6 km/h (1 Bft) 94,00 %
08.07.2017 05:50 17,0 C 24,4 C 94 % 1014,8 hPa 0,0 l/m 1,7 km/h (1 Bft) W-SW 256 0 min 0,000 mm 0,0 UV-I 41 W/m 16,0 C 17,0 C 4,8 km/h (1 Bft) 96,00 %
08.07.2017 05:52 17,1 C 24,4 C 94 % 1014,8 hPa 0,0 l/m 1,0 km/h (0 Bft) W-SW 254 2 min 0,000 mm 0,0 UV-I 45 W/m 16,1 C 17,1 C 3,2 km/h (1 Bft) 94,00 %
08.07.2017 05:54 17,1 C 24,4 C 94 % 1014,8 hPa 0,0 l/m 1,8 km/h (1 Bft) W-SW 252 2 min 0,000 mm 0,0 UV-I 49 W/m 16,1 C 17,1 C 4,8 km/h (1 Bft) 95,12 %
08.07.2017 05:56 17,1 C 24,4 C 95 % 1014,8 hPa 0,0 l/m 0,7 km/h (0 Bft) SW 228 2 min 0,000 mm 0,0 UV-I 53 W/m 16,3 C 17,1 C 3,2 km/h (1 Bft) 92,00 %
08.07.2017 05:58 17,1 C 24,4 C 94 % 1014,8 hPa 0,0 l/m 2,2 km/h (1 Bft) S-SW 201 2 min 0,000 mm 0,0 UV-I 56 W/m 16,1 C 17,1 C 3,2 km/h (1 Bft) 88,64 %
08.07.2017 06:00 17,1 C 24,4 C 94 % 1014,9 hPa 0,0 l/m 1,8 km/h (1 Bft) S-SW 201 2 min 0,026 mm 0,0 UV-I 61 W/m 16,1 C 17,1 C 4,8 km/h (1 Bft) 96,00 %
08.07.2017 06:02 17,2 C 24,4 C 95 % 1014,9 hPa 0,0 l/m 3,8 km/h (1 Bft) S-SW 201 2 min 0,000 mm 0,0 UV-I 64 W/m 16,4 C 17,2 C 6,4 km/h (2 Bft) 98,04 %
08.07.2017 06:04 17,2 C 24,4 C 95 % 1014,9 hPa 0,0 l/m 2,7 km/h (1 Bft) S-SW 201 2 min 0,000 mm 0,0 UV-I 66 W/m 16,4 C 17,2 C 6,4 km/h (2 Bft) 97,37 %
08.07.2017 06:06 17,3 C 24,4 C 94 % 1014,9 hPa 0,0 l/m 3,0 km/h (1 Bft) S-SW 197 2 min 0,000 mm 0,0 UV-I 69 W/m 16,3 C 17,3 C 6,4 km/h (2 Bft) 98,11 %
08.07.2017 06:08 17,3 C 24,4 C 94 % 1014,9 hPa 0,0 l/m 2,6 km/h (1 Bft) S-SW 197 2 min 0,000 mm 0,0 UV-I 72 W/m 16,3 C 17,3 C 6,4 km/h (2 Bft) 98,00 %
08.07.2017 06:10 17,3 C 24,4 C 94 % 1014,9 hPa 0,0 l/m 4,0 km/h (1 Bft) S-SW 197 2 min 0,000 mm 0,0 UV-I 77 W/m 16,3 C 17,3 C 6,4 km/h (2 Bft) 95,74 %
08.07.2017 06:12 17,4 C 24,4 C 94 % 1015,0 hPa 0,0 l/m 3,3 km/h (1 Bft) S-SW 197 2 min 0,000 mm 0,0 UV-I 79 W/m 16,4 C 17,4 C 6,4 km/h (2 Bft) 97,56 %
08.07.2017 06:14 17,5 C 24,4 C 94 % 1015,0 hPa 0,0 l/m 3,5 km/h (1 Bft) S-SW 197 2 min 0,000 mm 0,0 UV-I 83 W/m 16,5 C 17,5 C 4,8 km/h (1 Bft) 100,00 %
08.07.2017 06:16 17,6 C 24,4 C 94 % 1015,0 hPa 0,0 l/m 1,9 km/h (1 Bft) S-SW 197 2 min 0,000 mm 0,0 UV-I 85 W/m 16,6 C 17,6 C 3,2 km/h (1 Bft) 100,00 %
08.07.2017 06:18 17,6 C 24,4 C 94 % 1015,0 hPa 0,0 l/m 1,5 km/h (1 Bft) S-SW 197 2 min 0,000 mm 0,0 UV-I 88 W/m 16,6 C 17,6 C 3,2 km/h (1 Bft) 100,00 %
08.07.2017 06:20 17,6 C 24,4 C 94 % 1015,0 hPa 0,0 l/m 2,3 km/h (1 Bft) S-SW 197 2 min 0,000 mm 0,0 UV-I 88 W/m 16,6 C 17,6 C 4,8 km/h (1 Bft) 100,00 %
08.07.2017 06:22 17,7 C 24,4 C 94 % 1015,1 hPa 0,0 l/m 3,6 km/h (1 Bft) S-SW 197 2 min 0,000 mm 0,0 UV-I 89 W/m 16,7 C 17,7 C 6,4 km/h (2 Bft) 100,00 %
08.07.2017 06:24 17,7 C 24,4 C 94 % 1015,2 hPa 0,0 l/m 2,1 km/h (1 Bft) S-SW 197 0 min 0,000 mm 0,0 UV-I 88 W/m 16,7 C 17,7 C 3,2 km/h (1 Bft) 100,00 %
08.07.2017 06:26 17,8 C 24,4 C 94 % 1015,2 hPa 0,0 l/m 2,6 km/h (1 Bft) S-SW 197 0 min 0,000 mm 0,0 UV-I 73 W/m 16,8 C 17,8 C 3,2 km/h (1 Bft) 100,00 %
08.07.2017 06:28 17,8 C 24,4 C 94 % 1015,2 hPa 0,0 l/m 1,0 km/h (0 Bft) S-SW 197 0 min 0,000 mm 0,0 UV-I 64 W/m 16,8 C 17,8 C 3,2 km/h (1 Bft) 96,00 %
08.07.2017 06:30 17,8 C 24,4 C 93 % 1015,2 hPa 0,0 l/m 1,0 km/h (0 Bft) S-SW 197 0 min 0,000 mm 0,0 UV-I 64 W/m 16,7 C 17,8 C 3,2 km/h (1 Bft) 98,00 %
08.07.2017 06:32 17,8 C 24,4 C 93 % 1015,2 hPa 0,0 l/m 2,2 km/h (1 Bft) S-SW 197 0 min 0,000 mm 0,0 UV-I 66 W/m 16,7 C 17,8 C 3,2 km/h (1 Bft) 100,00 %
08.07.2017 06:34 17,8 C 24,4 C 93 % 1015,2 hPa 0,0 l/m 0,4 km/h (0 Bft) S-SW 197 0 min 0,000 mm 0,0 UV-I 78 W/m 16,7 C 17,8 C 1,6 km/h (1 Bft) 100,00 %
08.07.2017 06:36 17,8 C 24,4 C 93 % 1015,2 hPa 0,0 l/m 0,2 km/h (0 Bft) S-SW 197 2 min 0,000 mm 0,0 UV-I 127 W/m 16,7 C 17,8 C 1,6 km/h (1 Bft) 100,00 %
08.07.2017 06:38 17,9 C 24,4 C 93 % 1015,2 hPa 0,0 l/m 1,8 km/h (1 Bft) S-SW 197 2 min 0,000 mm 0,0 UV-I 142 W/m 16,8 C 17,9 C 3,2 km/h (1 Bft) 100,00 %
08.07.2017 06:40 17,9 C 24,4 C 93 % 1015,1 hPa 0,0 l/m 1,9 km/h (1 Bft) S-SW 197 2 min 0,000 mm 0,0 UV-I 139 W/m 16,8 C 17,9 C 3,2 km/h (1 Bft) 100,00 %
08.07.2017 06:42 18,0 C 24,4 C 93 % 1015,2 hPa 0,0 l/m 2,7 km/h (1 Bft) S-SW 197 2 min 0,000 mm 0,0 UV-I 141 W/m 16,8 C 18,0 C 4,8 km/h (1 Bft) 100,00 %
08.07.2017 06:44 18,1 C 24,4 C 93 % 1015,1 hPa 0,0 l/m 2,5 km/h (1 Bft) S-SW 197 2 min 0,000 mm 0,0 UV-I 142 W/m 16,9 C 18,1 C 3,2 km/h (1 Bft) 100,00 %
08.07.2017 06:46 18,2 C 24,4 C 93 % 1015,2 hPa 0,0 l/m 1,7 km/h (1 Bft) S-SW 197 2 min 0,000 mm 0,0 UV-I 147 W/m 17,0 C 18,2 C 3,2 km/h (1 Bft) 100,00 %
08.07.2017 06:48 18,3 C 24,4 C 92 % 1015,2 hPa 0,0 l/m 1,5 km/h (1 Bft) S-SW 197 2 min 0,000 mm 0,0 UV-I 152 W/m 17,0 C 18,3 C 1,6 km/h (1 Bft) 100,00 %
08.07.2017 06:50 18,3 C 24,4 C 92 % 1015,2 hPa 0,0 l/m 2,4 km/h (1 Bft) S-SW 197 2 min 0,000 mm 0,0 UV-I 161 W/m 17,0 C 18,3 C 4,8 km/h (1 Bft) 95,45 %
08.07.2017 06:52 18,4 C 24,4 C 92 % 1015,2 hPa 0,0 l/m 2,8 km/h (1 Bft) S-SW 197 2 min 0,000 mm 0,0 UV-I 171 W/m 17,1 C 18,4 C 4,8 km/h (1 Bft) 100,00 %
08.07.2017 06:54 18,5 C 24,4 C 92 % 1015,2 hPa 0,0 l/m 2,6 km/h (1 Bft) S-SW 197 2 min 0,000 mm 0,0 UV-I 175 W/m 17,2 C 18,5 C 4,8 km/h (1 Bft) 100,00 %
08.07.2017 06:56 18,6 C 24,4 C 92 % 1015,2 hPa 0,0 l/m 3,8 km/h (1 Bft) S-SW 197 2 min 0,000 mm 0,0 UV-I 178 W/m 17,3 C 18,6 C 6,4 km/h (2 Bft) 100,00 %
08.07.2017 06:58 18,7 C 24,4 C 91 % 1015,2 hPa 0,0 l/m 3,2 km/h (1 Bft) S-SW 197 2 min 0,000 mm 0,0 UV-I 179 W/m 17,2 C 18,7 C 4,8 km/h (1 Bft) 100,00 %
08.07.2017 07:00 18,8 C 24,4 C 91 % 1015,2 hPa 0,0 l/m 4,3 km/h (1 Bft) S-SW 198 2 min 0,076 mm 0,0 UV-I 186 W/m 17,3 C 18,8 C 6,4 km/h (2 Bft) 96,00 %
08.07.2017 07:02 18,8 C 24,4 C 91 % 1015,2 hPa 0,0 l/m 4,7 km/h (1 Bft) S-SW 198 2 min 0,000 mm 0,0 UV-I 193 W/m 17,3 C 18,8 C 6,4 km/h (2 Bft) 100,00 %
08.07.2017 07:04 18,8 C 24,4 C 91 % 1015,3 hPa 0,0 l/m 4,2 km/h (1 Bft) W 264 2 min 0,000 mm 0,0 UV-I 200 W/m 17,3 C 18,8 C 9,7 km/h (2 Bft) 97,56 %
08.07.2017 07:06 18,9 C 24,4 C 90 % 1015,4 hPa 0,0 l/m 4,2 km/h (1 Bft) W 263 2 min 0,000 mm 0,0 UV-I 208 W/m 17,2 C 18,9 C 6,4 km/h (2 Bft) 98,11 %
08.07.2017 07:08 18,9 C 24,4 C 90 % 1015,4 hPa 0,0 l/m 5,8 km/h (2 Bft) W-SW 257 2 min 0,000 mm 0,0 UV-I 218 W/m 17,2 C 18,9 C 8,0 km/h (2 Bft) 100,00 %
08.07.2017 07:10 19,0 C 24,4 C 90 % 1015,4 hPa 0,0 l/m 5,3 km/h (1 Bft) W 261 2 min 0,000 mm 0,0 UV-I 221 W/m 17,3 C 19,0 C 8,0 km/h (2 Bft) 97,56 %
08.07.2017 07:12 19,1 C 24,4 C 90 % 1015,5 hPa 0,0 l/m 4,4 km/h (1 Bft) W 264 2 min 0,000 mm 0,0 UV-I 233 W/m 17,4 C 19,1 C 6,4 km/h (2 Bft) 100,00 %
08.07.2017 07:14 19,2 C 24,4 C 90 % 1015,4 hPa 0,0 l/m 4,4 km/h (1 Bft) W 275 2 min 0,000 mm 0,4 UV-I 255 W/m 17,5 C 19,2 C 6,4 km/h (2 Bft) 97,14 %
08.07.2017 07:16 19,2 C 24,4 C 89 % 1015,4 hPa 0,0 l/m 4,4 km/h (1 Bft) SW 234 2 min 0,000 mm 0,5 UV-I 258 W/m 17,3 C 19,2 C 4,8 km/h (1 Bft) 100,00 %
08.07.2017 07:18 19,3 C 24,4 C 89 % 1015,4 hPa 0,0 l/m 3,5 km/h (1 Bft) SW 236 2 min 0,000 mm 0,5 UV-I 272 W/m 17,4 C 19,3 C 6,4 km/h (2 Bft) 98,21 %
08.07.2017 07:20 19,4 C 24,4 C 89 % 1015,5 hPa 0,0 l/m 4,6 km/h (1 Bft) W 262 2 min 0,000 mm 0,5 UV-I 285 W/m 17,5 C 19,4 C 6,4 km/h (2 Bft) 95,12 %
08.07.2017 07:22 19,4 C 24,4 C 88 % 1015,4 hPa 0,0 l/m 8,7 km/h (2 Bft) W-SW 246 2 min 0,000 mm 0,5 UV-I 271 W/m 17,4 C 18,4 C 12,9 km/h (3 Bft) 94,64 %
08.07.2017 07:24 19,4 C 24,4 C 88 % 1015,4 hPa 0,0 l/m 4,4 km/h (1 Bft) W-SW 248 2 min 0,000 mm 0,5 UV-I 277 W/m 17,4 C 19,4 C 11,3 km/h (2 Bft) 95,12 %
08.07.2017 07:26 19,5 C 24,4 C 88 % 1015,4 hPa 0,0 l/m 5,8 km/h (2 Bft) W 267 2 min 0,000 mm 0,6 UV-I 302 W/m 17,5 C 19,5 C 11,3 km/h (2 Bft) 94,29 %
08.07.2017 07:28 19,6 C 24,4 C 88 % 1015,4 hPa 0,0 l/m 5,1 km/h (1 Bft) SW 235 2 min 0,000 mm 0,6 UV-I 326 W/m 17,6 C 19,6 C 9,7 km/h (2 Bft) 94,00 %
08.07.2017 07:30 19,7 C 24,4 C 87 % 1015,4 hPa 0,0 l/m 6,9 km/h (2 Bft) SW 228 2 min 0,000 mm 0,6 UV-I 336 W/m 17,5 C 19,5 C 9,7 km/h (2 Bft) 96,43 %
08.07.2017 07:32 19,8 C 24,4 C 88 % 1015,3 hPa 0,0 l/m 3,9 km/h (1 Bft) W 268 2 min 0,000 mm 0,6 UV-I 336 W/m 17,8 C 19,8 C 6,4 km/h (2 Bft) 94,74 %
08.07.2017 07:34 19,9 C 24,4 C 88 % 1015,3 hPa 0,0 l/m 4,6 km/h (1 Bft) W 259 2 min 0,000 mm 0,6 UV-I 327 W/m 17,8 C 19,9 C 6,4 km/h (2 Bft) 94,00 %
08.07.2017 07:36 20,1 C 24,4 C 87 % 1015,3 hPa 0,0 l/m 5,4 km/h (1 Bft) W-SW 257 2 min 0,000 mm 0,7 UV-I 317 W/m 17,9 C 20,1 C 11,3 km/h (2 Bft) 97,62 %
08.07.2017 07:38 20,2 C 24,4 C 87 % 1015,3 hPa 0,0 l/m 5,9 km/h (2 Bft) W-SW 237 2 min 0,000 mm 0,7 UV-I 323 W/m 18,0 C 20,2 C 9,7 km/h (2 Bft) 96,00 %
08.07.2017 07:40 20,2 C 24,4 C 86 % 1015,3 hPa 0,0 l/m 3,0 km/h (1 Bft) W 269 2 min 0,000 mm 0,7 UV-I 324 W/m 17,8 C 20,2 C 4,8 km/h (1 Bft) 96,00 %
08.07.2017 07:42 20,3 C 24,4 C 86 % 1015,3 hPa 0,0 l/m 5,0 km/h (1 Bft) W-SW 254 2 min 0,000 mm 0,8 UV-I 338 W/m 17,9 C 20,3 C 6,4 km/h (2 Bft) 89,36 %
08.07.2017 07:44 20,4 C 24,4 C 87 % 1015,3 hPa 0,0 l/m 2,1 km/h (1 Bft) W-SW 254 2 min 0,000 mm 0,8 UV-I 380 W/m 18,2 C 20,4 C 4,8 km/h (1 Bft) 93,18 %
08.07.2017 07:46 20,4 C 24,4 C 84 % 1015,3 hPa 0,0 l/m 1,9 km/h (1 Bft) W-SW 254 2 min 0,000 mm 0,9 UV-I 420 W/m 17,6 C 20,4 C 3,2 km/h (1 Bft) 91,49 %
08.07.2017 07:48 20,6 C 24,4 C 85 % 1015,3 hPa 0,0 l/m 3,0 km/h (1 Bft) W-SW 254 2 min 0,000 mm 0,9 UV-I 442 W/m 18,0 C 20,6 C 4,8 km/h (1 Bft) 96,00 %
08.07.2017 07:50 20,6 C 24,4 C 84 % 1015,4 hPa 0,0 l/m 1,6 km/h (1 Bft) W-SW 254 2 min 0,000 mm 0,9 UV-I 443 W/m 17,8 C 20,6 C 4,8 km/h (1 Bft) 93,62 %
08.07.2017 07:52 20,7 C 24,4 C 84 % 1015,3 hPa 0,0 l/m 2,5 km/h (1 Bft) W 271 2 min 0,000 mm 0,9 UV-I 423 W/m 17,9 C 20,7 C 4,8 km/h (1 Bft) 89,36 %
08.07.2017 07:54 20,7 C 24,4 C 82 % 1015,3 hPa 0,0 l/m 1,3 km/h (1 Bft) NW 313 2 min 0,000 mm 0,9 UV-I 324 W/m 17,5 C 20,7 C 3,2 km/h (1 Bft) 98,00 %
08.07.2017 07:56 20,7 C 24,4 C 82 % 1015,3 hPa 0,0 l/m 0,5 km/h (0 Bft) W-NW 287 0 min 0,000 mm 0,9 UV-I 201 W/m 17,5 C 20,7 C 3,2 km/h (1 Bft) 93,62 %
08.07.2017 07:58 20,7 C 24,4 C 82 % 1015,2 hPa 0,0 l/m 3,7 km/h (1 Bft) W-SW 253 0 min 0,000 mm 0,9 UV-I 200 W/m 17,5 C 20,7 C 6,4 km/h (2 Bft) 95,74 %
08.07.2017 08:00 20,7 C 24,4 C 82 % 1015,2 hPa 0,0 l/m 4,9 km/h (1 Bft) W 265 2 min 0,178 mm 1,0 UV-I 309 W/m 17,5 C 20,7 C 6,4 km/h (2 Bft) 92,68 %
08.07.2017 08:02 20,7 C 24,4 C 82 % 1015,3 hPa 0,0 l/m 3,1 km/h (1 Bft) W 273 2 min 0,000 mm 1,0 UV-I 407 W/m 17,5 C 20,7 C 4,8 km/h (1 Bft) 98,00 %
08.07.2017 08:04 20,8 C 24,4 C 82 % 1015,3 hPa 0,0 l/m 2,6 km/h (1 Bft) W-NW 289 2 min 0,000 mm 1,1 UV-I 382 W/m 17,6 C 20,8 C 4,8 km/h (1 Bft) 92,00 %
08.07.2017 08:06 20,9 C 24,4 C 81 % 1015,3 hPa 0,0 l/m 1,7 km/h (1 Bft) W-NW 289 2 min 0,000 mm 1,1 UV-I 378 W/m 17,5 C 20,9 C 4,8 km/h (1 Bft) 97,14 %
08.07.2017 08:08 20,9 C 24,4 C 81 % 1015,4 hPa 0,0 l/m 0,2 km/h (0 Bft) W-NW 289 2 min 0,000 mm 1,1 UV-I 378 W/m 17,5 C 20,9 C 1,6 km/h (1 Bft) 96,00 %
08.07.2017 08:10 21,1 C 24,4 C 81 % 1015,4 hPa 0,0 l/m 2,9 km/h (1 Bft) W-NW 287 2 min 0,000 mm 1,2 UV-I 382 W/m 17,7 C 21,1 C 4,8 km/h (1 Bft) 96,00 %
08.07.2017 08:12 21,2 C 24,4 C 81 % 1015,4 hPa 0,0 l/m 1,5 km/h (1 Bft) W-NW 289 2 min 0,000 mm 1,2 UV-I 388 W/m 17,8 C 21,2 C 3,2 km/h (1 Bft) 97,87 %
08.07.2017 08:14 21,3 C 24,4 C 80 % 1015,4 hPa 0,0 l/m 2,6 km/h (1 Bft) W-NW 283 2 min 0,000 mm 1,2 UV-I 399 W/m 17,7 C 21,3 C 4,8 km/h (1 Bft) 96,00 %
08.07.2017 08:16 21,3 C 24,4 C 81 % 1015,5 hPa 0,0 l/m 0,8 km/h (0 Bft) W-NW 283 2 min 0,000 mm 1,3 UV-I 403 W/m 17,9 C 21,3 C 3,2 km/h (1 Bft) 92,86 %
08.07.2017 08:18 21,4 C 24,4 C 80 % 1015,5 hPa 0,0 l/m 3,0 km/h (1 Bft) NW 311 2 min 0,000 mm 1,3 UV-I 400 W/m 17,8 C 21,4 C 6,4 km/h (2 Bft) 98,11 %
08.07.2017 08:20 21,4 C 24,4 C 79 % 1015,5 hPa 0,0 l/m 2,7 km/h (1 Bft) W-NW 302 2 min 0,000 mm 1,3 UV-I 422 W/m 17,6 C 21,4 C 8,0 km/h (2 Bft) 95,74 %
08.07.2017 08:22 21,5 C 24,4 C 79 % 1015,4 hPa 0,0 l/m 2,9 km/h (1 Bft) W-NW 295 2 min 0,000 mm 1,4 UV-I 428 W/m 17,7 C 21,5 C 9,7 km/h (2 Bft) 94,74 %
08.07.2017 08:24 21,5 C 24,4 C 78 % 1015,5 hPa 0,0 l/m 3,1 km/h (1 Bft) W 273 2 min 0,000 mm 1,4 UV-I 433 W/m 17,5 C 21,5 C 6,4 km/h (2 Bft) 94,00 %
08.07.2017 08:26 21,6 C 24,4 C 79 % 1015,5 hPa 0,0 l/m 2,2 km/h (1 Bft) N-NW 342 2 min 0,000 mm 1,4 UV-I 450 W/m 17,8 C 21,6 C 4,8 km/h (1 Bft) 96,00 %
08.07.2017 08:28 21,6 C 24,4 C 78 % 1015,4 hPa 0,0 l/m 3,1 km/h (1 Bft) NW 309 2 min 0,000 mm 1,5 UV-I 468 W/m 17,6 C 21,6 C 6,4 km/h (2 Bft) 94,00 %
08.07.2017 08:30 21,7 C 24,4 C 79 % 1015,5 hPa 0,0 l/m 2,4 km/h (1 Bft) W-NW 296 2 min 0,000 mm 1,5 UV-I 474 W/m 17,9 C 21,7 C 3,2 km/h (1 Bft) 100,00 %
08.07.2017 08:32 21,8 C 24,4 C 78 % 1015,5 hPa 0,0 l/m 2,2 km/h (1 Bft) W-NW 289 2 min 0,000 mm 1,5 UV-I 484 W/m 17,8 C 21,8 C 4,8 km/h (1 Bft) 95,45 %
08.07.2017 08:34 21,9 C 24,4 C 78 % 1015,5 hPa 0,0 l/m 1,2 km/h (1 Bft) W-NW 289 2 min 0,000 mm 1,6 UV-I 485 W/m 17,9 C 21,9 C 3,2 km/h (1 Bft) 100,00 %
08.07.2017 08:36 22,0 C 24,4 C 76 % 1015,5 hPa 0,0 l/m 2,2 km/h (1 Bft) W-NW 290 2 min 0,000 mm 1,6 UV-I 523 W/m 17,6 C 22,0 C 4,8 km/h (1 Bft) 98,00 %
08.07.2017 08:38 22,1 C 24,4 C 76 % 1015,5 hPa 0,0 l/m 0,3 km/h (0 Bft) W-NW 290 2 min 0,000 mm 1,7 UV-I 563 W/m 17,7 C 22,1 C 1,6 km/h (1 Bft) 100,00 %
08.07.2017 08:40 22,2 C 24,4 C 76 % 1015,5 hPa 0,0 l/m 3,2 km/h (1 Bft) NW 317 2 min 0,000 mm 1,8 UV-I 604 W/m 17,8 C 22,2 C 6,4 km/h (2 Bft) 98,11 %
08.07.2017 08:42 22,3 C 24,4 C 75 % 1015,5 hPa 0,0 l/m 2,9 km/h (1 Bft) NW 317 2 min 0,000 mm 1,7 UV-I 626 W/m 17,6 C 22,3 C 4,8 km/h (1 Bft) 97,56 %
08.07.2017 08:44 22,3 C 24,4 C 77 % 1015,5 hPa 0,0 l/m 2,2 km/h (1 Bft) NW 323 2 min 0,000 mm 1,6 UV-I 391 W/m 18,1 C 22,3 C 4,8 km/h (1 Bft) 98,11 %
08.07.2017 08:46 22,3 C 24,4 C 75 % 1015,4 hPa 0,0 l/m 2,0 km/h (1 Bft) NW 325 2 min 0,000 mm 1,6 UV-I 475 W/m 17,6 C 22,3 C 6,4 km/h (2 Bft) 100,00 %
08.07.2017 08:48 22,3 C 24,4 C 76 % 1015,4 hPa 0,0 l/m 0,4 km/h (0 Bft) NW 325 2 min 0,000 mm 1,8 UV-I 500 W/m 17,9 C 22,3 C 1,6 km/h (1 Bft) 100,00 %
08.07.2017 08:50 22,3 C 24,4 C 75 % 1015,5 hPa 0,0 l/m 2,2 km/h (1 Bft) NW 325 2 min 0,000 mm 1,7 UV-I 416 W/m 17,6 C 22,3 C 4,8 km/h (1 Bft) 97,92 %
08.07.2017 08:52 22,3 C 24,4 C 76 % 1015,4 hPa 0,0 l/m 2,7 km/h (1 Bft) W-NW 296 2 min 0,000 mm 1,8 UV-I 343 W/m 17,9 C 22,3 C 4,8 km/h (1 Bft) 100,00 %
08.07.2017 08:54 22,3 C 24,4 C 75 % 1015,5 hPa 0,0 l/m 3,8 km/h (1 Bft) W-NW 301 2 min 0,000 mm 1,8 UV-I 382 W/m 17,6 C 22,3 C 8,0 km/h (2 Bft) 100,00 %
08.07.2017 08:56 22,3 C 24,4 C 74 % 1015,4 hPa 0,0 l/m 3,8 km/h (1 Bft) W-SW 243 2 min 0,000 mm 1,9 UV-I 389 W/m 17,4 C 22,3 C 6,4 km/h (2 Bft) 95,74 %
08.07.2017 08:58 22,3 C 24,4 C 74 % 1015,4 hPa 0,0 l/m 1,0 km/h (0 Bft) W-SW 245 0 min 0,000 mm 1,7 UV-I 299 W/m 17,4 C 22,3 C 4,8 km/h (1 Bft) 97,92 %
08.07.2017 09:00 22,3 C 24,4 C 74 % 1015,5 hPa 0,0 l/m 1,5 km/h (1 Bft) NW 312 2 min 0,254 mm 1,9 UV-I 442 W/m 17,4 C 22,3 C 3,2 km/h (1 Bft) 97,87 %
08.07.2017 09:02 22,3 C 24,4 C 75 % 1015,5 hPa 0,0 l/m 0,6 km/h (0 Bft) N-NW 330 2 min 0,000 mm 1,9 UV-I 564 W/m 17,6 C 22,3 C 3,2 km/h (1 Bft) 100,00 %
08.07.2017 09:04 22,4 C 24,4 C 76 % 1015,5 hPa 0,0 l/m 1,9 km/h (1 Bft) N-NW 328 2 min 0,000 mm 1,9 UV-I 536 W/m 18,0 C 22,4 C 4,8 km/h (1 Bft) 97,87 %
08.07.2017 09:06 22,4 C 24,4 C 75 % 1015,5 hPa 0,0 l/m 1,0 km/h (0 Bft) W-NW 296 0 min 0,000 mm 2,1 UV-I 243 W/m 17,7 C 22,4 C 4,8 km/h (1 Bft) 97,87 %
08.07.2017 09:08 22,4 C 24,4 C 74 % 1015,4 hPa 0,0 l/m 5,5 km/h (1 Bft) W-SW 249 2 min 0,000 mm 2,3 UV-I 449 W/m 17,5 C 22,4 C 12,9 km/h (3 Bft) 100,00 %
08.07.2017 09:10 22,6 C 24,4 C 76 % 1015,4 hPa 0,0 l/m 6,8 km/h (2 Bft) W-SW 252 2 min 0,000 mm 2,3 UV-I 558 W/m 18,1 C 22,5 C 11,3 km/h (2 Bft) 100,00 %
08.07.2017 09:12 22,6 C 24,4 C 74 % 1015,4 hPa 0,0 l/m 4,3 km/h (1 Bft) W 265 2 min 0,000 mm 2,4 UV-I 570 W/m 17,7 C 22,6 C 6,4 km/h (2 Bft) 95,74 %
08.07.2017 09:14 22,6 C 24,4 C 73 % 1015,4 hPa 0,0 l/m 3,4 km/h (1 Bft) W 266 2 min 0,000 mm 2,2 UV-I 481 W/m 17,5 C 22,6 C 6,4 km/h (2 Bft) 97,14 %
08.07.2017 09:16 22,6 C 24,4 C 74 % 1015,4 hPa 0,0 l/m 4,6 km/h (1 Bft) SW 220 0 min 0,000 mm 2,1 UV-I 286 W/m 17,7 C 22,6 C 8,0 km/h (2 Bft) 95,74 %
08.07.2017 09:18 22,7 C 24,4 C 75 % 1015,4 hPa 0,0 l/m 3,9 km/h (1 Bft) W-SW 243 2 min 0,000 mm 2,3 UV-I 337 W/m 18,0 C 22,7 C 8,0 km/h (2 Bft) 96,00 %
08.07.2017 09:20 22,9 C 24,4 C 75 % 1015,4 hPa 0,0 l/m 4,1 km/h (1 Bft) W-SW 237 2 min 0,000 mm 2,5 UV-I 620 W/m 18,2 C 22,9 C 6,4 km/h (2 Bft) 96,23 %
08.07.2017 09:22 23,1 C 24,4 C 75 % 1015,4 hPa 0,0 l/m 2,9 km/h (1 Bft) W-NW 282 2 min 0,000 mm 2,5 UV-I 728 W/m 18,4 C 23,1 C 6,4 km/h (2 Bft) 95,74 %
08.07.2017 09:24 23,2 C 24,4 C 73 % 1015,4 hPa 0,0 l/m 3,0 km/h (1 Bft) W 262 2 min 0,000 mm 2,7 UV-I 675 W/m 18,1 C 23,2 C 6,4 km/h (2 Bft) 95,74 %
08.07.2017 09:26 23,3 C 24,4 C 73 % 1015,3 hPa 0,0 l/m 1,9 km/h (1 Bft) W 263 2 min 0,000 mm 2,8 UV-I 644 W/m 18,2 C 23,3 C 3,2 km/h (1 Bft) 97,87 %
08.07.2017 09:28 23,5 C 24,4 C 74 % 1015,3 hPa 0,0 l/m 5,0 km/h (1 Bft) W-SW 238 2 min 0,000 mm 2,4 UV-I 604 W/m 18,6 C 23,5 C 9,7 km/h (2 Bft) 100,00 %
08.07.2017 09:30 23,4 C 24,4 C 72 % 1015,4 hPa 0,0 l/m 5,0 km/h (1 Bft) W-NW 292 2 min 0,000 mm 2,2 UV-I 427 W/m 18,1 C 23,4 C 8,0 km/h (2 Bft) 96,77 %
08.07.2017 09:32 23,3 C 25,0 C 74 % 1015,3 hPa 0,0 l/m 2,9 km/h (1 Bft) W-NW 287 2 min 0,000 mm 3,0 UV-I 522 W/m 18,4 C 23,3 C 9,7 km/h (2 Bft) 95,74 %
08.07.2017 09:34 23,6 C 24,4 C 73 % 1015,3 hPa 0,0 l/m 1,3 km/h (1 Bft) W-NW 287 2 min 0,000 mm 2,6 UV-I 709 W/m 18,5 C 23,6 C 3,2 km/h (1 Bft) 97,87 %
08.07.2017 09:36 23,7 C 24,4 C 73 % 1015,3 hPa 0,0 l/m 5,2 km/h (1 Bft) W-SW 246 2 min 0,000 mm 2,9 UV-I 738 W/m 18,6 C 23,7 C 9,7 km/h (2 Bft) 95,74 %
08.07.2017 09:38 23,7 C 25,0 C 72 % 1015,3 hPa 0,0 l/m 8,3 km/h (2 Bft) SW 225 2 min 0,000 mm 3,1 UV-I 726 W/m 18,3 C 23,2 C 12,9 km/h (3 Bft) 95,74 %
08.07.2017 09:40 23,8 C 24,4 C 73 % 1015,2 hPa 0,0 l/m 4,0 km/h (1 Bft) SW 220 2 min 0,000 mm 3,1 UV-I 713 W/m 18,7 C 23,8 C 6,4 km/h (2 Bft) 95,74 %
08.07.2017 09:42 24,1 C 24,4 C 73 % 1015,2 hPa 0,0 l/m 2,4 km/h (1 Bft) W-SW 245 2 min 0,000 mm 2,7 UV-I 688 W/m 18,9 C 24,1 C 4,8 km/h (1 Bft) 95,74 %
08.07.2017 09:44 24,1 C 24,4 C 69 % 1015,2 hPa 0,0 l/m 5,3 km/h (1 Bft) SW 229 2 min 0,000 mm 2,9 UV-I 380 W/m 18,0 C 24,1 C 9,7 km/h (2 Bft) 93,62 %
08.07.2017 09:46 24,1 C 24,4 C 71 % 1015,2 hPa 0,0 l/m 8,9 km/h (2 Bft) W-SW 250 2 min 0,000 mm 2,5 UV-I 417 W/m 18,5 C 23,4 C 14,5 km/h (3 Bft) 97,87 %
08.07.2017 09:48 24,0 C 24,4 C 70 % 1015,2 hPa 0,0 l/m 11,3 km/h (2 Bft) W 268 0 min 0,000 mm 2,6 UV-I 354 W/m 18,2 C 22,8 C 16,1 km/h (3 Bft) 100,00 %
08.07.2017 09:50 23,8 C 24,4 C 71 % 1015,2 hPa 0,0 l/m 7,0 km/h (2 Bft) W 276 0 min 0,000 mm 2,4 UV-I 320 W/m 18,2 C 23,6 C 11,3 km/h (2 Bft) 97,87 %
08.07.2017 09:52 23,8 C 24,4 C 72 % 1015,2 hPa 0,0 l/m 6,7 km/h (2 Bft) S-SW 213 2 min 0,000 mm 3,1 UV-I 540 W/m 18,4 C 23,7 C 12,9 km/h (3 Bft) 98,00 %
08.07.2017 09:54 23,9 C 24,4 C 71 % 1015,2 hPa 0,0 l/m 10,3 km/h (2 Bft) W 266 2 min 0,000 mm 3,2 UV-I 789 W/m 18,3 C 22,9 C 14,5 km/h (3 Bft) 100,00 %
08.07.2017 09:56 23,9 C 24,4 C 71 % 1015,2 hPa 0,0 l/m 4,9 km/h (1 Bft) W 267 2 min 0,000 mm 2,8 UV-I 777 W/m 18,3 C 23,9 C 11,3 km/h (2 Bft) 95,74 %
08.07.2017 09:58 23,8 C 24,4 C 73 % 1015,1 hPa 0,0 l/m 1,7 km/h (1 Bft) W-NW 282 2 min 0,000 mm 2,7 UV-I 680 W/m 18,7 C 23,8 C 4,8 km/h (1 Bft) 97,87 %
08.07.2017 10:00 23,8 C 24,4 C 72 % 1015,1 hPa 0,0 l/m 2,0 km/h (1 Bft) W-NW 301 0 min 0,330 mm 2,4 UV-I 258 W/m 18,4 C 23,8 C 3,2 km/h (1 Bft) 97,87 %
08.07.2017 10:02 23,8 C 24,4 C 72 % 1015,0 hPa 0,0 l/m 2,3 km/h (1 Bft) W 262 0 min 0,000 mm 3,0 UV-I 335 W/m 18,4 C 23,8 C 4,8 km/h (1 Bft) 97,87 %
08.07.2017 10:04 23,9 C 24,4 C 73 % 1015,0 hPa 0,0 l/m 3,2 km/h (1 Bft) W-NW 293 2 min 0,000 mm 3,5 UV-I 615 W/m 18,8 C 23,9 C 6,4 km/h (2 Bft) 100,00 %
08.07.2017 10:06 23,9 C 24,4 C 72 % 1015,1 hPa 0,0 l/m 3,7 km/h (1 Bft) N-NW 344 2 min 0,000 mm 3,2 UV-I 612 W/m 18,5 C 23,9 C 6,4 km/h (2 Bft) 100,00 %
08.07.2017 10:08 23,9 C 24,4 C 73 % 1015,0 hPa 0,0 l/m 2,5 km/h (1 Bft) NW 321 0 min 0,000 mm 2,6 UV-I 382 W/m 18,8 C 23,9 C 4,8 km/h (1 Bft) 100,00 %
08.07.2017 10:10 23,8 C 25,0 C 72 % 1015,1 hPa 0,0 l/m 5,5 km/h (1 Bft) W-NW 295 0 min 0,000 mm 3,3 UV-I 296 W/m 18,4 C 23,8 C 9,7 km/h (2 Bft) 100,00 %
08.07.2017 10:12 23,9 C 25,0 C 72 % 1015,0 hPa 0,0 l/m 2,5 km/h (1 Bft) W-NW 294 2 min 0,000 mm 3,8 UV-I 699 W/m 18,5 C 23,9 C 4,8 km/h (1 Bft) 97,87 %
08.07.2017 10:14 24,1 C 25,0 C 72 % 1015,0 hPa 0,0 l/m 5,1 km/h (1 Bft) W-SW 252 2 min 0,000 mm 3,7 UV-I 710 W/m 18,7 C 24,1 C 9,7 km/h (2 Bft) 97,87 %
08.07.2017 10:16 24,3 C 25,0 C 72 % 1015,0 hPa 0,0 l/m 8,9 km/h (2 Bft) W-SW 240 2 min 0,000 mm 3,6 UV-I 744 W/m 18,9 C 23,6 C 17,7 km/h (3 Bft) 100,00 %
08.07.2017 10:18 24,4 C 25,0 C 71 % 1015,0 hPa 0,0 l/m 6,0 km/h (2 Bft) SW 222 2 min 0,000 mm 3,2 UV-I 828 W/m 18,8 C 24,4 C 9,7 km/h (2 Bft) 97,30 %
08.07.2017 10:20 24,6 C 24,4 C 71 % 1015,0 hPa 0,0 l/m 5,7 km/h (1 Bft) W-NW 284 2 min 0,000 mm 2,5 UV-I 541 W/m 19,0 C 24,6 C 9,7 km/h (2 Bft) 100,00 %
08.07.2017 10:22 24,4 C 25,0 C 70 % 1015,0 hPa 0,0 l/m 4,8 km/h (1 Bft) W-SW 239 0 min 0,000 mm 3,0 UV-I 215 W/m 18,6 C 24,4 C 6,4 km/h (2 Bft) 97,87 %
08.07.2017 10:24 24,5 C 25,0 C 71 % 1015,0 hPa 0,0 l/m 3,4 km/h (1 Bft) W-SW 257 2 min 0,000 mm 3,8 UV-I 563 W/m 18,9 C 24,5 C 6,4 km/h (2 Bft) 100,00 %
08.07.2017 10:26 24,7 C 25,0 C 71 % 1015,0 hPa 0,0 l/m 7,3 km/h (2 Bft) W-NW 286 2 min 0,000 mm 3,9 UV-I 758 W/m 19,1 C 24,5 C 12,9 km/h (3 Bft) 97,87 %
08.07.2017 10:28 24,7 C 25,0 C 68 % 1015,0 hPa 0,0 l/m 6,6 km/h (2 Bft) W-SW 249 2 min 0,000 mm 4,0 UV-I 759 W/m 18,4 C 24,7 C 11,3 km/h (2 Bft) 96,15 %
08.07.2017 10:30 24,8 C 25,0 C 71 % 1015,0 hPa 0,0 l/m 5,1 km/h (1 Bft) W-SW 244 2 min 0,000 mm 4,1 UV-I 722 W/m 19,2 C 24,8 C 9,7 km/h (2 Bft) 100,00 %
08.07.2017 10:32 25,1 C 25,0 C 69 % 1015,0 hPa 0,0 l/m 7,6 km/h (2 Bft) W-NW 288 2 min 0,000 mm 4,3 UV-I 689 W/m 19,0 C 24,8 C 14,5 km/h (3 Bft) 98,00 %
08.07.2017 10:34 25,2 C 25,0 C 67 % 1015,0 hPa 0,0 l/m 5,5 km/h (1 Bft) SW 221 2 min 0,000 mm 4,5 UV-I 847 W/m 18,6 C 25,2 C 9,7 km/h (2 Bft) 100,00 %
08.07.2017 10:36 25,3 C 25,0 C 67 % 1015,0 hPa 0,0 l/m 9,6 km/h (2 Bft) W-NW 294 2 min 0,000 mm 4,6 UV-I 805 W/m 18,7 C 24,6 C 20,9 km/h (4 Bft) 100,00 %
08.07.2017 10:38 25,3 C 25,0 C 66 % 1015,0 hPa 0,0 l/m 8,8 km/h (2 Bft) SW 225 2 min 0,000 mm 4,3 UV-I 775 W/m 18,5 C 24,7 C 16,1 km/h (3 Bft) 97,96 %
08.07.2017 10:40 25,4 C 25,0 C 67 % 1015,0 hPa 0,0 l/m 8,6 km/h (2 Bft) W-SW 246 2 min 0,000 mm 4,5 UV-I 910 W/m 18,8 C 24,9 C 14,5 km/h (3 Bft) 100,00 %
08.07.2017 10:42 25,6 C 25,0 C 68 % 1015,0 hPa 0,0 l/m 5,1 km/h (1 Bft) W-SW 249 2 min 0,000 mm 3,4 UV-I 698 W/m 19,2 C 25,6 C 12,9 km/h (3 Bft) 100,00 %
08.07.2017 10:44 25,8 C 25,0 C 67 % 1015,0 hPa 0,0 l/m 4,0 km/h (1 Bft) W 277 2 min 0,000 mm 3,7 UV-I 535 W/m 19,2 C 25,8 C 11,3 km/h (2 Bft) 100,00 %
08.07.2017 10:46 25,8 C 25,0 C 67 % 1015,1 hPa 0,0 l/m 7,0 km/h (2 Bft) W-NW 297 2 min 0,000 mm 4,4 UV-I 504 W/m 19,2 C 25,7 C 14,5 km/h (3 Bft) 95,74 %
08.07.2017 10:48 25,8 C 25,0 C 68 % 1015,0 hPa 0,0 l/m 8,1 km/h (2 Bft) W 269 2 min 0,000 mm 4,3 UV-I 821 W/m 19,4 C 25,4 C 16,1 km/h (3 Bft) 95,74 %
08.07.2017 10:50 25,8 C 25,0 C 65 % 1015,0 hPa 0,0 l/m 10,1 km/h (2 Bft) W 281 2 min 0,000 mm 4,4 UV-I 642 W/m 18,7 C 25,0 C 17,7 km/h (3 Bft) 95,83 %
08.07.2017 10:52 25,7 C 25,0 C 66 % 1015,1 hPa 0,0 l/m 5,4 km/h (1 Bft) W 264 2 min 0,000 mm 3,9 UV-I 570 W/m 18,9 C 25,7 C 11,3 km/h (2 Bft) 100,00 %
08.07.2017 10:54 25,6 C 25,0 C 65 % 1015,0 hPa 0,0 l/m 9,0 km/h (2 Bft) SW 227 2 min 0,000 mm 3,3 UV-I 507 W/m 18,5 C 25,0 C 12,9 km/h (3 Bft) 98,00 %
08.07.2017 10:56 25,5 C 25,0 C 66 % 1015,0 hPa 0,0 l/m 4,7 km/h (1 Bft) W 269 0 min 0,000 mm 3,3 UV-I 363 W/m 18,7 C 25,5 C 9,7 km/h (2 Bft) 100,00 %
08.07.2017 10:58 25,4 C 25,0 C 66 % 1015,1 hPa 0,0 l/m 5,0 km/h (1 Bft) SW 224 0 min 0,000 mm 3,0 UV-I 304 W/m 18,6 C 25,4 C 9,7 km/h (2 Bft) 97,87 %
08.07.2017 11:00 25,3 C 25,0 C 67 % 1015,1 hPa 0,0 l/m 2,9 km/h (1 Bft) W-NW 290 0 min 0,406 mm 2,9 UV-I 284 W/m 18,7 C 25,3 C 11,3 km/h (2 Bft) 100,00 %
08.07.2017 11:02 25,2 C 25,0 C 67 % 1015,1 hPa 0,0 l/m 3,3 km/h (1 Bft) W-NW 285 0 min 0,000 mm 3,0 UV-I 301 W/m 18,6 C 25,2 C 8,0 km/h (2 Bft) 95,74 %
08.07.2017 11:04 25,1 C 25,0 C 67 % 1015,1 hPa 0,0 l/m 4,8 km/h (1 Bft) W 267 0 min 0,000 mm 3,4 UV-I 342 W/m 18,5 C 25,1 C 9,7 km/h (2 Bft) 100,00 %
08.07.2017 11:06 25,1 C 25,0 C 69 % 1015,0 hPa 0,0 l/m 4,5 km/h (1 Bft) SW 233 0 min 0,000 mm 3,8 UV-I 365 W/m 19,0 C 25,1 C 9,7 km/h (2 Bft) 97,87 %
08.07.2017 11:08 25,2 C 25,0 C 67 % 1015,0 hPa 0,0 l/m 5,1 km/h (1 Bft) W-NW 286 0 min 0,000 mm 4,3 UV-I 408 W/m 18,6 C 25,2 C 9,7 km/h (2 Bft) 97,87 %
08.07.2017 11:10 25,2 C 25,0 C 66 % 1015,0 hPa 0,0 l/m 3,5 km/h (1 Bft) W-NW 289 0 min 0,000 mm 3,5 UV-I 424 W/m 18,4 C 25,2 C 4,8 km/h (1 Bft) 94,00 %
08.07.2017 11:12 25,3 C 25,0 C 66 % 1015,0 hPa 0,0 l/m 2,3 km/h (1 Bft) S-SW 213 0 min 0,000 mm 4,6 UV-I 424 W/m 18,5 C 25,3 C 8,0 km/h (2 Bft) 95,74 %
08.07.2017 11:14 25,6 C 25,0 C 66 % 1015,0 hPa 0,0 l/m 5,3 km/h (1 Bft) W-SW 251 2 min 0,000 mm 4,2 UV-I 809 W/m 18,8 C 25,6 C 8,0 km/h (2 Bft) 93,62 %
08.07.2017 11:16 25,7 C 25,0 C 65 % 1014,9 hPa 0,0 l/m 7,1 km/h (2 Bft) W-SW 249 2 min 0,000 mm 5,0 UV-I 822 W/m 18,6 C 25,5 C 11,3 km/h (2 Bft) 97,37 %
08.07.2017 11:18 26,1 C 25,0 C 65 % 1014,9 hPa 0,0 l/m 5,2 km/h (1 Bft) W-NW 286 2 min 0,000 mm 5,2 UV-I 663 W/m 19,0 C 26,1 C 11,3 km/h (2 Bft) 98,11 %
08.07.2017 11:20 26,3 C 25,0 C 65 % 1014,9 hPa 0,0 l/m 2,6 km/h (1 Bft) SW 222 2 min 0,000 mm 5,8 UV-I 999 W/m 19,2 C 26,3 C 4,8 km/h (1 Bft) 95,74 %
08.07.2017 11:22 26,7 C 25,0 C 64 % 1014,9 hPa 0,0 l/m 8,8 km/h (2 Bft) SW 223 2 min 0,000 mm 4,5 UV-I 944 W/m 19,3 C 26,2 C 16,1 km/h (3 Bft) 95,74 %
08.07.2017 11:24 26,8 C 25,0 C 60 % 1014,9 hPa 0,0 l/m 8,7 km/h (2 Bft) W 277 0 min 0,000 mm 4,7 UV-I 429 W/m 18,4 C 26,4 C 17,7 km/h (3 Bft) 93,62 %
08.07.2017 11:26 26,8 C 25,0 C 60 % 1014,9 hPa 0,0 l/m 9,3 km/h (2 Bft) W 263 0 min 0,000 mm 4,0 UV-I 429 W/m 18,4 C 26,3 C 20,9 km/h (4 Bft) 94,00 %
08.07.2017 11:28 26,7 C 25,0 C 59 % 1014,9 hPa 0,0 l/m 5,4 km/h (1 Bft) W-SW 244 0 min 0,000 mm 4,1 UV-I 375 W/m 18,0 C 26,7 C 14,5 km/h (3 Bft) 95,74 %
08.07.2017 11:30 26,7 C 25,0 C 59 % 1014,9 hPa 0,0 l/m 6,6 km/h (2 Bft) SW 227 0 min 0,000 mm 4,0 UV-I 390 W/m 18,0 C 26,7 C 12,9 km/h (3 Bft) 95,74 %
08.07.2017 11:32 26,6 C 25,0 C 59 % 1014,9 hPa 0,0 l/m 8,1 km/h (2 Bft) W-SW 258 0 min 0,000 mm 4,3 UV-I 427 W/m 17,9 C 26,3 C 17,7 km/h (3 Bft) 91,67 %
08.07.2017 11:34 26,7 C 25,0 C 60 % 1014,9 hPa 0,0 l/m 7,7 km/h (2 Bft) W-NW 286 2 min 0,000 mm 5,5 UV-I 560 W/m 18,3 C 26,4 C 14,5 km/h (3 Bft) 93,62 %
08.07.2017 11:36 26,9 C 25,0 C 59 % 1014,8 hPa 0,0 l/m 5,0 km/h (1 Bft) W-NW 302 2 min 0,000 mm 5,8 UV-I 1031 W/m 18,2 C 26,9 C 16,1 km/h (3 Bft) 97,87 %
08.07.2017 11:38 27,0 C 25,0 C 59 % 1014,8 hPa 0,0 l/m 4,6 km/h (1 Bft) W-SW 254 2 min 0,000 mm 5,5 UV-I 763 W/m 18,3 C 27,0 C 9,7 km/h (2 Bft) 91,49 %
08.07.2017 11:40 27,3 C 25,0 C 59 % 1014,8 hPa 0,0 l/m 8,7 km/h (2 Bft) W-SW 257 2 min 0,000 mm 6,0 UV-I 501 W/m 18,6 C 26,9 C 14,5 km/h (3 Bft) 95,74 %
08.07.2017 11:42 27,4 C 25,0 C 57 % 1014,8 hPa 0,0 l/m 9,9 km/h (2 Bft) W-SW 250 0 min 0,000 mm 5,3 UV-I 448 W/m 18,1 C 26,8 C 16,1 km/h (3 Bft) 89,36 %
08.07.2017 11:44 27,4 C 25,0 C 56 % 1014,8 hPa 0,0 l/m 14,5 km/h (3 Bft) W-SW 238 0 min 0,000 mm 6,1 UV-I 360 W/m 17,8 C 26,3 C 20,9 km/h (4 Bft) 97,87 %
08.07.2017 11:46 27,2 C 25,0 C 56 % 1014,9 hPa 0,0 l/m 12,4 km/h (3 Bft) W 274 2 min 0,000 mm 5,1 UV-I 753 W/m 17,6 C 26,3 C 17,7 km/h (3 Bft) 95,74 %
08.07.2017 11:48 27,2 C 25,0 C 58 % 1014,8 hPa 0,0 l/m 7,0 km/h (2 Bft) W 281 2 min 0,000 mm 5,1 UV-I 612 W/m 18,2 C 27,1 C 12,9 km/h (3 Bft) 95,74 %
08.07.2017 11:50 27,2 C 25,0 C 58 % 1014,7 hPa 0,0 l/m 7,2 km/h (2 Bft) W 259 2 min 0,000 mm 5,2 UV-I 851 W/m 18,2 C 27,1 C 17,7 km/h (3 Bft) 95,74 %
08.07.2017 11:52 27,3 C 25,0 C 56 % 1014,7 hPa 0,0 l/m 9,4 km/h (2 Bft) W-SW 237 2 min 0,000 mm 5,6 UV-I 874 W/m 17,7 C 26,8 C 20,9 km/h (4 Bft) 97,37 %
08.07.2017 11:54 27,3 C 25,0 C 56 % 1014,6 hPa 0,0 l/m 6,0 km/h (2 Bft) NW 304 2 min 0,000 mm 6,4 UV-I 874 W/m 17,7 C 27,3 C 12,9 km/h (3 Bft) 93,62 %
08.07.2017 11:56 27,6 C 25,0 C 58 % 1014,6 hPa 0,0 l/m 6,2 km/h (2 Bft) W-SW 242 2 min 0,000 mm 6,2 UV-I 891 W/m 18,6 C 27,6 C 12,9 km/h (3 Bft) 95,74 %
08.07.2017 11:58 28,0 C 25,0 C 56 % 1014,6 hPa 0,0 l/m 4,8 km/h (1 Bft) W-SW 248 2 min 0,000 mm 6,2 UV-I 873 W/m 18,4 C 28,0 C 11,3 km/h (2 Bft) 94,34 %
08.07.2017 12:00 28,2 C 25,0 C 56 % 1014,6 hPa 0,0 l/m 8,7 km/h (2 Bft) W-NW 289 2 min 0,483 mm 6,2 UV-I 865 W/m 18,6 C 27,9 C 14,5 km/h (3 Bft) 91,49 %
08.07.2017 12:02 28,3 C 25,0 C 55 % 1014,6 hPa 0,0 l/m 8,2 km/h (2 Bft) W 278 2 min 0,000 mm 6,3 UV-I 866 W/m 18,4 C 28,0 C 12,9 km/h (3 Bft) 97,87 %
08.07.2017 12:04 28,3 C 25,0 C 53 % 1014,5 hPa 0,0 l/m 8,7 km/h (2 Bft) SW 217 2 min 0,000 mm 6,3 UV-I 867 W/m 17,8 C 28,0 C 17,7 km/h (3 Bft) 97,87 %
08.07.2017 12:06 28,2 C 25,0 C 54 % 1014,5 hPa 0,0 l/m 10,6 km/h (2 Bft) NW 313 2 min 0,000 mm 6,3 UV-I 858 W/m 18,0 C 27,6 C 19,3 km/h (3 Bft) 97,87 %
08.07.2017 12:08 28,2 C 25,0 C 53 % 1014,6 hPa 0,0 l/m 7,2 km/h (2 Bft) NW 319 2 min 0,000 mm 6,3 UV-I 863 W/m 17,7 C 28,1 C 12,9 km/h (3 Bft) 95,74 %
08.07.2017 12:10 28,3 C 25,0 C 53 % 1014,4 hPa 0,0 l/m 10,9 km/h (2 Bft) W-NW 294 2 min 0,000 mm 6,4 UV-I 862 W/m 17,8 C 27,7 C 17,7 km/h (3 Bft) 95,74 %
08.07.2017 12:12 28,3 C 25,0 C 51 % 1014,5 hPa 0,0 l/m 12,9 km/h (3 Bft) W-SW 248 2 min 0,000 mm 6,4 UV-I 864 W/m 17,2 C 27,5 C 27,4 km/h (4 Bft) 94,44 %
08.07.2017 12:14 28,3 C 25,0 C 51 % 1014,5 hPa 0,0 l/m 16,6 km/h (3 Bft) SW 235 2 min 0,000 mm 6,4 UV-I 873 W/m 17,2 C 27,2 C 25,7 km/h (4 Bft) 98,00 %
08.07.2017 12:16 28,3 C 25,0 C 51 % 1014,4 hPa 0,0 l/m 15,1 km/h (3 Bft) SW 215 2 min 0,000 mm 6,5 UV-I 887 W/m 17,2 C 27,3 C 22,5 km/h (4 Bft) 97,87 %
08.07.2017 12:18 28,4 C 25,0 C 51 % 1014,4 hPa 0,0 l/m 11,2 km/h (2 Bft) W 263 2 min 0,000 mm 6,5 UV-I 909 W/m 17,3 C 27,8 C 19,3 km/h (3 Bft) 97,87 %
08.07.2017 12:20 28,5 C 25,0 C 50 % 1014,4 hPa 0,0 l/m 9,3 km/h (2 Bft) W-NW 290 2 min 0,000 mm 6,5 UV-I 913 W/m 17,0 C 28,1 C 16,1 km/h (3 Bft) 97,87 %
08.07.2017 12:22 28,6 C 25,0 C 50 % 1014,4 hPa 0,0 l/m 12,2 km/h (2 Bft) S-SW 205 2 min 0,000 mm 6,7 UV-I 923 W/m 17,1 C 27,9 C 22,5 km/h (4 Bft) 96,00 %
08.07.2017 12:24 28,8 C 25,0 C 50 % 1014,4 hPa 0,0 l/m 7,0 km/h (2 Bft) SW 219 2 min 0,000 mm 6,7 UV-I 956 W/m 17,3 C 28,7 C 16,1 km/h (3 Bft) 96,00 %
08.07.2017 12:26 28,8 C 25,0 C 51 % 1014,4 hPa 0,0 l/m 5,7 km/h (1 Bft) W-NW 287 2 min 0,000 mm 6,0 UV-I 974 W/m 17,6 C 28,8 C 12,9 km/h (3 Bft) 97,87 %
08.07.2017 12:28 28,7 C 25,0 C 48 % 1014,4 hPa 0,0 l/m 12,6 km/h (3 Bft) W-SW 254 2 min 0,000 mm 4,9 UV-I 974 W/m 16,6 C 28,0 C 24,1 km/h (4 Bft) 97,87 %
08.07.2017 12:30 28,7 C 25,0 C 49 % 1014,4 hPa 0,0 l/m 15,9 km/h (3 Bft) W-SW 250 2 min 0,000 mm 6,4 UV-I 988 W/m 16,9 C 27,7 C 25,7 km/h (4 Bft) 100,00 %
08.07.2017 12:32 28,9 C 25,0 C 49 % 1014,4 hPa 0,0 l/m 7,2 km/h (2 Bft) W-SW 251 2 min 0,000 mm 6,6 UV-I 988 W/m 17,1 C 28,8 C 12,9 km/h (3 Bft) 97,87 %
08.07.2017 12:34 29,1 C 25,0 C 48 % 1014,4 hPa 0,0 l/m 11,8 km/h (2 Bft) W-NW 303 2 min 0,000 mm 6,7 UV-I 984 W/m 16,9 C 28,5 C 19,3 km/h (3 Bft) 97,87 %
08.07.2017 12:36 29,2 C 25,6 C 45 % 1014,3 hPa 0,0 l/m 16,9 km/h (3 Bft) W-SW 258 2 min 0,000 mm 6,6 UV-I 1008 W/m 16,0 C 28,3 C 27,4 km/h (4 Bft) 100,00 %
08.07.2017 12:38 29,2 C 25,6 C 44 % 1014,4 hPa 0,0 l/m 18,2 km/h (3 Bft) W-SW 240 2 min 0,000 mm 6,7 UV-I 1012 W/m 15,7 C 28,2 C 30,6 km/h (5 Bft) 97,87 %
08.07.2017 12:40 29,3 C 25,6 C 43 % 1014,5 hPa 0,0 l/m 13,8 km/h (3 Bft) W-SW 246 2 min 0,000 mm 6,8 UV-I 985 W/m 15,4 C 28,6 C 20,9 km/h (4 Bft) 97,87 %
08.07.2017 12:42 29,4 C 25,6 C 42 % 1014,4 hPa 0,0 l/m 16,0 km/h (3 Bft) W-SW 244 2 min 0,000 mm 6,9 UV-I 973 W/m 15,1 C 28,6 C 24,1 km/h (4 Bft) 100,00 %
08.07.2017 12:44 29,3 C 25,6 C 44 % 1014,4 hPa 0,0 l/m 15,0 km/h (3 Bft) W-SW 247 2 min 0,000 mm 6,7 UV-I 987 W/m 15,8 C 28,5 C 24,1 km/h (4 Bft) 100,00 %
08.07.2017 12:46 29,4 C 25,6 C 42 % 1014,3 hPa 0,0 l/m 15,3 km/h (3 Bft) W-SW 256 2 min 0,000 mm 6,8 UV-I 1015 W/m 15,1 C 28,6 C 24,1 km/h (4 Bft) 93,62 %
08.07.2017 12:48 29,3 C 25,6 C 43 % 1014,4 hPa 0,0 l/m 14,6 km/h (3 Bft) W-NW 283 2 min 0,000 mm 6,5 UV-I 1021 W/m 15,4 C 28,5 C 22,5 km/h (4 Bft) 100,00 %
08.07.2017 12:50 29,2 C 25,6 C 43 % 1014,3 hPa 0,0 l/m 10,0 km/h (2 Bft) W 276 2 min 0,000 mm 5,7 UV-I 886 W/m 15,3 C 28,8 C 17,7 km/h (3 Bft) 100,00 %
08.07.2017 12:52 29,3 C 25,6 C 43 % 1014,3 hPa 0,0 l/m 7,7 km/h (2 Bft) SW 233 0 min 0,000 mm 6,0 UV-I 380 W/m 15,4 C 29,1 C 16,1 km/h (3 Bft) 100,00 %
08.07.2017 12:54 29,3 C 25,6 C 41 % 1014,4 hPa 0,0 l/m 11,4 km/h (2 Bft) W 277 2 min 0,000 mm 5,8 UV-I 1033 W/m 14,7 C 28,8 C 20,9 km/h (4 Bft) 100,00 %
08.07.2017 12:56 29,3 C 25,6 C 41 % 1014,4 hPa 0,0 l/m 15,2 km/h (3 Bft) W 275 2 min 0,000 mm 5,8 UV-I 1092 W/m 14,7 C 28,5 C 24,1 km/h (4 Bft) 100,00 %
08.07.2017 12:58 29,1 C 25,6 C 42 % 1014,4 hPa 0,0 l/m 10,2 km/h (2 Bft) SW 227 0 min 0,000 mm 3,7 UV-I 468 W/m 14,9 C 28,7 C 22,5 km/h (4 Bft) 97,87 %
08.07.2017 13:00 28,8 C 25,6 C 42 % 1014,4 hPa 0,0 l/m 7,4 km/h (2 Bft) W-NW 291 0 min 0,635 mm 3,2 UV-I 243 W/m 14,6 C 28,7 C 16,1 km/h (3 Bft) 97,87 %
08.07.2017 13:02 28,6 C 25,6 C 43 % 1014,3 hPa 0,0 l/m 7,9 km/h (2 Bft) W-SW 242 0 min 0,000 mm 3,8 UV-I 281 W/m 14,8 C 28,4 C 16,1 km/h (3 Bft) 97,87 %
08.07.2017 13:04 28,4 C 25,6 C 45 % 1014,4 hPa 0,0 l/m 4,7 km/h (1 Bft) S-SW 213 0 min 0,000 mm 5,6 UV-I 327 W/m 15,3 C 28,4 C 9,7 km/h (2 Bft) 100,00 %
08.07.2017 13:06 28,6 C 25,6 C 44 % 1014,4 hPa 0,0 l/m 13,8 km/h (3 Bft) W-SW 242 0 min 0,000 mm 6,4 UV-I 398 W/m 15,1 C 27,8 C 20,9 km/h (4 Bft) 97,87 %
08.07.2017 13:08 28,7 C 25,6 C 44 % 1014,4 hPa 0,0 l/m 14,2 km/h (3 Bft) W 268 2 min 0,000 mm 5,3 UV-I 995 W/m 15,2 C 27,9 C 19,3 km/h (3 Bft) 97,14 %
08.07.2017 13:10 28,8 C 25,6 C 43 % 1014,3 hPa 0,0 l/m 11,8 km/h (2 Bft) NW 315 2 min 0,000 mm 5,6 UV-I 995 W/m 15,0 C 28,2 C 20,9 km/h (4 Bft) 94,00 %
08.07.2017 13:12 28,9 C 25,6 C 42 % 1014,4 hPa 0,0 l/m 6,1 km/h (2 Bft) W-SW 258 2 min 0,000 mm 5,1 UV-I 995 W/m 14,7 C 28,9 C 17,7 km/h (3 Bft) 93,62 %
08.07.2017 13:14 29,2 C 25,6 C 44 % 1014,3 hPa 0,0 l/m 7,1 km/h (2 Bft) W-SW 248 2 min 0,000 mm 6,2 UV-I 1031 W/m 15,7 C 29,1 C 17,7 km/h (3 Bft) 97,87 %
08.07.2017 13:16 29,4 C 25,6 C 42 % 1014,4 hPa 0,0 l/m 11,5 km/h (2 Bft) SW 234 0 min 0,000 mm 4,4 UV-I 456 W/m 15,1 C 28,9 C 20,9 km/h (4 Bft) 98,00 %
08.07.2017 13:18 29,3 C 25,6 C 42 % 1014,4 hPa 0,0 l/m 13,0 km/h (3 Bft) NW 305 0 min 0,000 mm 4,8 UV-I 325 W/m 15,0 C 28,7 C 20,9 km/h (4 Bft) 96,00 %
08.07.2017 13:20 29,2 C 25,6 C 42 % 1014,3 hPa 0,0 l/m 9,7 km/h (2 Bft) W-SW 251 0 min 0,000 mm 4,0 UV-I 308 W/m 14,9 C 28,8 C 16,1 km/h (3 Bft) 94,44 %
08.07.2017 13:22 28,9 C 25,6 C 42 % 1014,3 hPa 0,0 l/m 11,9 km/h (2 Bft) SW 233 0 min 0,000 mm 5,0 UV-I 234 W/m 14,7 C 28,3 C 17,7 km/h (3 Bft) 95,92 %
08.07.2017 13:24 29,1 C 25,6 C 44 % 1014,3 hPa 0,0 l/m 6,4 km/h (2 Bft) SW 226 2 min 0,000 mm 6,9 UV-I 987 W/m 15,6 C 29,1 C 14,5 km/h (3 Bft) 95,83 %
08.07.2017 13:26 29,4 C 25,6 C 42 % 1014,4 hPa 0,0 l/m 19,6 km/h (3 Bft) W-NW 284 2 min 0,000 mm 6,2 UV-I 1013 W/m 15,1 C 28,4 C 29,0 km/h (5 Bft) 96,00 %
08.07.2017 13:28 29,6 C 25,6 C 43 % 1014,4 hPa 0,0 l/m 13,9 km/h (3 Bft) W-SW 255 2 min 0,000 mm 6,4 UV-I 1033 W/m 15,7 C 29,0 C 22,5 km/h (4 Bft) 97,14 %
08.07.2017 13:30 29,5 C 25,6 C 41 % 1014,4 hPa 0,0 l/m 16,1 km/h (3 Bft) SW 233 2 min 0,000 mm 3,5 UV-I 574 W/m 14,8 C 28,7 C 24,1 km/h (4 Bft) 96,92 %
08.07.2017 13:32 29,2 C 25,6 C 42 % 1014,3 hPa 0,0 l/m 14,2 km/h (3 Bft) W 273 0 min 0,000 mm 3,3 UV-I 282 W/m 14,9 C 28,5 C 25,7 km/h (4 Bft) 97,37 %
08.07.2017 13:34 29,1 C 25,6 C 42 % 1014,3 hPa 0,0 l/m 14,2 km/h (3 Bft) W 274 2 min 0,000 mm 5,5 UV-I 573 W/m 14,9 C 28,3 C 27,4 km/h (4 Bft) 97,87 %
08.07.2017 13:36 29,2 C 25,6 C 43 % 1014,3 hPa 0,0 l/m 10,3 km/h (2 Bft) SW 231 2 min 0,000 mm 6,4 UV-I 937 W/m 15,3 C 28,8 C 17,7 km/h (3 Bft) 97,87 %
08.07.2017 13:38 29,5 C 25,6 C 42 % 1014,3 hPa 0,0 l/m 13,6 km/h (3 Bft) W-SW 254 2 min 0,000 mm 6,7 UV-I 922 W/m 15,2 C 28,9 C 25,7 km/h (4 Bft) 97,87 %
08.07.2017 13:40 29,7 C 25,6 C 42 % 1014,3 hPa 0,0 l/m 17,2 km/h (3 Bft) SW 236 2 min 0,000 mm 6,7 UV-I 920 W/m 15,4 C 28,9 C 24,1 km/h (4 Bft) 100,00 %
08.07.2017 13:42 29,8 C 25,6 C 42 % 1014,3 hPa 0,0 l/m 13,8 km/h (3 Bft) W 269 2 min 0,000 mm 6,7 UV-I 911 W/m 15,5 C 29,2 C 22,5 km/h (4 Bft) 100,00 %
08.07.2017 13:44 29,9 C 25,6 C 40 % 1014,2 hPa 0,0 l/m 15,9 km/h (3 Bft) W-NW 286 2 min 0,000 mm 6,7 UV-I 920 W/m 14,8 C 29,2 C 24,1 km/h (4 Bft) 100,00 %
08.07.2017 13:46 29,8 C 25,6 C 41 % 1014,3 hPa 0,0 l/m 11,0 km/h (2 Bft) W-SW 257 2 min 0,000 mm 6,6 UV-I 953 W/m 15,1 C 29,4 C 17,7 km/h (3 Bft) 97,87 %
08.07.2017 13:48 29,9 C 25,6 C 40 % 1014,2 hPa 0,0 l/m 6,3 km/h (2 Bft) W 270 2 min 0,000 mm 6,1 UV-I 932 W/m 14,8 C 29,9 C 14,5 km/h (3 Bft) 100,00 %
08.07.2017 13:50 29,9 C 25,6 C 40 % 1014,3 hPa 0,0 l/m 14,1 km/h (3 Bft) W-SW 238 2 min 0,000 mm 6,5 UV-I 943 W/m 14,8 C 29,3 C 24,1 km/h (4 Bft) 100,00 %
08.07.2017 13:52 29,9 C 25,6 C 38 % 1014,3 hPa 0,0 l/m 17,2 km/h (3 Bft) W 274 2 min 0,000 mm 6,6 UV-I 979 W/m 14,0 C 29,1 C 24,1 km/h (4 Bft) 100,00 %
08.07.2017 13:54 30,0 C 25,6 C 38 % 1014,2 hPa 0,0 l/m 12,8 km/h (3 Bft) W-SW 246 2 min 0,000 mm 6,7 UV-I 986 W/m 14,1 C 29,5 C 20,9 km/h (4 Bft) 97,37 %
08.07.2017 13:56 30,0 C 25,6 C 37 % 1014,1 hPa 0,0 l/m 18,3 km/h (3 Bft) W 281 2 min 0,000 mm 6,7 UV-I 983 W/m 13,7 C 29,2 C 29,0 km/h (5 Bft) 100,00 %
08.07.2017 13:58 30,1 C 25,6 C 38 % 1014,1 hPa 0,0 l/m 16,8 km/h (3 Bft) W 267 2 min 0,000 mm 6,7 UV-I 958 W/m 14,2 C 29,4 C 24,1 km/h (4 Bft) 100,00 %
08.07.2017 14:00 30,2 C 25,6 C 37 % 1014,1 hPa 0,0 l/m 11,0 km/h (2 Bft) N-NW 329 2 min 0,000 mm 6,5 UV-I 939 W/m 13,9 C 29,8 C 22,5 km/h (4 Bft) 100,00 %
08.07.2017 14:02 30,4 C 25,6 C 38 % 1014,0 hPa 0,0 l/m 9,8 km/h (2 Bft) S 190 2 min 0,635 mm 6,5 UV-I 931 W/m 14,5 C 30,1 C 17,7 km/h (3 Bft) 100,00 %
08.07.2017 14:04 30,5 C 25,6 C 38 % 1014,1 hPa 0,0 l/m 6,6 km/h (2 Bft) W-SW 240 2 min 0,000 mm 5,3 UV-I 916 W/m 14,5 C 30,5 C 20,9 km/h (4 Bft) 100,00 %
08.07.2017 14:06 30,5 C 25,6 C 38 % 1014,1 hPa 0,0 l/m 15,3 km/h (3 Bft) NW 305 0 min 0,000 mm 5,1 UV-I 395 W/m 14,5 C 30,0 C 24,1 km/h (4 Bft) 100,00 %
08.07.2017 14:08 30,4 C 25,6 C 38 % 1014,1 hPa 0,0 l/m 9,1 km/h (2 Bft) SW 218 2 min 0,000 mm 6,3 UV-I 973 W/m 14,5 C 30,2 C 17,7 km/h (3 Bft) 100,00 %
08.07.2017 14:10 30,4 C 25,6 C 37 % 1014,0 hPa 0,0 l/m 14,1 km/h (3 Bft) W-SW 241 2 min 0,000 mm 6,4 UV-I 986 W/m 14,0 C 29,9 C 29,0 km/h (5 Bft) 97,44 %
08.07.2017 14:12 30,6 C 25,6 C 37 % 1014,1 hPa 0,0 l/m 19,5 km/h (3 Bft) W-SW 250 2 min 0,000 mm 6,4 UV-I 984 W/m 14,2 C 29,9 C 30,6 km/h (5 Bft) 100,00 %
08.07.2017 14:14 30,7 C 25,6 C 36 % 1014,0 hPa 0,0 l/m 18,4 km/h (3 Bft) W 263 2 min 0,000 mm 6,3 UV-I 989 W/m 13,9 C 30,1 C 29,0 km/h (5 Bft) 100,00 %
08.07.2017 14:16 30,7 C 25,6 C 36 % 1014,0 hPa 0,0 l/m 9,5 km/h (2 Bft) SW 232 2 min 0,000 mm 6,3 UV-I 1000 W/m 13,9 C 30,5 C 16,1 km/h (3 Bft) 100,00 %
08.07.2017 14:18 30,8 C 25,6 C 34 % 1013,9 hPa 0,0 l/m 18,1 km/h (3 Bft) W 260 2 min 0,000 mm 6,0 UV-I 1016 W/m 13,1 C 30,2 C 33,8 km/h (5 Bft) 100,00 %
08.07.2017 14:20 30,7 C 26,1 C 35 % 1014,0 hPa 0,0 l/m 20,1 km/h (4 Bft) SW 226 2 min 0,000 mm 4,8 UV-I 484 W/m 13,5 C 30,0 C 29,0 km/h (5 Bft) 98,00 %
08.07.2017 14:22 30,5 C 26,1 C 35 % 1014,0 hPa 0,0 l/m 14,6 km/h (3 Bft) SW 231 2 min 0,000 mm 5,2 UV-I 662 W/m 13,3 C 30,0 C 25,7 km/h (4 Bft) 100,00 %
08.07.2017 14:24 30,6 C 26,1 C 36 % 1014,0 hPa 0,0 l/m 12,7 km/h (3 Bft) W-NW 283 2 min 0,000 mm 6,0 UV-I 962 W/m 13,8 C 30,2 C 22,5 km/h (4 Bft) 100,00 %
08.07.2017 14:26 30,6 C 26,1 C 36 % 1014,0 hPa 0,0 l/m 18,2 km/h (3 Bft) W-SW 258 2 min 0,000 mm 5,2 UV-I 934 W/m 13,8 C 30,0 C 30,6 km/h (5 Bft) 100,00 %
08.07.2017 14:28 30,4 C 26,1 C 35 % 1014,0 hPa 0,0 l/m 17,0 km/h (3 Bft) W-SW 245 2 min 0,000 mm 3,2 UV-I 568 W/m 13,2 C 29,8 C 30,6 km/h (5 Bft) 100,00 %
08.07.2017 14:30 30,1 C 26,1 C 35 % 1014,0 hPa 0,0 l/m 15,5 km/h (3 Bft) W-SW 240 0 min 0,000 mm 3,5 UV-I 186 W/m 12,9 C 29,5 C 25,7 km/h (4 Bft) 100,00 %
08.07.2017 14:32 29,9 C 26,1 C 37 % 1013,9 hPa 0,0 l/m 13,2 km/h (3 Bft) W 269 2 min 0,000 mm 5,9 UV-I 488 W/m 13,6 C 29,4 C 17,7 km/h (3 Bft) 98,00 %
08.07.2017 14:34 30,0 C 26,1 C 40 % 1014,0 hPa 0,0 l/m 15,2 km/h (3 Bft) SW 232 2 min 0,000 mm 5,0 UV-I 878 W/m 14,9 C 29,4 C 24,1 km/h (4 Bft) 100,00 %
08.07.2017 14:36 29,8 C 26,1 C 43 % 1014,0 hPa 0,0 l/m 16,6 km/h (3 Bft) SW 219 0 min 0,000 mm 4,9 UV-I 294 W/m 15,8 C 29,0 C 27,4 km/h (4 Bft) 100,00 %
08.07.2017 14:38 29,8 C 26,1 C 44 % 1013,9 hPa 0,0 l/m 14,0 km/h (3 Bft) S-SW 197 0 min 0,000 mm 5,4 UV-I 294 W/m 16,2 C 29,2 C 30,6 km/h (5 Bft) 100,00 %
08.07.2017 14:40 29,8 C 26,1 C 44 % 1013,9 hPa 0,0 l/m 19,3 km/h (3 Bft) W-SW 246 0 min 0,000 mm 5,4 UV-I 294 W/m 16,2 C 28,9 C 25,7 km/h (4 Bft) 100,00 %
08.07.2017 14:42 29,8 C 26,1 C 43 % 1013,8 hPa 0,0 l/m 15,7 km/h (3 Bft) W-SW 254 0 min 0,000 mm 4,1 UV-I 294 W/m 15,8 C 29,1 C 20,9 km/h (4 Bft) 97,87 %
08.07.2017 14:44 29,7 C 26,1 C 43 % 1013,8 hPa 0,0 l/m 19,9 km/h (4 Bft) SW 223 2 min 0,000 mm 5,5 UV-I 610 W/m 15,8 C 28,7 C 30,6 km/h (5 Bft) 100,00 %
08.07.2017 14:46 29,7 C 26,1 C 43 % 1013,7 hPa 0,0 l/m 18,1 km/h (3 Bft) W-SW 249 2 min 0,000 mm 5,0 UV-I 1048 W/m 15,8 C 28,8 C 32,2 km/h (5 Bft) 100,00 %
08.07.2017 14:48 29,9 C 26,1 C 41 % 1013,7 hPa 0,0 l/m 17,9 km/h (3 Bft) SW 226 2 min 0,000 mm 4,7 UV-I 1017 W/m 15,2 C 29,1 C 29,0 km/h (5 Bft) 100,00 %
08.07.2017 14:50 29,8 C 26,1 C 42 % 1013,6 hPa 0,0 l/m 16,6 km/h (3 Bft) SW 225 0 min 0,000 mm 3,6 UV-I 442 W/m 15,5 C 29,0 C 30,6 km/h (5 Bft) 97,87 %
08.07.2017 14:52 29,7 C 26,1 C 43 % 1013,7 hPa 0,0 l/m 16,6 km/h (3 Bft) SW 227 0 min 0,000 mm 4,7 UV-I 323 W/m 15,8 C 28,9 C 33,8 km/h (5 Bft) 95,74 %
08.07.2017 14:54 29,7 C 26,1 C 43 % 1013,7 hPa 0,0 l/m 17,9 km/h (3 Bft) S-SW 212 0 min 0,000 mm 4,0 UV-I 337 W/m 15,8 C 28,8 C 24,1 km/h (4 Bft) 98,00 %
08.07.2017 14:56 29,6 C 26,1 C 43 % 1013,7 hPa 0,0 l/m 20,8 km/h (4 Bft) S-SW 202 0 min 0,000 mm 3,6 UV-I 322 W/m 15,7 C 28,6 C 27,4 km/h (4 Bft) 96,00 %
08.07.2017 14:58 29,4 C 26,1 C 43 % 1013,5 hPa 0,0 l/m 20,1 km/h (4 Bft) W 260 0 min 0,000 mm 3,5 UV-I 313 W/m 15,5 C 28,3 C 32,2 km/h (5 Bft) 97,87 %
08.07.2017 15:00 29,5 C 26,1 C 44 % 1013,6 hPa 0,0 l/m 16,9 km/h (3 Bft) W 261 0 min 0,660 mm 3,6 UV-I 313 W/m 15,9 C 28,6 C 22,5 km/h (4 Bft) 97,87 %
08.07.2017 15:02 29,7 C 26,1 C 44 % 1013,5 hPa 0,0 l/m 13,8 km/h (3 Bft) W 272 2 min 0,000 mm 4,8 UV-I 604 W/m 16,1 C 29,1 C 22,5 km/h (4 Bft) 97,87 %
08.07.2017 15:04 29,8 C 26,1 C 42 % 1013,5 hPa 0,0 l/m 18,3 km/h (3 Bft) W 263 2 min 0,000 mm 3,6 UV-I 874 W/m 15,5 C 28,9 C 27,4 km/h (4 Bft) 97,87 %
08.07.2017 15:06 29,8 C 26,1 C 42 % 1013,4 hPa 0,0 l/m 19,7 km/h (3 Bft) SW 221 0 min 0,000 mm 2,5 UV-I 269 W/m 15,5 C 28,9 C 30,6 km/h (5 Bft) 89,36 %
08.07.2017 15:08 29,6 C 26,1 C 43 % 1013,5 hPa 0,0 l/m 20,7 km/h (4 Bft) SW 219 0 min 0,000 mm 2,2 UV-I 256 W/m 15,7 C 28,6 C 29,0 km/h (5 Bft) 95,74 %
08.07.2017 15:10 29,4 C 26,1 C 43 % 1013,4 hPa 0,0 l/m 21,9 km/h (4 Bft) SW 232 0 min 0,000 mm 3,1 UV-I 265 W/m 15,5 C 28,3 C 35,4 km/h (5 Bft) 97,37 %
08.07.2017 15:12 29,3 C 26,1 C 44 % 1013,5 hPa 0,0 l/m 20,4 km/h (4 Bft) S-SW 202 0 min 0,000 mm 2,4 UV-I 255 W/m 15,8 C 28,2 C 29,0 km/h (5 Bft) 95,74 %
08.07.2017 15:14 29,2 C 26,1 C 44 % 1013,4 hPa 0,0 l/m 18,6 km/h (3 Bft) W-SW 250 0 min 0,000 mm 2,2 UV-I 257 W/m 15,7 C 28,2 C 24,1 km/h (4 Bft) 93,62 %
08.07.2017 15:16 29,0 C 26,1 C 44 % 1013,4 hPa 0,0 l/m 19,3 km/h (3 Bft) S-SW 213 0 min 0,000 mm 2,5 UV-I 289 W/m 15,5 C 27,9 C 33,8 km/h (5 Bft) 93,62 %
08.07.2017 15:18 29,0 C 26,1 C 46 % 1013,5 hPa 0,0 l/m 18,5 km/h (3 Bft) W-SW 244 0 min 0,000 mm 3,4 UV-I 295 W/m 16,2 C 27,9 C 32,2 km/h (5 Bft) 94,00 %
08.07.2017 15:20 28,9 C 26,1 C 45 % 1013,4 hPa 0,0 l/m 16,7 km/h (3 Bft) W-SW 252 0 min 0,000 mm 2,8 UV-I 295 W/m 15,8 C 27,9 C 27,4 km/h (4 Bft) 95,74 %
08.07.2017 15:22 29,1 C 26,1 C 46 % 1013,4 hPa 0,0 l/m 12,5 km/h (3 Bft) S-SW 207 0 min 0,000 mm 3,3 UV-I 295 W/m 16,3 C 28,5 C 24,1 km/h (4 Bft) 93,62 %
08.07.2017 15:24 29,2 C 26,1 C 46 % 1013,4 hPa 0,0 l/m 14,8 km/h (3 Bft) SO 144 2 min 0,000 mm 4,8 UV-I 506 W/m 16,4 C 28,4 C 27,4 km/h (4 Bft) 93,75 %
08.07.2017 15:26 29,4 C 26,1 C 45 % 1013,4 hPa 0,0 l/m 21,8 km/h (4 Bft) S-SO 158 2 min 0,000 mm 4,1 UV-I 912 W/m 16,2 C 28,3 C 30,6 km/h (5 Bft) 95,74 %
08.07.2017 15:28 29,6 C 26,1 C 45 % 1013,4 hPa 0,0 l/m 12,3 km/h (3 Bft) SW 219 2 min 0,000 mm 3,7 UV-I 941 W/m 16,4 C 29,1 C 20,9 km/h (4 Bft) 92,00 %
08.07.2017 15:30 29,8 C 26,1 C 45 % 1013,3 hPa 0,0 l/m 15,9 km/h (3 Bft) SW 215 2 min 0,000 mm 3,7 UV-I 962 W/m 16,6 C 29,1 C 22,5 km/h (4 Bft) 94,00 %
08.07.2017 15:32 29,9 C 26,1 C 45 % 1013,4 hPa 0,0 l/m 14,2 km/h (3 Bft) S 178 2 min 0,000 mm 2,7 UV-I 962 W/m 16,7 C 29,3 C 20,9 km/h (4 Bft) 91,43 %
08.07.2017 15:34 29,7 C 26,1 C 45 % 1013,4 hPa 0,0 l/m 15,2 km/h (3 Bft) S-SW 209 2 min 0,000 mm 2,2 UV-I 811 W/m 16,5 C 29,0 C 24,1 km/h (4 Bft) 91,49 %
08.07.2017 15:36 29,4 C 26,1 C 45 % 1013,2 hPa 0,0 l/m 16,6 km/h (3 Bft) W-SW 241 0 min 0,000 mm 2,0 UV-I 232 W/m 16,2 C 28,5 C 24,1 km/h (4 Bft) 92,00 %
08.07.2017 15:38 29,2 C 26,1 C 46 % 1013,3 hPa 0,0 l/m 18,3 km/h (3 Bft) W-SW 238 0 min 0,000 mm 2,0 UV-I 266 W/m 16,4 C 28,2 C 29,0 km/h (5 Bft) 94,00 %
08.07.2017 15:40 29,2 C 26,1 C 47 % 1013,2 hPa 0,0 l/m 15,2 km/h (3 Bft) W 266 2 min 0,000 mm 3,3 UV-I 458 W/m 16,7 C 28,4 C 22,5 km/h (4 Bft) 96,00 %
08.07.2017 15:42 29,5 C 26,1 C 45 % 1013,2 hPa 0,0 l/m 17,6 km/h (3 Bft) SW 229 2 min 0,000 mm 4,1 UV-I 972 W/m 16,3 C 28,6 C 38,6 km/h (5 Bft) 93,62 %
08.07.2017 15:44 29,7 C 26,1 C 44 % 1013,0 hPa 0,0 l/m 19,7 km/h (3 Bft) S-SO 159 2 min 0,000 mm 3,3 UV-I 974 W/m 16,1 C 28,8 C 32,2 km/h (5 Bft) 95,74 %
08.07.2017 15:46 29,9 C 26,1 C 43 % 1013,0 hPa 0,0 l/m 13,7 km/h (3 Bft) W-SW 238 2 min 0,000 mm 3,8 UV-I 864 W/m 15,9 C 29,3 C 25,7 km/h (4 Bft) 97,87 %
08.07.2017 15:48 30,0 C 26,1 C 42 % 1013,1 hPa 0,0 l/m 19,4 km/h (3 Bft) W-SW 242 2 min 0,000 mm 3,0 UV-I 426 W/m 15,7 C 29,2 C 29,0 km/h (5 Bft) 97,87 %
08.07.2017 15:50 29,9 C 26,1 C 42 % 1013,1 hPa 0,0 l/m 17,9 km/h (3 Bft) W-SW 245 0 min 0,000 mm 2,7 UV-I 325 W/m 15,6 C 29,1 C 25,7 km/h (4 Bft) 92,11 %
08.07.2017 15:52 29,9 C 26,1 C 42 % 1013,1 hPa 0,0 l/m 15,6 km/h (3 Bft) W-SW 239 0 min 0,000 mm 3,3 UV-I 350 W/m 15,6 C 29,2 C 25,7 km/h (4 Bft) 95,74 %
08.07.2017 15:54 29,9 C 26,1 C 41 % 1013,1 hPa 0,0 l/m 13,5 km/h (3 Bft) W-SW 258 0 min 0,000 mm 2,7 UV-I 339 W/m 15,2 C 29,3 C 24,1 km/h (4 Bft) 93,62 %
08.07.2017 15:56 29,9 C 26,1 C 40 % 1013,1 hPa 0,0 l/m 15,1 km/h (3 Bft) SW 234 0 min 0,000 mm 2,5 UV-I 358 W/m 14,8 C 29,2 C 22,5 km/h (4 Bft) 95,74 %
08.07.2017 15:58 29,8 C 26,1 C 41 % 1013,1 hPa 0,0 l/m 8,4 km/h (2 Bft) SW 225 2 min 0,000 mm 2,4 UV-I 523 W/m 15,1 C 29,6 C 12,9 km/h (3 Bft) 97,87 %
08.07.2017 16:00 29,8 C 26,1 C 41 % 1013,0 hPa 0,0 l/m 12,4 km/h (3 Bft) W 269 0 min 0,483 mm 1,8 UV-I 270 W/m 15,1 C 29,3 C 17,7 km/h (3 Bft) 100,00 %
08.07.2017 16:02 29,7 C 26,1 C 40 % 1013,0 hPa 0,0 l/m 7,6 km/h (2 Bft) S-SW 208 0 min 0,000 mm 2,0 UV-I 289 W/m 14,6 C 29,6 C 14,5 km/h (3 Bft) 100,00 %
08.07.2017 16:04 29,7 C 26,1 C 41 % 1012,9 hPa 0,0 l/m 11,4 km/h (2 Bft) W-SW 237 0 min 0,000 mm 3,4 UV-I 295 W/m 15,0 C 29,2 C 17,7 km/h (3 Bft) 100,00 %
08.07.2017 16:06 29,9 C 26,1 C 41 % 1013,0 hPa 0,0 l/m 6,2 km/h (2 Bft) W-SW 247 2 min 0,000 mm 3,6 UV-I 788 W/m 15,2 C 29,9 C 12,9 km/h (3 Bft) 96,00 %
08.07.2017 16:08 30,2 C 26,1 C 40 % 1013,0 hPa 0,0 l/m 20,0 km/h (4 Bft) SW 230 2 min 0,000 mm 2,6 UV-I 578 W/m 15,1 C 29,4 C 27,4 km/h (4 Bft) 96,00 %
08.07.2017 16:10 30,3 C 26,1 C 39 % 1012,9 hPa 0,0 l/m 16,7 km/h (3 Bft) W 271 0 min 0,000 mm 3,0 UV-I 320 W/m 14,8 C 29,6 C 24,1 km/h (4 Bft) 100,00 %
08.07.2017 16:12 30,2 C 26,1 C 38 % 1013,0 hPa 0,0 l/m 21,2 km/h (4 Bft) W-SW 244 0 min 0,000 mm 2,3 UV-I 312 W/m 14,3 C 29,3 C 35,4 km/h (5 Bft) 95,83 %
08.07.2017 16:14 30,3 C 26,1 C 39 % 1012,9 hPa 0,0 l/m 12,1 km/h (2 Bft) SW 232 2 min 0,000 mm 2,7 UV-I 572 W/m 14,8 C 29,9 C 17,7 km/h (3 Bft) 97,87 %
08.07.2017 16:16 30,3 C 26,1 C 39 % 1013,0 hPa 0,0 l/m 10,6 km/h (2 Bft) W 278 2 min 0,000 mm 3,0 UV-I 767 W/m 14,8 C 30,0 C 17,7 km/h (3 Bft) 97,87 %
08.07.2017 16:18 30,5 C 26,1 C 39 % 1013,0 hPa 0,0 l/m 8,1 km/h (2 Bft) NO 55 2 min 0,000 mm 2,9 UV-I 775 W/m 15,0 C 30,4 C 14,5 km/h (3 Bft) 100,00 %
08.07.2017 16:20 30,6 C 26,1 C 39 % 1013,1 hPa 0,0 l/m 5,3 km/h (1 Bft) N-NO 14 2 min 0,000 mm 2,2 UV-I 775 W/m 15,0 C 30,6 C 12,9 km/h (3 Bft) 97,83 %
08.07.2017 16:22 29,9 C 26,1 C 41 % 1013,0 hPa 0,0 l/m 3,6 km/h (1 Bft) NW 323 2 min 0,000 mm 2,8 UV-I 775 W/m 15,2 C 29,9 C 11,3 km/h (2 Bft) 100,00 %
08.07.2017 16:24 29,7 C 26,1 C 43 % 1012,9 hPa 0,0 l/m 3,1 km/h (1 Bft) NW 324 2 min 0,000 mm 3,0 UV-I 766 W/m 15,8 C 29,7 C 8,0 km/h (2 Bft) 97,87 %
08.07.2017 16:26 29,4 C 26,1 C 43 % 1012,9 hPa 0,0 l/m 2,9 km/h (1 Bft) W-NW 286 0 min 0,000 mm 2,3 UV-I 242 W/m 15,5 C 29,4 C 6,4 km/h (2 Bft) 95,74 %
08.07.2017 16:28 29,1 C 26,1 C 44 % 1012,8 hPa 0,0 l/m 4,0 km/h (1 Bft) NO 49 0 min 0,000 mm 2,1 UV-I 254 W/m 15,6 C 29,1 C 8,0 km/h (2 Bft) 97,87 %
08.07.2017 16:30 28,8 C 26,1 C 44 % 1012,8 hPa 0,0 l/m 7,4 km/h (2 Bft) N-NO 19 0 min 0,000 mm 2,4 UV-I 312 W/m 15,3 C 28,7 C 16,1 km/h (3 Bft) 100,00 %
08.07.2017 16:32 28,6 C 26,1 C 45 % 1012,7 hPa 0,0 l/m 9,0 km/h (2 Bft) N 9 0 min 0,000 mm 2,5 UV-I 302 W/m 15,5 C 28,3 C 22,5 km/h (4 Bft) 97,92 %
08.07.2017 16:34 28,8 C 26,1 C 46 % 1012,7 hPa 0,0 l/m 7,7 km/h (2 Bft) N-NO 27 0 min 0,000 mm 2,5 UV-I 309 W/m 16,0 C 28,6 C 16,1 km/h (3 Bft) 100,00 %
08.07.2017 16:36 28,7 C 26,1 C 44 % 1012,7 hPa 0,0 l/m 10,0 km/h (2 Bft) N-NO 29 0 min 0,000 mm 2,2 UV-I 308 W/m 15,2 C 28,3 C 16,1 km/h (3 Bft) 97,87 %
08.07.2017 16:38 28,7 C 26,1 C 44 % 1012,7 hPa 0,0 l/m 7,4 km/h (2 Bft) N-NO 18 2 min 0,000 mm 2,5 UV-I 370 W/m 15,2 C 28,6 C 12,9 km/h (3 Bft) 98,00 %
08.07.2017 16:40 28,8 C 26,1 C 46 % 1012,7 hPa 0,0 l/m 7,9 km/h (2 Bft) NO 55 2 min 0,000 mm 2,9 UV-I 494 W/m 16,0 C 28,6 C 11,3 km/h (2 Bft) 95,74 %
08.07.2017 16:42 29,1 C 26,1 C 47 % 1012,7 hPa 0,0 l/m 11,1 km/h (2 Bft) N-NO 26 2 min 0,000 mm 2,7 UV-I 784 W/m 16,6 C 28,6 C 16,1 km/h (3 Bft) 95,74 %
08.07.2017 16:44 28,9 C 26,1 C 47 % 1012,7 hPa 0,0 l/m 6,2 km/h (2 Bft) NO 46 0 min 0,000 mm 2,2 UV-I 274 W/m 16,4 C 28,9 C 9,7 km/h (2 Bft) 100,00 %
08.07.2017 16:46 28,7 C 26,1 C 46 % 1012,7 hPa 0,0 l/m 6,3 km/h (2 Bft) O-NO 59 0 min 0,000 mm 2,1 UV-I 248 W/m 15,9 C 28,7 C 9,7 km/h (2 Bft) 98,00 %
08.07.2017 16:48 28,6 C 26,1 C 46 % 1012,7 hPa 0,0 l/m 7,4 km/h (2 Bft) NO 34 0 min 0,000 mm 1,9 UV-I 274 W/m 15,8 C 28,5 C 9,7 km/h (2 Bft) 98,00 %
08.07.2017 16:50 28,4 C 26,1 C 46 % 1012,7 hPa 0,0 l/m 5,4 km/h (1 Bft) N-NO 25 0 min 0,000 mm 1,5 UV-I 228 W/m 15,6 C 28,4 C 8,0 km/h (2 Bft) 95,74 %
08.07.2017 16:52 28,2 C 26,1 C 45 % 1012,8 hPa 0,0 l/m 7,4 km/h (2 Bft) N-NO 30 0 min 0,000 mm 1,3 UV-I 204 W/m 15,1 C 28,0 C 9,7 km/h (2 Bft) 98,00 %
08.07.2017 16:54 28,1 C 26,1 C 47 % 1012,8 hPa 0,0 l/m 5,9 km/h (2 Bft) N-NO 30 0 min 0,000 mm 1,1 UV-I 174 W/m 15,7 C 28,1 C 8,0 km/h (2 Bft) 100,00 %
08.07.2017 16:56 28,0 C 26,1 C 47 % 1012,8 hPa 0,0 l/m 3,8 km/h (1 Bft) N-NO 33 0 min 0,000 mm 0,9 UV-I 145 W/m 15,6 C 28,0 C 4,8 km/h (1 Bft) 95,74 %
08.07.2017 16:58 27,9 C 26,1 C 46 % 1012,8 hPa 0,0 l/m 3,9 km/h (1 Bft) NO 34 0 min 0,000 mm 0,8 UV-I 129 W/m 15,2 C 27,9 C 6,4 km/h (2 Bft) 95,74 %
08.07.2017 17:00 27,8 C 26,1 C 46 % 1012,8 hPa 0,0 l/m 6,0 km/h (2 Bft) N-NO 28 0 min 0,356 mm 0,7 UV-I 116 W/m 15,1 C 27,8 C 8,0 km/h (2 Bft) 97,87 %
08.07.2017 17:02 27,7 C 26,1 C 47 % 1012,8 hPa 0,0 l/m 5,3 km/h (1 Bft) NO 34 0 min 0,000 mm 0,5 UV-I 101 W/m 15,3 C 27,7 C 6,4 km/h (2 Bft) 97,87 %
08.07.2017 17:04 27,7 C 26,1 C 47 % 1012,9 hPa 0,0 l/m 1,7 km/h (1 Bft) N-NO 21 0 min 0,000 mm 0,5 UV-I 97 W/m 15,3 C 27,7 C 6,4 km/h (2 Bft) 95,74 %
08.07.2017 17:06 27,6 C 26,1 C 49 % 1013,0 hPa 0,0 l/m 0,6 km/h (0 Bft) N 9 0 min 0,000 mm 0,5 UV-I 97 W/m 15,9 C 27,6 C 3,2 km/h (1 Bft) 95,74 %
08.07.2017 17:08 27,6 C 26,1 C 48 % 1013,5 hPa 0,0 l/m 5,0 km/h (1 Bft) N 9 0 min 0,000 mm 0,0 UV-I 97 W/m 15,6 C 27,6 C 16,1 km/h (3 Bft) 97,87 %
08.07.2017 17:10 27,3 C 26,1 C 49 % 1013,4 hPa 0,0 l/m 11,6 km/h (2 Bft) N 5 0 min 0,000 mm 0,0 UV-I 98 W/m 15,6 C 26,5 C 19,3 km/h (3 Bft) 93,62 %
08.07.2017 17:12 26,8 C 26,1 C 51 % 1013,5 hPa 0,0 l/m 12,1 km/h (2 Bft) N-NO 28 0 min 0,000 mm 0,0 UV-I 96 W/m 15,8 C 25,8 C 22,5 km/h (4 Bft) 88,57 %
08.07.2017 17:14 26,1 C 26,1 C 53 % 1013,5 hPa 0,0 l/m 10,4 km/h (2 Bft) W 263 0 min 0,000 mm 0,0 UV-I 88 W/m 15,8 C 25,3 C 22,5 km/h (4 Bft) 90,57 %
08.07.2017 17:16 25,4 C 26,1 C 55 % 1013,6 hPa 0,0 l/m 7,3 km/h (2 Bft) NO 40 0 min 0,000 mm 0,0 UV-I 82 W/m 15,7 C 25,2 C 16,1 km/h (3 Bft) 93,62 %
08.07.2017 17:18 24,9 C 26,1 C 57 % 1013,6 hPa 0,0 l/m 8,9 km/h (2 Bft) N-NW 340 0 min 0,000 mm 0,0 UV-I 77 W/m 15,8 C 24,3 C 22,5 km/h (4 Bft) 93,62 %
08.07.2017 17:20 24,5 C 26,1 C 58 % 1013,7 hPa 0,0 l/m 6,2 km/h (2 Bft) N 350 0 min 0,000 mm 0,0 UV-I 71 W/m 15,7 C 24,5 C 19,3 km/h (3 Bft) 94,00 %
08.07.2017 17:22 24,2 C 26,1 C 60 % 1013,7 hPa 0,0 l/m 7,2 km/h (2 Bft) N 355 0 min 0,000 mm 0,0 UV-I 70 W/m 15,9 C 24,0 C 14,5 km/h (3 Bft) 95,83 %
08.07.2017 17:24 23,9 C 26,1 C 62 % 1013,7 hPa 0,0 l/m 4,4 km/h (1 Bft) NW 313 0 min 0,000 mm 0,0 UV-I 69 W/m 16,2 C 23,9 C 9,7 km/h (2 Bft) 93,62 %
08.07.2017 17:26 23,7 C 26,1 C 63 % 1013,7 hPa 0,0 l/m 5,8 km/h (2 Bft) W-NW 300 0 min 0,000 mm 0,0 UV-I 63 W/m 16,2 C 23,7 C 14,5 km/h (3 Bft) 97,87 %
08.07.2017 17:28 23,5 C 26,1 C 64 % 1013,6 hPa 0,0 l/m 3,4 km/h (1 Bft) N-NO 30 0 min 0,000 mm 0,0 UV-I 55 W/m 16,3 C 23,5 C 8,0 km/h (2 Bft) 97,87 %
08.07.2017 17:30 23,3 C 26,1 C 66 % 1013,5 hPa 0,0 l/m 2,0 km/h (1 Bft) N 355 0 min 0,000 mm 0,0 UV-I 46 W/m 16,6 C 23,3 C 3,2 km/h (1 Bft) 89,36 %
08.07.2017 17:32 23,2 C 26,1 C 66 % 1013,5 hPa 0,0 l/m 2,4 km/h (1 Bft) NW 311 0 min 0,000 mm 0,0 UV-I 40 W/m 16,5 C 23,2 C 4,8 km/h (1 Bft) 97,87 %
08.07.2017 17:34 23,1 C 26,1 C 67 % 1013,6 hPa 0,0 l/m 2,4 km/h (1 Bft) N-NO 19 0 min 0,000 mm 0,0 UV-I 34 W/m 16,6 C 23,1 C 4,8 km/h (1 Bft) 94,74 %
08.07.2017 17:36 22,9 C 26,1 C 67 % 1013,5 hPa 0,0 l/m 3,2 km/h (1 Bft) NW 326 0 min 0,000 mm 0,0 UV-I 31 W/m 16,4 C 22,9 C 6,4 km/h (2 Bft) 100,00 %
08.07.2017 17:38 22,8 C 26,1 C 68 % 1013,4 hPa 0,0 l/m 2,7 km/h (1 Bft) N-NW 348 0 min 0,000 mm 0,0 UV-I 29 W/m 16,6 C 22,8 C 4,8 km/h (1 Bft) 100,00 %
08.07.2017 17:40 22,8 C 26,1 C 69 % 1013,4 hPa 0,0 l/m 3,8 km/h (1 Bft) N-NO 23 0 min 0,000 mm 0,0 UV-I 26 W/m 16,8 C 22,8 C 8,0 km/h (2 Bft) 93,62 %
08.07.2017 17:42 22,7 C 26,1 C 69 % 1013,5 hPa 0,0 l/m 2,6 km/h (1 Bft) N-NO 17 0 min 0,000 mm 0,0 UV-I 26 W/m 16,7 C 22,7 C 6,4 km/h (2 Bft) 96,00 %
08.07.2017 17:44 22,6 C 26,1 C 70 % 1013,7 hPa 0,0 l/m 1,1 km/h (1 Bft) N 9 0 min 0,000 mm 0,0 UV-I 25 W/m 16,8 C 22,6 C 4,8 km/h (1 Bft) 100,00 %
08.07.2017 17:46 22,6 C 26,1 C 71 % 1013,7 hPa 0,0 l/m 1,6 km/h (1 Bft) W-NW 301 0 min 0,000 mm 0,0 UV-I 25 W/m 17,1 C 22,6 C 6,4 km/h (2 Bft) 97,87 %
08.07.2017 17:48 22,5 C 26,1 C 72 % 1013,8 hPa 0,0 l/m 1,4 km/h (1 Bft) W-NW 301 0 min 0,000 mm 0,0 UV-I 25 W/m 17,2 C 22,5 C 3,2 km/h (1 Bft) 95,74 %
08.07.2017 17:50 22,4 C 26,1 C 75 % 1013,9 hPa 0,0 l/m 2,3 km/h (1 Bft) W 269 0 min 0,000 mm 0,0 UV-I 26 W/m 17,7 C 22,4 C 4,8 km/h (1 Bft) 100,00 %
08.07.2017 17:52 22,4 C 26,1 C 75 % 1013,9 hPa 0,0 l/m 6,2 km/h (2 Bft) W-SW 253 0 min 0,000 mm 0,0 UV-I 26 W/m 17,7 C 22,4 C 11,3 km/h (2 Bft) 94,00 %
08.07.2017 17:54 22,3 C 26,1 C 74 % 1014,1 hPa 0,0 l/m 11,7 km/h (2 Bft) W-SW 246 0 min 0,000 mm 0,0 UV-I 25 W/m 17,4 C 20,7 C 19,3 km/h (3 Bft) 100,00 %
08.07.2017 17:56 22,3 C 26,1 C 74 % 1014,2 hPa 0,0 l/m 12,9 km/h (3 Bft) SW 221 0 min 0,000 mm 0,0 UV-I 26 W/m 17,4 C 20,5 C 19,3 km/h (3 Bft) 96,00 %
08.07.2017 17:58 22,3 C 26,1 C 74 % 1014,1 hPa 0,0 l/m 8,5 km/h (2 Bft) SW 230 0 min 0,000 mm 0,0 UV-I 27 W/m 17,4 C 21,6 C 12,9 km/h (3 Bft) 100,00 %
08.07.2017 18:00 22,2 C 26,1 C 73 % 1014,1 hPa 0,0 l/m 10,8 km/h (2 Bft) SW 235 0 min 0,076 mm 0,0 UV-I 31 W/m 17,1 C 20,9 C 16,1 km/h (3 Bft) 98,00 %
08.07.2017 18:02 22,2 C 26,1 C 73 % 1014,1 hPa 0,0 l/m 8,3 km/h (2 Bft) W-SW 240 0 min 0,000 mm 0,0 UV-I 35 W/m 17,1 C 21,6 C 12,9 km/h (3 Bft) 95,74 %
08.07.2017 18:04 22,2 C 26,1 C 74 % 1014,1 hPa 0,0 l/m 6,1 km/h (2 Bft) W 277 0 min 0,000 mm 0,0 UV-I 42 W/m 17,3 C 22,2 C 8,0 km/h (2 Bft) 98,00 %
08.07.2017 18:06 22,1 C 26,1 C 74 % 1014,2 hPa 0,0 l/m 5,1 km/h (1 Bft) W 278 0 min 0,000 mm 0,0 UV-I 58 W/m 17,2 C 22,1 C 6,4 km/h (2 Bft) 97,14 %
08.07.2017 18:08 22,1 C 26,1 C 75 % 1014,1 hPa 0,0 l/m 1,9 km/h (1 Bft) W 278 0 min 0,000 mm 0,0 UV-I 106 W/m 17,5 C 22,1 C 4,8 km/h (1 Bft) 96,00 %
08.07.2017 18:10 22,1 C 26,1 C 75 % 1014,0 hPa 0,0 l/m 3,5 km/h (1 Bft) W-SW 248 0 min 0,000 mm 0,0 UV-I 86 W/m 17,5 C 22,1 C 6,4 km/h (2 Bft) 100,00 %
08.07.2017 18:12 22,1 C 26,1 C 75 % 1014,0 hPa 0,0 l/m 5,1 km/h (1 Bft) W-SW 241 0 min 0,000 mm 0,0 UV-I 92 W/m 17,5 C 22,1 C 6,4 km/h (2 Bft) 97,87 %
08.07.2017 18:14 22,2 C 26,1 C 75 % 1013,9 hPa 0,0 l/m 7,1 km/h (2 Bft) S 170 0 min 0,000 mm 0,0 UV-I 94 W/m 17,5 C 22,0 C 11,3 km/h (2 Bft) 97,87 %
08.07.2017 18:16 22,2 C 26,1 C 75 % 1013,9 hPa 0,0 l/m 3,4 km/h (1 Bft) S-SO 156 0 min 0,000 mm 0,0 UV-I 86 W/m 17,5 C 22,2 C 6,4 km/h (2 Bft) 97,96 %
08.07.2017 18:18 22,2 C 26,1 C 77 % 1013,9 hPa 0,0 l/m 4,5 km/h (1 Bft) S-SO 165 0 min 0,000 mm 0,0 UV-I 82 W/m 18,0 C 22,2 C 8,0 km/h (2 Bft) 97,37 %
08.07.2017 18:20 22,1 C 26,1 C 76 % 1013,8 hPa 0,0 l/m 3,7 km/h (1 Bft) S-SO 165 0 min 0,000 mm 0,0 UV-I 85 W/m 17,7 C 22,1 C 6,4 km/h (2 Bft) 96,77 %
08.07.2017 18:22 22,0 C 26,1 C 76 % 1013,9 hPa 0,0 l/m 4,1 km/h (1 Bft) S 182 0 min 0,000 mm 0,0 UV-I 93 W/m 17,6 C 22,0 C 6,4 km/h (2 Bft) 97,87 %
08.07.2017 18:24 22,0 C 26,1 C 77 % 1014,0 hPa 0,0 l/m 3,7 km/h (1 Bft) SW 234 0 min 0,000 mm 0,0 UV-I 93 W/m 17,8 C 22,0 C 4,8 km/h (1 Bft) 97,87 %
08.07.2017 18:26 22,0 C 26,1 C 77 % 1013,9 hPa 0,0 l/m 0,6 km/h (0 Bft) W-SW 243 0 min 0,000 mm 0,0 UV-I 86 W/m 17,8 C 22,0 C 3,2 km/h (1 Bft) 95,74 %
08.07.2017 18:28 22,0 C 26,1 C 77 % 1013,9 hPa 0,0 l/m 0,8 km/h (0 Bft) SW 235 0 min 0,000 mm 0,0 UV-I 84 W/m 17,8 C 22,0 C 3,2 km/h (1 Bft) 97,37 %
08.07.2017 18:30 21,9 C 26,1 C 76 % 1013,8 hPa 0,0 l/m 0,0 km/h (0 Bft) SW 235 0 min 0,000 mm 0,0 UV-I 81 W/m 17,5 C 21,9 C 0,0 km/h (0 Bft) 98,00 %
08.07.2017 18:32 22,0 C 26,1 C 77 % 1013,8 hPa 0,0 l/m 0,8 km/h (0 Bft) SW 224 0 min 0,000 mm 0,0 UV-I 76 W/m 17,8 C 22,0 C 1,6 km/h (1 Bft) 94,00 %
08.07.2017 18:34 22,0 C 26,1 C 77 % 1013,7 hPa 0,0 l/m 5,0 km/h (1 Bft) O-SO 118 0 min 0,000 mm 0,0 UV-I 71 W/m 17,8 C 22,0 C 6,4 km/h (2 Bft) 95,74 %
08.07.2017 18:36 21,9 C 26,1 C 77 % 1013,7 hPa 0,0 l/m 4,2 km/h (1 Bft) O-SO 119 0 min 0,000 mm 0,0 UV-I 67 W/m 17,7 C 21,9 C 6,4 km/h (2 Bft) 94,00 %
08.07.2017 18:38 21,9 C 26,1 C 77 % 1013,8 hPa 0,0 l/m 3,2 km/h (1 Bft) S 174 0 min 0,000 mm 0,0 UV-I 63 W/m 17,7 C 21,9 C 8,0 km/h (2 Bft) 94,44 %
08.07.2017 18:40 21,9 C 26,1 C 77 % 1013,6 hPa 0,0 l/m 2,6 km/h (1 Bft) S-SO 152 0 min 0,000 mm 0,0 UV-I 63 W/m 17,7 C 21,9 C 4,8 km/h (1 Bft) 94,00 %
08.07.2017 18:42 21,9 C 26,1 C 78 % 1013,6 hPa 0,0 l/m 3,4 km/h (1 Bft) S-SO 156 0 min 0,000 mm 0,0 UV-I 62 W/m 17,9 C 21,9 C 8,0 km/h (2 Bft) 95,74 %
08.07.2017 18:44 21,9 C 26,1 C 78 % 1013,7 hPa 0,0 l/m 0,6 km/h (0 Bft) S-SO 156 0 min 0,000 mm 0,0 UV-I 62 W/m 17,9 C 21,9 C 3,2 km/h (1 Bft) 93,62 %
08.07.2017 18:46 21,8 C 26,1 C 78 % 1013,6 hPa 0,0 l/m 3,4 km/h (1 Bft) S-SO 155 0 min 0,000 mm 0,0 UV-I 62 W/m 17,8 C 21,8 C 8,0 km/h (2 Bft) 95,74 %
08.07.2017 18:48 21,8 C 26,1 C 78 % 1013,6 hPa 0,0 l/m 3,6 km/h (1 Bft) S 173 0 min 0,000 mm 0,0 UV-I 65 W/m 17,8 C 21,8 C 8,0 km/h (2 Bft) 89,36 %
08.07.2017 18:50 21,8 C 26,1 C 78 % 1013,6 hPa 0,0 l/m 5,1 km/h (1 Bft) S 181 0 min 0,000 mm 0,0 UV-I 70 W/m 17,8 C 21,8 C 9,7 km/h (2 Bft) 93,62 %
08.07.2017 18:52 21,8 C 26,1 C 78 % 1013,6 hPa 0,0 l/m 5,8 km/h (2 Bft) S-SW 197 0 min 0,000 mm 0,0 UV-I 84 W/m 17,8 C 21,8 C 9,7 km/h (2 Bft) 96,00 %
08.07.2017 18:54 21,8 C 26,1 C 78 % 1013,6 hPa 0,0 l/m 6,6 km/h (2 Bft) S-SW 207 0 min 0,000 mm 0,0 UV-I 96 W/m 17,8 C 21,7 C 14,5 km/h (3 Bft) 93,62 %
08.07.2017 18:56 21,8 C 26,1 C 78 % 1013,6 hPa 0,0 l/m 7,4 km/h (2 Bft) S-SO 149 0 min 0,000 mm 0,0 UV-I 115 W/m 17,8 C 21,4 C 14,5 km/h (3 Bft) 95,74 %
08.07.2017 18:58 21,8 C 26,1 C 78 % 1013,6 hPa 0,0 l/m 5,9 km/h (2 Bft) S-SW 192 0 min 0,000 mm 0,0 UV-I 131 W/m 17,8 C 21,8 C 11,3 km/h (2 Bft) 87,23 %
08.07.2017 19:00 21,8 C 26,1 C 79 % 1013,6 hPa 0,0 l/m 7,2 km/h (2 Bft) S-SO 156 0 min 0,000 mm 0,0 UV-I 147 W/m 18,0 C 21,5 C 11,3 km/h (2 Bft) 95,74 %
08.07.2017 19:02 21,8 C 26,1 C 79 % 1013,7 hPa 0,0 l/m 7,1 km/h (2 Bft) S-SO 163 0 min 0,076 mm 0,0 UV-I 149 W/m 18,0 C 21,6 C 12,9 km/h (3 Bft) 92,00 %
08.07.2017 19:04 21,8 C 26,1 C 79 % 1013,7 hPa 0,0 l/m 3,9 km/h (1 Bft) S-SW 197 0 min 0,000 mm 0,0 UV-I 145 W/m 18,0 C 21,8 C 8,0 km/h (2 Bft) 93,62 %
08.07.2017 19:06 21,8 C 26,1 C 79 % 1013,7 hPa 0,0 l/m 6,3 km/h (2 Bft) S-SW 195 0 min 0,000 mm 0,0 UV-I 139 W/m 18,0 C 21,8 C 17,7 km/h (3 Bft) 91,49 %
08.07.2017 19:08 21,9 C 26,1 C 79 % 1013,7 hPa 0,0 l/m 5,9 km/h (2 Bft) S-SW 206 0 min 0,000 mm 0,0 UV-I 130 W/m 18,1 C 21,9 C 11,3 km/h (2 Bft) 93,62 %
08.07.2017 19:10 22,0 C 26,1 C 79 % 1013,7 hPa 0,0 l/m 6,4 km/h (2 Bft) S-SO 160 0 min 0,000 mm 0,0 UV-I 121 W/m 18,2 C 22,0 C 12,9 km/h (3 Bft) 94,29 %
08.07.2017 19:12 22,0 C 26,1 C 78 % 1013,6 hPa 0,0 l/m 5,4 km/h (1 Bft) S 171 0 min 0,000 mm 0,0 UV-I 110 W/m 18,0 C 22,0 C 11,3 km/h (2 Bft) 87,23 %
08.07.2017 19:14 22,0 C 26,1 C 77 % 1013,4 hPa 0,0 l/m 6,1 km/h (2 Bft) S 171 0 min 0,000 mm 0,0 UV-I 103 W/m 17,8 C 22,0 C 9,7 km/h (2 Bft) 93,75 %
08.07.2017 19:16 21,9 C 26,1 C 77 % 1013,4 hPa 0,0 l/m 4,6 km/h (1 Bft) S-SO 163 0 min 0,000 mm 0,0 UV-I 101 W/m 17,7 C 21,9 C 9,7 km/h (2 Bft) 90,38 %
08.07.2017 19:18 21,9 C 26,1 C 76 % 1013,2 hPa 0,0 l/m 5,4 km/h (1 Bft) S 180 0 min 0,000 mm 0,0 UV-I 102 W/m 17,5 C 21,9 C 9,7 km/h (2 Bft) 93,75 %
08.07.2017 19:20 22,0 C 26,1 C 75 % 1013,2 hPa 0,0 l/m 6,9 km/h (2 Bft) S-SO 166 0 min 0,000 mm 0,0 UV-I 105 W/m 17,4 C 21,8 C 11,3 km/h (2 Bft) 93,62 %
08.07.2017 19:22 22,1 C 26,1 C 75 % 1013,2 hPa 0,0 l/m 6,2 km/h (2 Bft) S 171 0 min 0,000 mm 0,0 UV-I 110 W/m 17,5 C 22,1 C 11,3 km/h (2 Bft) 91,49 %
08.07.2017 19:24 22,1 C 26,1 C 75 % 1013,1 hPa 0,0 l/m 6,7 km/h (2 Bft) S-SW 196 0 min 0,000 mm 0,0 UV-I 110 W/m 17,5 C 22,0 C 9,7 km/h (2 Bft) 91,49 %
08.07.2017 19:26 22,1 C 26,1 C 76 % 1013,2 hPa 0,0 l/m 6,8 km/h (2 Bft) S-SW 202 0 min 0,000 mm 0,0 UV-I 95 W/m 17,7 C 22,0 C 11,3 km/h (2 Bft) 93,62 %
08.07.2017 19:28 22,1 C 26,1 C 76 % 1013,2 hPa 0,0 l/m 5,3 km/h (1 Bft) S-SO 163 0 min 0,000 mm 0,0 UV-I 94 W/m 17,7 C 22,1 C 11,3 km/h (2 Bft) 93,62 %
08.07.2017 19:30 22,0 C 26,1 C 76 % 1013,2 hPa 0,0 l/m 5,3 km/h (1 Bft) S-SW 198 0 min 0,000 mm 0,0 UV-I 90 W/m 17,6 C 22,0 C 9,7 km/h (2 Bft) 91,49 %
08.07.2017 19:32 21,9 C 26,1 C 76 % 1013,1 hPa 0,0 l/m 5,5 km/h (1 Bft) S 180 0 min 0,000 mm 0,0 UV-I 90 W/m 17,5 C 21,9 C 9,7 km/h (2 Bft) 93,62 %
08.07.2017 19:34 21,9 C 26,1 C 76 % 1013,1 hPa 0,0 l/m 6,2 km/h (2 Bft) S 169 0 min 0,000 mm 0,0 UV-I 91 W/m 17,5 C 21,9 C 12,9 km/h (3 Bft) 93,62 %
08.07.2017 19:36 21,8 C 26,1 C 76 % 1013,1 hPa 0,0 l/m 4,0 km/h (1 Bft) S-SW 200 0 min 0,000 mm 0,0 UV-I 93 W/m 17,4 C 21,8 C 8,0 km/h (2 Bft) 95,74 %
08.07.2017 19:38 21,8 C 26,1 C 77 % 1013,0 hPa 0,0 l/m 4,4 km/h (1 Bft) S 184 0 min 0,000 mm 0,0 UV-I 93 W/m 17,6 C 21,8 C 8,0 km/h (2 Bft) 95,74 %
08.07.2017 19:40 21,8 C 26,1 C 77 % 1013,0 hPa 0,0 l/m 4,6 km/h (1 Bft) S 173 0 min 0,000 mm 0,0 UV-I 93 W/m 17,6 C 21,8 C 8,0 km/h (2 Bft) 97,87 %
08.07.2017 19:42 21,8 C 26,1 C 77 % 1012,9 hPa 0,0 l/m 4,3 km/h (1 Bft) S-SW 213 0 min 0,000 mm 0,0 UV-I 91 W/m 17,6 C 21,8 C 9,7 km/h (2 Bft) 97,37 %
08.07.2017 19:44 21,8 C 26,1 C 76 % 1012,9 hPa 0,0 l/m 4,2 km/h (1 Bft) S-SW 211 0 min 0,000 mm 0,0 UV-I 88 W/m 17,4 C 21,8 C 8,0 km/h (2 Bft) 97,87 %
08.07.2017 19:46 21,8 C 26,1 C 76 % 1012,9 hPa 0,0 l/m 4,3 km/h (1 Bft) S-SW 211 0 min 0,000 mm 0,0 UV-I 84 W/m 17,4 C 21,8 C 8,0 km/h (2 Bft) 98,00 %
08.07.2017 19:48 21,8 C 26,1 C 77 % 1012,9 hPa 0,0 l/m 6,3 km/h (2 Bft) S-SW 210 0 min 0,000 mm 0,0 UV-I 80 W/m 17,6 C 21,8 C 9,7 km/h (2 Bft) 94,00 %
08.07.2017 19:50 21,8 C 26,1 C 76 % 1013,0 hPa 0,0 l/m 6,8 km/h (2 Bft) W-SW 239 0 min 0,000 mm 0,0 UV-I 76 W/m 17,4 C 21,7 C 14,5 km/h (3 Bft) 96,00 %
08.07.2017 19:52 21,8 C 26,1 C 76 % 1013,1 hPa 0,0 l/m 8,1 km/h (2 Bft) SW 229 0 min 0,000 mm 0,0 UV-I 72 W/m 17,4 C 21,2 C 11,3 km/h (2 Bft) 97,87 %
08.07.2017 19:54 21,8 C 26,1 C 77 % 1013,1 hPa 0,0 l/m 6,2 km/h (2 Bft) S-SW 207 0 min 0,000 mm 0,0 UV-I 69 W/m 17,6 C 21,8 C 9,7 km/h (2 Bft) 97,87 %
08.07.2017 19:56 21,8 C 26,1 C 77 % 1013,1 hPa 0,0 l/m 7,5 km/h (2 Bft) S-SW 209 0 min 0,000 mm 0,0 UV-I 67 W/m 17,6 C 21,4 C 9,7 km/h (2 Bft) 95,74 %
08.07.2017 19:58 21,7 C 26,1 C 77 % 1013,1 hPa 0,0 l/m 6,8 km/h (2 Bft) S-SW 209 0 min 0,000 mm 0,0 UV-I 67 W/m 17,5 C 21,6 C 9,7 km/h (2 Bft) 95,74 %
08.07.2017 20:00 21,7 C 26,1 C 77 % 1013,1 hPa 0,0 l/m 6,2 km/h (2 Bft) SW 222 0 min 0,000 mm 0,0 UV-I 67 W/m 17,5 C 21,7 C 9,7 km/h (2 Bft) 97,22 %
08.07.2017 20:02 21,7 C 26,1 C 77 % 1013,1 hPa 0,0 l/m 7,1 km/h (2 Bft) SW 225 0 min 0,076 mm 0,0 UV-I 65 W/m 17,5 C 21,5 C 9,7 km/h (2 Bft) 94,00 %
08.07.2017 20:04 21,7 C 26,1 C 77 % 1013,1 hPa 0,0 l/m 6,0 km/h (2 Bft) SW 220 0 min 0,000 mm 0,0 UV-I 70 W/m 17,5 C 21,7 C 8,0 km/h (2 Bft) 95,74 %
08.07.2017 20:06 21,7 C 26,1 C 77 % 1013,2 hPa 0,0 l/m 6,3 km/h (2 Bft) S 191 2 min 0,000 mm 0,0 UV-I 85 W/m 17,5 C 21,7 C 8,0 km/h (2 Bft) 97,87 %
08.07.2017 20:08 21,7 C 26,1 C 77 % 1013,1 hPa 0,0 l/m 6,4 km/h (2 Bft) SW 214 2 min 0,000 mm 0,0 UV-I 96 W/m 17,5 C 21,7 C 8,0 km/h (2 Bft) 96,00 %
08.07.2017 20:10 21,8 C 26,1 C 77 % 1013,1 hPa 0,0 l/m 5,2 km/h (1 Bft) SW 217 2 min 0,000 mm 0,0 UV-I 99 W/m 17,6 C 21,8 C 9,7 km/h (2 Bft) 95,74 %
08.07.2017 20:12 21,8 C 26,1 C 76 % 1013,1 hPa 0,0 l/m 5,4 km/h (1 Bft) SW 221 2 min 0,000 mm 0,0 UV-I 100 W/m 17,4 C 21,8 C 8,0 km/h (2 Bft) 96,00 %
08.07.2017 20:14 21,8 C 26,1 C 76 % 1013,1 hPa 0,0 l/m 5,6 km/h (1 Bft) SW 221 2 min 0,000 mm 0,0 UV-I 96 W/m 17,4 C 21,8 C 9,7 km/h (2 Bft) 95,74 %
08.07.2017 20:16 21,9 C 26,1 C 77 % 1013,1 hPa 0,0 l/m 6,9 km/h (2 Bft) W-SW 256 2 min 0,000 mm 0,0 UV-I 95 W/m 17,7 C 21,7 C 12,9 km/h (3 Bft) 100,00 %
08.07.2017 20:18 21,9 C 26,1 C 77 % 1013,2 hPa 0,0 l/m 8,4 km/h (2 Bft) S-SW 207 2 min 0,000 mm 0,0 UV-I 91 W/m 17,7 C 21,2 C 12,9 km/h (3 Bft) 96,77 %
08.07.2017 20:20 21,8 C 26,1 C 77 % 1013,2 hPa 0,0 l/m 7,5 km/h (2 Bft) SW 235 2 min 0,000 mm 0,0 UV-I 85 W/m 17,6 C 21,4 C 11,3 km/h (2 Bft) 93,62 %
08.07.2017 20:22 21,8 C 25,6 C 77 % 1013,2 hPa 0,0 l/m 8,4 km/h (2 Bft) S-SW 205 2 min 0,000 mm 0,0 UV-I 80 W/m 17,6 C 21,1 C 11,3 km/h (2 Bft) 95,74 %
08.07.2017 20:24 21,7 C 25,6 C 77 % 1013,2 hPa 0,0 l/m 9,2 km/h (2 Bft) SW 218 2 min 0,000 mm 0,0 UV-I 74 W/m 17,5 C 20,8 C 14,5 km/h (3 Bft) 97,87 %
08.07.2017 20:26 21,7 C 25,6 C 78 % 1013,3 hPa 0,0 l/m 8,0 km/h (2 Bft) SW 219 2 min 0,000 mm 0,0 UV-I 69 W/m 17,7 C 21,1 C 11,3 km/h (2 Bft) 98,00 %
08.07.2017 20:28 21,6 C 25,6 C 78 % 1013,3 hPa 0,0 l/m 9,7 km/h (2 Bft) SW 228 2 min 0,000 mm 0,0 UV-I 63 W/m 17,6 C 20,5 C 14,5 km/h (3 Bft) 95,74 %
08.07.2017 20:30 21,6 C 25,6 C 78 % 1013,3 hPa 0,0 l/m 8,8 km/h (2 Bft) SW 215 2 min 0,000 mm 0,0 UV-I 58 W/m 17,6 C 20,8 C 14,5 km/h (3 Bft) 97,87 %
08.07.2017 20:32 21,5 C 25,6 C 78 % 1013,2 hPa 0,0 l/m 7,2 km/h (2 Bft) S-SW 207 2 min 0,000 mm 0,0 UV-I 48 W/m 17,5 C 21,2 C 9,7 km/h (2 Bft) 97,87 %
08.07.2017 20:34 21,4 C 25,6 C 79 % 1013,2 hPa 0,0 l/m 6,9 km/h (2 Bft) S 188 2 min 0,000 mm 0,0 UV-I 44 W/m 17,6 C 21,2 C 9,7 km/h (2 Bft) 98,00 %
08.07.2017 20:36 21,4 C 25,6 C 79 % 1013,2 hPa 0,0 l/m 5,7 km/h (1 Bft) S-SW 202 2 min 0,000 mm 0,0 UV-I 42 W/m 17,6 C 21,4 C 9,7 km/h (2 Bft) 97,87 %
08.07.2017 20:38 21,3 C 25,6 C 79 % 1013,2 hPa 0,0 l/m 8,0 km/h (2 Bft) SW 219 2 min 0,000 mm 0,0 UV-I 41 W/m 17,5 C 20,7 C 12,9 km/h (3 Bft) 97,92 %
08.07.2017 20:40 21,3 C 25,6 C 79 % 1013,2 hPa 0,0 l/m 5,9 km/h (2 Bft) S-SW 204 2 min 0,000 mm 0,0 UV-I 37 W/m 17,5 C 21,3 C 11,3 km/h (2 Bft) 95,74 %
08.07.2017 20:42 21,3 C 25,6 C 79 % 1013,2 hPa 0,0 l/m 6,4 km/h (2 Bft) SW 222 2 min 0,000 mm 0,0 UV-I 33 W/m 17,5 C 21,3 C 9,7 km/h (2 Bft) 97,50 %
08.07.2017 20:44 21,3 C 25,6 C 79 % 1013,2 hPa 0,0 l/m 6,5 km/h (2 Bft) S-SW 199 2 min 0,000 mm 0,0 UV-I 30 W/m 17,5 C 21,3 C 14,5 km/h (3 Bft) 97,87 %
08.07.2017 20:46 21,2 C 25,6 C 79 % 1013,1 hPa 0,0 l/m 5,8 km/h (2 Bft) S-SW 199 2 min 0,000 mm 0,0 UV-I 26 W/m 17,4 C 21,2 C 12,9 km/h (3 Bft) 97,87 %
08.07.2017 20:48 21,2 C 25,6 C 79 % 1013,1 hPa 0,0 l/m 5,4 km/h (1 Bft) S 184 2 min 0,000 mm 0,0 UV-I 24 W/m 17,4 C 21,2 C 8,0 km/h (2 Bft) 97,87 %
08.07.2017 20:50 21,2 C 25,6 C 79 % 1013,1 hPa 0,0 l/m 5,9 km/h (2 Bft) S-SW 206 2 min 0,000 mm 0,0 UV-I 22 W/m 17,4 C 21,2 C 9,7 km/h (2 Bft) 95,74 %
08.07.2017 20:52 21,1 C 25,6 C 80 % 1013,2 hPa 0,0 l/m 4,8 km/h (1 Bft) S-SW 203 2 min 0,000 mm 0,0 UV-I 19 W/m 17,5 C 21,1 C 8,0 km/h (2 Bft) 90,00 %
08.07.2017 20:54 21,0 C 25,6 C 81 % 1013,2 hPa 0,0 l/m 6,5 km/h (2 Bft) S-SW 205 0 min 0,000 mm 0,0 UV-I 17 W/m 17,6 C 21,0 C 9,7 km/h (2 Bft) 91,49 %
08.07.2017 20:56 20,9 C 25,6 C 81 % 1013,3 hPa 0,0 l/m 5,0 km/h (1 Bft) S-SW 192 0 min 0,000 mm 0,0 UV-I 15 W/m 17,5 C 20,9 C 8,0 km/h (2 Bft) 93,62 %
08.07.2017 20:58 20,9 C 25,6 C 81 % 1013,3 hPa 0,0 l/m 5,8 km/h (2 Bft) SW 222 0 min 0,000 mm 0,0 UV-I 13 W/m 17,5 C 20,9 C 9,7 km/h (2 Bft) 93,62 %
08.07.2017 21:00 20,8 C 25,6 C 82 % 1013,3 hPa 0,0 l/m 6,5 km/h (2 Bft) S-SW 211 0 min 0,000 mm 0,0 UV-I 12 W/m 17,6 C 20,8 C 11,3 km/h (2 Bft) 93,62 %
08.07.2017 21:03 20,7 C 25,6 C 82 % 1013,3 hPa 0,0 l/m 7,8 km/h (2 Bft) S-SW 207 0 min 0,051 mm 0,0 UV-I 11 W/m 17,5 C 20,2 C 11,3 km/h (2 Bft) 95,95 %
08.07.2017 21:04 20,7 C 25,6 C 82 % 1013,3 hPa 0,0 l/m 9,3 km/h (2 Bft) S-SW 200 0 min 0,000 mm 0,0 UV-I 9 W/m 17,5 C 19,6 C 11,3 km/h (2 Bft) 90,91 %
08.07.2017 21:06 20,7 C 25,6 C 82 % 1013,3 hPa 0,0 l/m 8,3 km/h (2 Bft) S-SW 195 0 min 0,000 mm 0,0 UV-I 9 W/m 17,5 C 20,0 C 12,9 km/h (3 Bft) 93,62 %
08.07.2017 21:08 20,6 C 25,6 C 83 % 1013,3 hPa 0,0 l/m 5,6 km/h (1 Bft) S-SW 208 0 min 0,000 mm 0,0 UV-I 8 W/m 17,6 C 20,6 C 9,7 km/h (2 Bft) 95,74 %
08.07.2017 21:10 20,6 C 25,6 C 83 % 1013,4 hPa 0,0 l/m 6,9 km/h (2 Bft) SW 218 0 min 0,000 mm 0,0 UV-I 7 W/m 17,6 C 20,4 C 14,5 km/h (3 Bft) 96,00 %
08.07.2017 21:12 20,6 C 25,6 C 83 % 1013,4 hPa 0,0 l/m 8,5 km/h (2 Bft) S-SW 213 0 min 0,000 mm 0,0 UV-I 7 W/m 17,6 C 19,8 C 12,9 km/h (3 Bft) 94,00 %
08.07.2017 21:14 20,6 C 25,6 C 83 % 1013,4 hPa 0,0 l/m 7,5 km/h (2 Bft) S-SW 194 0 min 0,000 mm 0,0 UV-I 7 W/m 17,6 C 20,2 C 11,3 km/h (2 Bft) 93,62 %
08.07.2017 21:16 20,5 C 25,6 C 83 % 1013,3 hPa 0,0 l/m 8,0 km/h (2 Bft) SW 217 0 min 0,000 mm 0,0 UV-I 6 W/m 17,5 C 19,9 C 12,9 km/h (3 Bft) 93,75 %
08.07.2017 21:18 20,5 C 25,6 C 83 % 1013,3 hPa 0,0 l/m 6,9 km/h (2 Bft) S-SW 211 0 min 0,000 mm 0,0 UV-I 5 W/m 17,5 C 20,3 C 9,7 km/h (2 Bft) 95,74 %
08.07.2017 21:20 20,5 C 25,6 C 83 % 1013,4 hPa 0,0 l/m 7,4 km/h (2 Bft) S-SW 213 0 min 0,000 mm 0,0 UV-I 5 W/m 17,5 C 20,1 C 11,3 km/h (2 Bft) 95,74 %
08.07.2017 21:22 20,4 C 25,6 C 82 % 1013,4 hPa 0,0 l/m 6,7 km/h (2 Bft) S-SW 209 0 min 0,000 mm 0,0 UV-I 5 W/m 17,2 C 20,3 C 11,3 km/h (2 Bft) 92,00 %
08.07.2017 21:24 20,4 C 25,6 C 82 % 1013,4 hPa 0,0 l/m 6,1 km/h (2 Bft) S-SW 209 0 min 0,000 mm 0,0 UV-I 2 W/m 17,2 C 20,4 C 8,0 km/h (2 Bft) 95,74 %
08.07.2017 21:26 20,4 C 25,6 C 82 % 1013,5 hPa 0,0 l/m 6,5 km/h (2 Bft) SW 218 0 min 0,000 mm 0,0 UV-I 0 W/m 17,2 C 20,4 C 9,7 km/h (2 Bft) 97,87 %
08.07.2017 21:28 20,4 C 25,6 C 82 % 1013,5 hPa 0,0 l/m 5,8 km/h (2 Bft) SW 215 0 min 0,000 mm 0,0 UV-I 0 W/m 17,2 C 20,4 C 8,0 km/h (2 Bft) 97,87 %
08.07.2017 21:30 20,4 C 25,6 C 82 % 1013,6 hPa 0,0 l/m 6,4 km/h (2 Bft) S-SW 212 0 min 0,000 mm 0,0 UV-I 0 W/m 17,2 C 20,4 C 8,0 km/h (2 Bft) 97,87 %
08.07.2017 21:32 20,3 C 25,6 C 83 % 1013,6 hPa 0,0 l/m 4,0 km/h (1 Bft) S-SW 207 0 min 0,000 mm 0,0 UV-I 0 W/m 17,3 C 20,3 C 6,4 km/h (2 Bft) 87,23 %
08.07.2017 21:34 20,3 C 25,6 C 83 % 1013,5 hPa 0,0 l/m 3,3 km/h (1 Bft) S 176 0 min 0,000 mm 0,0 UV-I 0 W/m 17,3 C 20,3 C 6,4 km/h (2 Bft) 94,74 %
08.07.2017 21:36 20,3 C 25,6 C 83 % 1013,5 hPa 0,0 l/m 3,7 km/h (1 Bft) S 186 0 min 0,000 mm 0,0 UV-I 0 W/m 17,3 C 20,3 C 6,4 km/h (2 Bft) 91,49 %
08.07.2017 21:38 20,2 C 25,6 C 83 % 1013,5 hPa 0,0 l/m 4,5 km/h (1 Bft) S 176 0 min 0,000 mm 0,0 UV-I 0 W/m 17,2 C 20,2 C 9,7 km/h (2 Bft) 97,87 %
08.07.2017 21:40 20,2 C 25,6 C 83 % 1013,5 hPa 0,0 l/m 4,0 km/h (1 Bft) S 189 0 min 0,000 mm 0,0 UV-I 0 W/m 17,2 C 20,2 C 8,0 km/h (2 Bft) 97,87 %
08.07.2017 21:42 20,2 C 25,6 C 83 % 1013,5 hPa 0,0 l/m 2,1 km/h (1 Bft) S 189 0 min 0,000 mm 0,0 UV-I 0 W/m 17,2 C 20,2 C 4,8 km/h (1 Bft) 93,62 %
08.07.2017 21:44 20,2 C 25,6 C 84 % 1013,6 hPa 0,0 l/m 3,4 km/h (1 Bft) S 189 0 min 0,000 mm 0,0 UV-I 0 W/m 17,4 C 20,2 C 6,4 km/h (2 Bft) 98,00 %
08.07.2017 21:46 20,2 C 25,6 C 84 % 1013,6 hPa 0,0 l/m 3,3 km/h (1 Bft) S 189 0 min 0,000 mm 0,0 UV-I 0 W/m 17,4 C 20,2 C 4,8 km/h (1 Bft) 96,00 %
08.07.2017 21:48 20,1 C 25,6 C 84 % 1013,6 hPa 0,0 l/m 3,2 km/h (1 Bft) S 189 0 min 0,000 mm 0,0 UV-I 0 W/m 17,3 C 20,1 C 4,8 km/h (1 Bft) 93,62 %
08.07.2017 21:50 20,1 C 25,6 C 84 % 1013,6 hPa 0,0 l/m 2,4 km/h (1 Bft) S 189 0 min 0,000 mm 0,0 UV-I 0 W/m 17,3 C 20,1 C 4,8 km/h (1 Bft) 97,87 %
08.07.2017 21:52 20,0 C 25,6 C 84 % 1013,6 hPa 0,0 l/m 1,0 km/h (0 Bft) S 189 0 min 0,000 mm 0,0 UV-I 0 W/m 17,2 C 20,0 C 3,2 km/h (1 Bft) 97,87 %
08.07.2017 21:54 20,0 C 25,6 C 84 % 1013,6 hPa 0,0 l/m 0,0 km/h (0 Bft) S 189 0 min 0,000 mm 0,0 UV-I 0 W/m 17,2 C 20,0 C 0,0 km/h (0 Bft) 97,22 %
08.07.2017 21:56 20,0 C 25,6 C 84 % 1013,6 hPa 0,0 l/m 0,2 km/h (0 Bft) S 189 0 min 0,000 mm 0,0 UV-I 0 W/m 17,2 C 20,0 C 1,6 km/h (1 Bft) 98,00 %
08.07.2017 21:58 19,9 C 25,6 C 84 % 1013,7 hPa 0,0 l/m 0,0 km/h (0 Bft) S 189 0 min 0,000 mm 0,0 UV-I 0 W/m 17,1 C 19,9 C 0,0 km/h (0 Bft) 97,87 %
08.07.2017 22:00 19,9 C 25,6 C 84 % 1013,7 hPa 0,0 l/m 0,7 km/h (0 Bft) S 189 0 min 0,000 mm 0,0 UV-I 0 W/m 17,1 C 19,9 C 3,2 km/h (1 Bft) 97,87 %
08.07.2017 22:02 19,9 C 25,6 C 85 % 1013,7 hPa 0,0 l/m 1,9 km/h (1 Bft) S 189 0 min 0,025 mm 0,0 UV-I 0 W/m 17,3 C 19,9 C 3,2 km/h (1 Bft) 95,74 %
08.07.2017 22:04 19,9 C 25,6 C 85 % 1013,8 hPa 0,0 l/m 2,9 km/h (1 Bft) S 189 0 min 0,000 mm 0,0 UV-I 0 W/m 17,3 C 19,9 C 4,8 km/h (1 Bft) 93,62 %
08.07.2017 22:06 19,9 C 25,6 C 85 % 1013,9 hPa 0,0 l/m 2,0 km/h (1 Bft) S 189 0 min 0,000 mm 0,0 UV-I 0 W/m 17,3 C 19,9 C 3,2 km/h (1 Bft) 98,00 %
08.07.2017 22:08 19,9 C 25,6 C 85 % 1013,8 hPa 0,0 l/m 2,2 km/h (1 Bft) S 189 0 min 0,000 mm 0,0 UV-I 0 W/m 17,3 C 19,9 C 3,2 km/h (1 Bft) 95,74 %
08.07.2017 22:10 19,9 C 25,6 C 85 % 1013,8 hPa 0,0 l/m 1,0 km/h (0 Bft) S 189 0 min 0,000 mm 0,0 UV-I 0 W/m 17,3 C 19,9 C 3,2 km/h (1 Bft) 96,00 %
08.07.2017 22:12 19,9 C 25,6 C 85 % 1013,8 hPa 0,0 l/m 1,7 km/h (1 Bft) S 189 0 min 0,000 mm 0,0 UV-I 0 W/m 17,3 C 19,9 C 4,8 km/h (1 Bft) 97,87 %
08.07.2017 22:14 19,9 C 25,6 C 85 % 1013,8 hPa 0,0 l/m 2,2 km/h (1 Bft) S 189 0 min 0,000 mm 0,0 UV-I 0 W/m 17,3 C 19,9 C 3,2 km/h (1 Bft) 95,74 %
08.07.2017 22:16 19,8 C 25,6 C 85 % 1013,7 hPa 0,0 l/m 2,0 km/h (1 Bft) S 189 0 min 0,000 mm 0,0 UV-I 0 W/m 17,2 C 19,8 C 4,8 km/h (1 Bft) 97,87 %
08.07.2017 22:18 19,8 C 25,6 C 85 % 1013,9 hPa 0,0 l/m 2,8 km/h (1 Bft) S 189 0 min 0,000 mm 0,0 UV-I 0 W/m 17,2 C 19,8 C 4,8 km/h (1 Bft) 97,87 %
08.07.2017 22:20 19,8 C 25,6 C 85 % 1013,9 hPa 0,0 l/m 2,9 km/h (1 Bft) S 189 0 min 0,000 mm 0,0 UV-I 0 W/m 17,2 C 19,8 C 4,8 km/h (1 Bft) 95,74 %
08.07.2017 22:22 19,8 C 25,6 C 85 % 1014,0 hPa 0,0 l/m 4,1 km/h (1 Bft) S 189 0 min 0,000 mm 0,0 UV-I 0 W/m 17,2 C 19,8 C 6,4 km/h (2 Bft) 97,14 %
08.07.2017 22:24 19,8 C 25,6 C 85 % 1014,0 hPa 0,0 l/m 4,9 km/h (1 Bft) S 189 0 min 0,000 mm 0,0 UV-I 0 W/m 17,2 C 19,8 C 6,4 km/h (2 Bft) 96,23 %
08.07.2017 22:26 19,8 C 25,6 C 85 % 1014,0 hPa 0,0 l/m 3,6 km/h (1 Bft) S 189 0 min 0,000 mm 0,0 UV-I 0 W/m 17,2 C 19,8 C 6,4 km/h (2 Bft) 97,87 %
08.07.2017 22:28 19,8 C 25,6 C 85 % 1014,0 hPa 0,0 l/m 2,5 km/h (1 Bft) S 189 0 min 0,000 mm 0,0 UV-I 0 W/m 17,2 C 19,8 C 4,8 km/h (1 Bft) 95,74 %
08.07.2017 22:30 19,7 C 25,6 C 85 % 1014,0 hPa 0,0 l/m 2,5 km/h (1 Bft) S 189 0 min 0,000 mm 0,0 UV-I 0 W/m 17,1 C 19,7 C 3,2 km/h (1 Bft) 95,74 %
08.07.2017 22:32 19,7 C 25,6 C 86 % 1014,1 hPa 0,0 l/m 2,9 km/h (1 Bft) S 189 0 min 0,000 mm 0,0 UV-I 0 W/m 17,3 C 19,7 C 4,8 km/h (1 Bft) 93,75 %
08.07.2017 22:34 19,7 C 25,6 C 86 % 1014,1 hPa 0,0 l/m 2,5 km/h (1 Bft) S 189 0 min 0,000 mm 0,0 UV-I 0 W/m 17,3 C 19,7 C 4,8 km/h (1 Bft) 95,74 %
08.07.2017 22:36 19,7 C 25,6 C 86 % 1014,1 hPa 0,0 l/m 0,7 km/h (0 Bft) S 189 0 min 0,000 mm 0,0 UV-I 0 W/m 17,3 C 19,7 C 1,6 km/h (1 Bft) 96,00 %
08.07.2017 22:38 19,6 C 25,6 C 86 % 1014,1 hPa 0,0 l/m 0,3 km/h (0 Bft) S 189 0 min 0,000 mm 0,0 UV-I 0 W/m 17,2 C 19,6 C 1,6 km/h (1 Bft) 97,87 %
08.07.2017 22:40 19,6 C 25,6 C 86 % 1014,1 hPa 0,0 l/m 0,6 km/h (0 Bft) S 189 0 min 0,000 mm 0,0 UV-I 0 W/m 17,2 C 19,6 C 1,6 km/h (1 Bft) 91,49 %
08.07.2017 22:42 19,6 C 25,6 C 87 % 1014,1 hPa 0,0 l/m 2,0 km/h (1 Bft) S 189 0 min 0,000 mm 0,0 UV-I 0 W/m 17,4 C 19,6 C 4,8 km/h (1 Bft) 95,74 %
08.07.2017 22:44 19,6 C 25,6 C 87 % 1014,2 hPa 0,0 l/m 2,8 km/h (1 Bft) S 189 0 min 0,000 mm 0,0 UV-I 0 W/m 17,4 C 19,6 C 4,8 km/h (1 Bft) 93,62 %
08.07.2017 22:46 19,5 C 25,6 C 87 % 1014,1 hPa 0,0 l/m 3,2 km/h (1 Bft) S 189 0 min 0,000 mm 0,0 UV-I 0 W/m 17,3 C 19,5 C 4,8 km/h (1 Bft) 95,74 %
08.07.2017 22:48 19,5 C 25,6 C 87 % 1014,1 hPa 0,0 l/m 1,6 km/h (1 Bft) S 189 0 min 0,000 mm 0,0 UV-I 0 W/m 17,3 C 19,5 C 3,2 km/h (1 Bft) 93,62 %
08.07.2017 22:50 19,5 C 25,6 C 87 % 1014,2 hPa 0,0 l/m 2,0 km/h (1 Bft) S 189 0 min 0,000 mm 0,0 UV-I 0 W/m 17,3 C 19,5 C 3,2 km/h (1 Bft) 93,62 %
08.07.2017 22:52 19,5 C 25,6 C 87 % 1014,1 hPa 0,0 l/m 1,5 km/h (1 Bft) S 189 0 min 0,000 mm 0,0 UV-I 0 W/m 17,3 C 19,5 C 3,2 km/h (1 Bft) 91,43 %
08.07.2017 22:54 19,5 C 25,6 C 87 % 1014,1 hPa 0,0 l/m 3,0 km/h (1 Bft) S 188 0 min 0,000 mm 0,0 UV-I 0 W/m 17,3 C 19,5 C 4,8 km/h (1 Bft) 91,84 %
08.07.2017 22:56 19,6 C 25,6 C 87 % 1014,1 hPa 0,0 l/m 3,1 km/h (1 Bft) S 188 0 min 0,000 mm 0,0 UV-I 0 W/m 17,4 C 19,6 C 4,8 km/h (1 Bft) 93,62 %
08.07.2017 22:58 19,6 C 25,6 C 87 % 1014,1 hPa 0,0 l/m 3,3 km/h (1 Bft) S 188 0 min 0,000 mm 0,0 UV-I 0 W/m 17,4 C 19,6 C 6,4 km/h (2 Bft) 92,00 %
08.07.2017 23:00 19,6 C 25,6 C 87 % 1014,1 hPa 0,0 l/m 3,6 km/h (1 Bft) S 190 0 min 0,000 mm 0,0 UV-I 0 W/m 17,4 C 19,6 C 6,4 km/h (2 Bft) 91,49 %
08.07.2017 23:02 19,6 C 25,6 C 87 % 1014,0 hPa 0,0 l/m 3,6 km/h (1 Bft) S 190 0 min 0,000 mm 0,0 UV-I 0 W/m 17,4 C 19,6 C 4,8 km/h (1 Bft) 93,62 %
08.07.2017 23:04 19,6 C 25,6 C 87 % 1013,9 hPa 0,0 l/m 1,5 km/h (1 Bft) S 190 0 min 0,000 mm 0,0 UV-I 0 W/m 17,4 C 19,6 C 3,2 km/h (1 Bft) 91,49 %
08.07.2017 23:06 19,6 C 25,6 C 87 % 1013,9 hPa 0,0 l/m 1,2 km/h (1 Bft) S 190 0 min 0,000 mm 0,0 UV-I 0 W/m 17,4 C 19,6 C 3,2 km/h (1 Bft) 91,49 %
08.07.2017 23:08 19,6 C 25,6 C 87 % 1014,0 hPa 0,0 l/m 2,8 km/h (1 Bft) S 190 0 min 0,000 mm 0,0 UV-I 0 W/m 17,4 C 19,6 C 4,8 km/h (1 Bft) 87,23 %
08.07.2017 23:10 19,7 C 25,6 C 87 % 1014,0 hPa 0,0 l/m 2,6 km/h (1 Bft) S 190 0 min 0,000 mm 0,0 UV-I 0 W/m 17,5 C 19,7 C 4,8 km/h (1 Bft) 93,62 %
08.07.2017 23:12 19,7 C 25,6 C 86 % 1013,9 hPa 0,0 l/m 1,5 km/h (1 Bft) S 190 0 min 0,000 mm 0,0 UV-I 0 W/m 17,3 C 19,7 C 4,8 km/h (1 Bft) 93,75 %
08.07.2017 23:14 19,7 C 25,6 C 86 % 1013,9 hPa 0,0 l/m 0,5 km/h (0 Bft) S 190 0 min 0,000 mm 0,0 UV-I 0 W/m 17,3 C 19,7 C 1,6 km/h (1 Bft) 93,62 %
08.07.2017 23:16 19,6 C 25,6 C 86 % 1013,9 hPa 0,0 l/m 0,2 km/h (0 Bft) S 190 0 min 0,000 mm 0,0 UV-I 0 W/m 17,2 C 19,6 C 1,6 km/h (1 Bft) 91,49 %
08.07.2017 23:18 19,4 C 25,6 C 87 % 1013,8 hPa 0,0 l/m 0,0 km/h (0 Bft) S 190 0 min 0,000 mm 0,0 UV-I 0 W/m 17,2 C 19,4 C 0,0 km/h (0 Bft) 91,49 %
08.07.2017 23:20 19,3 C 25,6 C 87 % 1013,8 hPa 0,0 l/m 0,0 km/h (0 Bft) S 190 0 min 0,000 mm 0,0 UV-I 0 W/m 17,1 C 19,3 C 0,0 km/h (0 Bft) 91,49 %
08.07.2017 23:22 19,1 C 25,6 C 88 % 1013,8 hPa 0,0 l/m 0,0 km/h (0 Bft) S 190 0 min 0,000 mm 0,0 UV-I 0 W/m 17,1 C 19,1 C 0,0 km/h (0 Bft) 95,74 %
08.07.2017 23:24 19,1 C 25,6 C 88 % 1013,8 hPa 0,0 l/m 0,6 km/h (0 Bft) S 190 0 min 0,000 mm 0,0 UV-I 0 W/m 17,1 C 19,1 C 3,2 km/h (1 Bft) 95,74 %
08.07.2017 23:26 19,1 C 25,6 C 89 % 1013,8 hPa 0,0 l/m 1,7 km/h (1 Bft) S 190 0 min 0,000 mm 0,0 UV-I 0 W/m 17,2 C 19,1 C 3,2 km/h (1 Bft) 92,00 %
08.07.2017 23:28 19,1 C 25,6 C 89 % 1013,8 hPa 0,0 l/m 1,9 km/h (1 Bft) S 190 0 min 0,000 mm 0,0 UV-I 0 W/m 17,2 C 19,1 C 3,2 km/h (1 Bft) 97,14 %
08.07.2017 23:30 19,1 C 25,6 C 89 % 1013,8 hPa 0,0 l/m 2,6 km/h (1 Bft) S 190 0 min 0,000 mm 0,0 UV-I 0 W/m 17,2 C 19,1 C 4,8 km/h (1 Bft) 95,74 %
08.07.2017 23:32 19,1 C 25,6 C 89 % 1013,8 hPa 0,0 l/m 2,3 km/h (1 Bft) S 190 0 min 0,000 mm 0,0 UV-I 0 W/m 17,2 C 19,1 C 3,2 km/h (1 Bft) 92,31 %
08.07.2017 23:34 19,1 C 25,6 C 89 % 1013,7 hPa 0,0 l/m 2,3 km/h (1 Bft) S 190 0 min 0,000 mm 0,0 UV-I 0 W/m 17,2 C 19,1 C 3,2 km/h (1 Bft) 96,00 %
08.07.2017 23:36 19,1 C 25,6 C 89 % 1013,7 hPa 0,0 l/m 2,4 km/h (1 Bft) S 190 0 min 0,000 mm 0,0 UV-I 0 W/m 17,2 C 19,1 C 3,2 km/h (1 Bft) 97,87 %
08.07.2017 23:38 19,1 C 25,6 C 89 % 1013,7 hPa 0,0 l/m 2,5 km/h (1 Bft) S 190 0 min 0,000 mm 0,0 UV-I 0 W/m 17,2 C 19,1 C 4,8 km/h (1 Bft) 97,37 %
08.07.2017 23:40 19,1 C 25,6 C 89 % 1013,7 hPa 0,0 l/m 2,4 km/h (1 Bft) S 190 0 min 0,000 mm 0,0 UV-I 0 W/m 17,2 C 19,1 C 3,2 km/h (1 Bft) 97,87 %
08.07.2017 23:42 19,1 C 25,6 C 89 % 1013,7 hPa 0,0 l/m 2,7 km/h (1 Bft) S 190 0 min 0,000 mm 0,0 UV-I 0 W/m 17,2 C 19,1 C 3,2 km/h (1 Bft) 100,00 %
08.07.2017 23:44 19,1 C 25,6 C 89 % 1013,7 hPa 0,0 l/m 2,5 km/h (1 Bft) S 190 0 min 0,000 mm 0,0 UV-I 0 W/m 17,2 C 19,1 C 4,8 km/h (1 Bft) 95,74 %
08.07.2017 23:46 19,1 C 25,6 C 89 % 1013,7 hPa 0,0 l/m 1,8 km/h (1 Bft) S 190 0 min 0,000 mm 0,0 UV-I 0 W/m 17,2 C 19,1 C 3,2 km/h (1 Bft) 97,87 %
08.07.2017 23:48 19,1 C 25,6 C 89 % 1013,7 hPa 0,0 l/m 2,6 km/h (1 Bft) S 190 0 min 0,000 mm 0,0 UV-I 0 W/m 17,2 C 19,1 C 4,8 km/h (1 Bft) 97,92 %
08.07.2017 23:50 19,1 C 25,6 C 89 % 1013,7 hPa 0,0 l/m 2,6 km/h (1 Bft) S 190 0 min 0,000 mm 0,0 UV-I 0 W/m 17,2 C 19,1 C 4,8 km/h (1 Bft) 95,92 %
08.07.2017 23:52 19,2 C 25,6 C 89 % 1013,7 hPa 0,0 l/m 2,1 km/h (1 Bft) S 190 0 min 0,000 mm 0,0 UV-I 0 W/m 17,3 C 19,2 C 3,2 km/h (1 Bft) 98,00 %
08.07.2017 23:54 19,2 C 25,6 C 89 % 1013,7 hPa 0,0 l/m 2,7 km/h (1 Bft) S 190 0 min 0,000 mm 0,0 UV-I 0 W/m 17,3 C 19,2 C 4,8 km/h (1 Bft) 97,44 %
08.07.2017 23:56 19,2 C 25,6 C 89 % 1013,7 hPa 0,0 l/m 3,0 km/h (1 Bft) S 190 0 min 0,000 mm 0,0 UV-I 0 W/m 17,3 C 19,2 C 4,8 km/h (1 Bft) 95,74 %
08.07.2017 23:58 19,2 C 25,6 C 89 % 1013,7 hPa 0,0 l/m 2,5 km/h (1 Bft) S 190 0 min 0,000 mm 0,0 UV-I 0 W/m 17,3 C 19,2 C 4,8 km/h (1 Bft) 95,74 %
_ Min-Zeit 03:46 02:24 14:18 16:32 - 03:24 - - - - - - 14:30 01:54 03:24 18:58
Minimum _ 17,0 C 24,4 C 34 % 1012,7 hPa - 0,0 km/h (0 Bft) - - - - - - 12,9 C 13,1 C 0,0 km/h (0 Bft) 87,23 %
_ Max-Zeit 14:18 14:20 03:50 01:26 01:30 01:24 - - 05:26 15:00 12:42 12:56 10:48 16:20 01:30 01:00
Maximum _ 30,8 C 26,1 C 95 % 1015,5 hPa 1,2 l/m 39,5 km/h
S-SW (6 Bft)
- - 2 min 0,660 mm 6,9 UV-I 1092 W/m 19,4 C 30,6 C 61,2 km/h
W-SW (7 Bft)
100,00 %
Durchschnitt _ 22,6 C 25,2 C 73 % 1014,3 hPa #4,4 l/m 7,1 km/h (2 Bft) W-SW - #8:56 h #4,978 mm 3,6 UV-I 374 W/m 16,8 C 22,2 C 12,2 km/h (2 Bft) 96,42 %